<?xml version="1.0" encoding="UTF-8" standalone="no" ?>
<gpx xmlns="http://www.topografix.com/GPX/1/1" xmlns:xsi="http://www.w3.org/2001/XMLSchema-instance" xsi:schemaLocation="http://www.topografix.com/GPX/1/1 http://www.topografix.com/GPX/1/1/gpx.xsd" version="1.1" creator="VisuGPX - https://www.visugpx.com">
  <metadata>
    <name>2023-10-30-46-sentier de Brissoles st germain</name>
    <desc><![CDATA[Randonnée de 10 km environ 200m de dénivelé positif. Une seule longue côte au programme, a découvrir quelques puits et gariottes sur ce circuit en sous bois et nature]]></desc>
  </metadata>
  <trk>
    <name><![CDATA[Parcours du 25/10/2023 16h48 st germain]]></name>
    <extensions>
      <line xmlns="http://www.topografix.com/GPX/gpx_style/0/2">
        <color>0000FF</color>
        <width>4</width>
      </line>
    </extensions>
    <trkseg>
      <trkpt lat="44.64975" lon="1.43571">
        <ele>202.3</ele>
        <time>2023-10-25T12:20:06Z</time>
      </trkpt>
      <trkpt lat="44.64979" lon="1.4358">
        <ele>201.9</ele>
        <time>2023-10-25T12:20:13Z</time>
      </trkpt>
      <trkpt lat="44.64981" lon="1.43587">
        <ele>201.6</ele>
        <time>2023-10-25T12:20:17Z</time>
      </trkpt>
      <trkpt lat="44.64983" lon="1.43594">
        <ele>203.4</ele>
        <time>2023-10-25T12:20:21Z</time>
      </trkpt>
      <trkpt lat="44.64984" lon="1.43602">
        <ele>203.6</ele>
        <time>2023-10-25T12:20:25Z</time>
      </trkpt>
      <trkpt lat="44.64986" lon="1.43609">
        <ele>204</ele>
        <time>2023-10-25T12:20:29Z</time>
      </trkpt>
      <trkpt lat="44.64987" lon="1.43616">
        <ele>204.4</ele>
        <time>2023-10-25T12:20:33Z</time>
      </trkpt>
      <trkpt lat="44.64989" lon="1.43624">
        <ele>204.7</ele>
        <time>2023-10-25T12:20:38Z</time>
      </trkpt>
      <trkpt lat="44.64992" lon="1.43631">
        <ele>204.4</ele>
        <time>2023-10-25T12:20:41Z</time>
      </trkpt>
      <trkpt lat="44.64995" lon="1.43636">
        <ele>203.5</ele>
        <time>2023-10-25T12:20:43Z</time>
      </trkpt>
      <trkpt lat="44.64997" lon="1.43642">
        <ele>202.2</ele>
        <time>2023-10-25T12:20:47Z</time>
      </trkpt>
      <trkpt lat="44.64998" lon="1.43648">
        <ele>201.9</ele>
        <time>2023-10-25T12:20:50Z</time>
      </trkpt>
      <trkpt lat="44.64999" lon="1.43655">
        <ele>199.8</ele>
        <time>2023-10-25T12:20:53Z</time>
      </trkpt>
      <trkpt lat="44.64999" lon="1.43662">
        <ele>199.4</ele>
        <time>2023-10-25T12:20:56Z</time>
      </trkpt>
      <trkpt lat="44.65" lon="1.4367">
        <ele>198.5</ele>
        <time>2023-10-25T12:20:59Z</time>
      </trkpt>
      <trkpt lat="44.65002" lon="1.43678">
        <ele>198.1</ele>
        <time>2023-10-25T12:21:03Z</time>
      </trkpt>
      <trkpt lat="44.65004" lon="1.43685">
        <ele>197.7</ele>
        <time>2023-10-25T12:21:06Z</time>
      </trkpt>
      <trkpt lat="44.65004" lon="1.43693">
        <ele>196.2</ele>
        <time>2023-10-25T12:21:10Z</time>
      </trkpt>
      <trkpt lat="44.65005" lon="1.43699">
        <ele>197.5</ele>
        <time>2023-10-25T12:21:14Z</time>
      </trkpt>
      <trkpt lat="44.65006" lon="1.43706">
        <ele>196</ele>
        <time>2023-10-25T12:21:18Z</time>
      </trkpt>
      <trkpt lat="44.65008" lon="1.43713">
        <ele>196.5</ele>
        <time>2023-10-25T12:21:22Z</time>
      </trkpt>
      <trkpt lat="44.6501" lon="1.4372">
        <ele>200.1</ele>
        <time>2023-10-25T12:21:26Z</time>
      </trkpt>
      <trkpt lat="44.65012" lon="1.43727">
        <ele>200.7</ele>
        <time>2023-10-25T12:21:30Z</time>
      </trkpt>
      <trkpt lat="44.65014" lon="1.43733">
        <ele>202.2</ele>
        <time>2023-10-25T12:21:34Z</time>
      </trkpt>
      <trkpt lat="44.65016" lon="1.4374">
        <ele>203.2</ele>
        <time>2023-10-25T12:21:38Z</time>
      </trkpt>
      <trkpt lat="44.65019" lon="1.43745">
        <ele>202.7</ele>
        <time>2023-10-25T12:21:42Z</time>
      </trkpt>
      <trkpt lat="44.65021" lon="1.43751">
        <ele>202</ele>
        <time>2023-10-25T12:21:46Z</time>
      </trkpt>
      <trkpt lat="44.65023" lon="1.43757">
        <ele>203.3</ele>
        <time>2023-10-25T12:21:50Z</time>
      </trkpt>
      <trkpt lat="44.65024" lon="1.43765">
        <ele>204.9</ele>
        <time>2023-10-25T12:21:55Z</time>
      </trkpt>
      <trkpt lat="44.65026" lon="1.43771">
        <ele>205</ele>
        <time>2023-10-25T12:21:59Z</time>
      </trkpt>
      <trkpt lat="44.65027" lon="1.43778">
        <ele>204.9</ele>
        <time>2023-10-25T12:22:03Z</time>
      </trkpt>
      <trkpt lat="44.65028" lon="1.43785">
        <ele>205.1</ele>
        <time>2023-10-25T12:22:07Z</time>
      </trkpt>
      <trkpt lat="44.6503" lon="1.43792">
        <ele>205.6</ele>
        <time>2023-10-25T12:22:11Z</time>
      </trkpt>
      <trkpt lat="44.65033" lon="1.43799">
        <ele>205.9</ele>
        <time>2023-10-25T12:22:25Z</time>
      </trkpt>
      <trkpt lat="44.65035" lon="1.43805">
        <ele>208.5</ele>
        <time>2023-10-25T12:22:33Z</time>
      </trkpt>
      <trkpt lat="44.65037" lon="1.43811">
        <ele>208.8</ele>
        <time>2023-10-25T12:22:37Z</time>
      </trkpt>
      <trkpt lat="44.6504" lon="1.43817">
        <ele>207.9</ele>
        <time>2023-10-25T12:22:41Z</time>
      </trkpt>
      <trkpt lat="44.65043" lon="1.43822">
        <ele>207.6</ele>
        <time>2023-10-25T12:22:45Z</time>
      </trkpt>
      <trkpt lat="44.65046" lon="1.43828">
        <ele>207</ele>
        <time>2023-10-25T12:22:49Z</time>
      </trkpt>
      <trkpt lat="44.6505" lon="1.43834">
        <ele>205.8</ele>
        <time>2023-10-25T12:22:53Z</time>
      </trkpt>
      <trkpt lat="44.65053" lon="1.43838">
        <ele>204.8</ele>
        <time>2023-10-25T12:22:56Z</time>
      </trkpt>
      <trkpt lat="44.65057" lon="1.43841">
        <ele>204.2</ele>
        <time>2023-10-25T12:22:59Z</time>
      </trkpt>
      <trkpt lat="44.65062" lon="1.43844">
        <ele>203.6</ele>
        <time>2023-10-25T12:23:02Z</time>
      </trkpt>
      <trkpt lat="44.65066" lon="1.43848">
        <ele>204.1</ele>
        <time>2023-10-25T12:23:05Z</time>
      </trkpt>
      <trkpt lat="44.65071" lon="1.43852">
        <ele>203.8</ele>
        <time>2023-10-25T12:23:09Z</time>
      </trkpt>
      <trkpt lat="44.65075" lon="1.43855">
        <ele>202.6</ele>
        <time>2023-10-25T12:23:12Z</time>
      </trkpt>
      <trkpt lat="44.6508" lon="1.43857">
        <ele>202.9</ele>
        <time>2023-10-25T12:23:15Z</time>
      </trkpt>
      <trkpt lat="44.65086" lon="1.43858">
        <ele>202</ele>
        <time>2023-10-25T12:23:19Z</time>
      </trkpt>
      <trkpt lat="44.65092" lon="1.43858">
        <ele>202.4</ele>
        <time>2023-10-25T12:23:23Z</time>
      </trkpt>
      <trkpt lat="44.65098" lon="1.43857">
        <ele>202.8</ele>
        <time>2023-10-25T12:23:27Z</time>
      </trkpt>
      <trkpt lat="44.65102" lon="1.43857">
        <ele>202.1</ele>
        <time>2023-10-25T12:23:30Z</time>
      </trkpt>
      <trkpt lat="44.65107" lon="1.43857">
        <ele>201.3</ele>
        <time>2023-10-25T12:23:33Z</time>
      </trkpt>
      <trkpt lat="44.65112" lon="1.43858">
        <ele>201.8</ele>
        <time>2023-10-25T12:23:37Z</time>
      </trkpt>
      <trkpt lat="44.65117" lon="1.43858">
        <ele>202.6</ele>
        <time>2023-10-25T12:23:40Z</time>
      </trkpt>
      <trkpt lat="44.65121" lon="1.43863">
        <ele>202.4</ele>
        <time>2023-10-25T12:24:43Z</time>
      </trkpt>
      <trkpt lat="44.65124" lon="1.43868">
        <ele>205.4</ele>
        <time>2023-10-25T12:24:47Z</time>
      </trkpt>
      <trkpt lat="44.65127" lon="1.43874">
        <ele>206.8</ele>
        <time>2023-10-25T12:24:50Z</time>
      </trkpt>
      <trkpt lat="44.6513" lon="1.43879">
        <ele>207.6</ele>
        <time>2023-10-25T12:24:53Z</time>
      </trkpt>
      <trkpt lat="44.65131" lon="1.43885">
        <ele>207.9</ele>
        <time>2023-10-25T12:24:56Z</time>
      </trkpt>
      <trkpt lat="44.65132" lon="1.43892">
        <ele>208.2</ele>
        <time>2023-10-25T12:24:59Z</time>
      </trkpt>
      <trkpt lat="44.65132" lon="1.43898">
        <ele>208.1</ele>
        <time>2023-10-25T12:25:02Z</time>
      </trkpt>
      <trkpt lat="44.65132" lon="1.43905">
        <ele>208</ele>
        <time>2023-10-25T12:25:05Z</time>
      </trkpt>
      <trkpt lat="44.65131" lon="1.43912">
        <ele>207.4</ele>
        <time>2023-10-25T12:25:08Z</time>
      </trkpt>
      <trkpt lat="44.6513" lon="1.43919">
        <ele>207.7</ele>
        <time>2023-10-25T12:25:11Z</time>
      </trkpt>
      <trkpt lat="44.6513" lon="1.43926">
        <ele>209</ele>
        <time>2023-10-25T12:25:14Z</time>
      </trkpt>
      <trkpt lat="44.6513" lon="1.43933">
        <ele>209</ele>
        <time>2023-10-25T12:25:17Z</time>
      </trkpt>
      <trkpt lat="44.65131" lon="1.4394">
        <ele>209.9</ele>
        <time>2023-10-25T12:25:20Z</time>
      </trkpt>
      <trkpt lat="44.65133" lon="1.43945">
        <ele>209.9</ele>
        <time>2023-10-25T12:25:23Z</time>
      </trkpt>
      <trkpt lat="44.65136" lon="1.4395">
        <ele>209.5</ele>
        <time>2023-10-25T12:25:26Z</time>
      </trkpt>
      <trkpt lat="44.6514" lon="1.43954">
        <ele>209.7</ele>
        <time>2023-10-25T12:25:29Z</time>
      </trkpt>
      <trkpt lat="44.65145" lon="1.43956">
        <ele>209.4</ele>
        <time>2023-10-25T12:25:32Z</time>
      </trkpt>
      <trkpt lat="44.6515" lon="1.43957">
        <ele>209.5</ele>
        <time>2023-10-25T12:25:35Z</time>
      </trkpt>
      <trkpt lat="44.65154" lon="1.43957">
        <ele>210</ele>
        <time>2023-10-25T12:25:38Z</time>
      </trkpt>
      <trkpt lat="44.65159" lon="1.43957">
        <ele>210.3</ele>
        <time>2023-10-25T12:25:41Z</time>
      </trkpt>
      <trkpt lat="44.65164" lon="1.43957">
        <ele>209.7</ele>
        <time>2023-10-25T12:25:44Z</time>
      </trkpt>
      <trkpt lat="44.65169" lon="1.43958">
        <ele>210.4</ele>
        <time>2023-10-25T12:25:47Z</time>
      </trkpt>
      <trkpt lat="44.65174" lon="1.4396">
        <ele>210.6</ele>
        <time>2023-10-25T12:25:50Z</time>
      </trkpt>
      <trkpt lat="44.65178" lon="1.43961">
        <ele>210.6</ele>
        <time>2023-10-25T12:25:53Z</time>
      </trkpt>
      <trkpt lat="44.65183" lon="1.43965">
        <ele>209.5</ele>
        <time>2023-10-25T12:25:57Z</time>
      </trkpt>
      <trkpt lat="44.65188" lon="1.4397">
        <ele>208.9</ele>
        <time>2023-10-25T12:26:01Z</time>
      </trkpt>
      <trkpt lat="44.6519" lon="1.43976">
        <ele>209.4</ele>
        <time>2023-10-25T12:26:04Z</time>
      </trkpt>
      <trkpt lat="44.65193" lon="1.43982">
        <ele>210.2</ele>
        <time>2023-10-25T12:26:07Z</time>
      </trkpt>
      <trkpt lat="44.65196" lon="1.43988">
        <ele>209.6</ele>
        <time>2023-10-25T12:26:11Z</time>
      </trkpt>
      <trkpt lat="44.65199" lon="1.43995">
        <ele>210.4</ele>
        <time>2023-10-25T12:26:15Z</time>
      </trkpt>
      <trkpt lat="44.65202" lon="1.44002">
        <ele>209.7</ele>
        <time>2023-10-25T12:26:19Z</time>
      </trkpt>
      <trkpt lat="44.65202" lon="1.44009">
        <ele>210.4</ele>
        <time>2023-10-25T12:26:22Z</time>
      </trkpt>
      <trkpt lat="44.65203" lon="1.44017">
        <ele>213.1</ele>
        <time>2023-10-25T12:26:26Z</time>
      </trkpt>
      <trkpt lat="44.65205" lon="1.44024">
        <ele>212.9</ele>
        <time>2023-10-25T12:26:30Z</time>
      </trkpt>
      <trkpt lat="44.65207" lon="1.44032">
        <ele>211.7</ele>
        <time>2023-10-25T12:26:34Z</time>
      </trkpt>
      <trkpt lat="44.65209" lon="1.44039">
        <ele>211</ele>
        <time>2023-10-25T12:26:38Z</time>
      </trkpt>
      <trkpt lat="44.65212" lon="1.44044">
        <ele>210.5</ele>
        <time>2023-10-25T12:26:42Z</time>
      </trkpt>
      <trkpt lat="44.65214" lon="1.44051">
        <ele>212.4</ele>
        <time>2023-10-25T12:26:46Z</time>
      </trkpt>
      <trkpt lat="44.65216" lon="1.44058">
        <ele>214</ele>
        <time>2023-10-25T12:26:50Z</time>
      </trkpt>
      <trkpt lat="44.65218" lon="1.44064">
        <ele>213.6</ele>
        <time>2023-10-25T12:26:54Z</time>
      </trkpt>
      <trkpt lat="44.6522" lon="1.44071">
        <ele>216.3</ele>
        <time>2023-10-25T12:26:58Z</time>
      </trkpt>
      <trkpt lat="44.65222" lon="1.44079">
        <ele>215.7</ele>
        <time>2023-10-25T12:27:02Z</time>
      </trkpt>
      <trkpt lat="44.65223" lon="1.44086">
        <ele>216.6</ele>
        <time>2023-10-25T12:27:06Z</time>
      </trkpt>
      <trkpt lat="44.65225" lon="1.44094">
        <ele>217.4</ele>
        <time>2023-10-25T12:27:10Z</time>
      </trkpt>
      <trkpt lat="44.65228" lon="1.44101">
        <ele>216.2</ele>
        <time>2023-10-25T12:27:14Z</time>
      </trkpt>
      <trkpt lat="44.6523" lon="1.44108">
        <ele>216.4</ele>
        <time>2023-10-25T12:27:18Z</time>
      </trkpt>
      <trkpt lat="44.65232" lon="1.44115">
        <ele>215.9</ele>
        <time>2023-10-25T12:27:22Z</time>
      </trkpt>
      <trkpt lat="44.65235" lon="1.44121">
        <ele>216.1</ele>
        <time>2023-10-25T12:27:26Z</time>
      </trkpt>
      <trkpt lat="44.65238" lon="1.44127">
        <ele>215.8</ele>
        <time>2023-10-25T12:27:30Z</time>
      </trkpt>
      <trkpt lat="44.65241" lon="1.44134">
        <ele>215.6</ele>
        <time>2023-10-25T12:27:34Z</time>
      </trkpt>
      <trkpt lat="44.65243" lon="1.4414">
        <ele>215.3</ele>
        <time>2023-10-25T12:27:38Z</time>
      </trkpt>
      <trkpt lat="44.65246" lon="1.44147">
        <ele>215.2</ele>
        <time>2023-10-25T12:27:42Z</time>
      </trkpt>
      <trkpt lat="44.65249" lon="1.44153">
        <ele>214.5</ele>
        <time>2023-10-25T12:27:46Z</time>
      </trkpt>
      <trkpt lat="44.65253" lon="1.44159">
        <ele>214.9</ele>
        <time>2023-10-25T12:27:50Z</time>
      </trkpt>
      <trkpt lat="44.65257" lon="1.44164">
        <ele>214.8</ele>
        <time>2023-10-25T12:27:54Z</time>
      </trkpt>
      <trkpt lat="44.65261" lon="1.4417">
        <ele>214.8</ele>
        <time>2023-10-25T12:27:58Z</time>
      </trkpt>
      <trkpt lat="44.65265" lon="1.44176">
        <ele>215.8</ele>
        <time>2023-10-25T12:28:02Z</time>
      </trkpt>
      <trkpt lat="44.65269" lon="1.44182">
        <ele>217.8</ele>
        <time>2023-10-25T12:28:06Z</time>
      </trkpt>
      <trkpt lat="44.65273" lon="1.44188">
        <ele>217.7</ele>
        <time>2023-10-25T12:28:10Z</time>
      </trkpt>
      <trkpt lat="44.65277" lon="1.44193">
        <ele>217.6</ele>
        <time>2023-10-25T12:28:14Z</time>
      </trkpt>
      <trkpt lat="44.6528" lon="1.44199">
        <ele>215.1</ele>
        <time>2023-10-25T12:28:18Z</time>
      </trkpt>
      <trkpt lat="44.65285" lon="1.44204">
        <ele>217.4</ele>
        <time>2023-10-25T12:28:22Z</time>
      </trkpt>
      <trkpt lat="44.65288" lon="1.44211">
        <ele>218.1</ele>
        <time>2023-10-25T12:28:26Z</time>
      </trkpt>
      <trkpt lat="44.65291" lon="1.44218">
        <ele>217.1</ele>
        <time>2023-10-25T12:28:30Z</time>
      </trkpt>
      <trkpt lat="44.65294" lon="1.44223">
        <ele>216.4</ele>
        <time>2023-10-25T12:28:33Z</time>
      </trkpt>
      <trkpt lat="44.65297" lon="1.44229">
        <ele>216.9</ele>
        <time>2023-10-25T12:28:36Z</time>
      </trkpt>
      <trkpt lat="44.653" lon="1.44236">
        <ele>216.9</ele>
        <time>2023-10-25T12:28:40Z</time>
      </trkpt>
      <trkpt lat="44.65302" lon="1.44243">
        <ele>215.8</ele>
        <time>2023-10-25T12:28:44Z</time>
      </trkpt>
      <trkpt lat="44.65306" lon="1.4425">
        <ele>216.4</ele>
        <time>2023-10-25T12:28:48Z</time>
      </trkpt>
      <trkpt lat="44.65309" lon="1.44256">
        <ele>217.1</ele>
        <time>2023-10-25T12:28:52Z</time>
      </trkpt>
      <trkpt lat="44.65311" lon="1.44262">
        <ele>217.2</ele>
        <time>2023-10-25T12:28:56Z</time>
      </trkpt>
      <trkpt lat="44.65314" lon="1.44269">
        <ele>217.2</ele>
        <time>2023-10-25T12:29:00Z</time>
      </trkpt>
      <trkpt lat="44.65317" lon="1.44274">
        <ele>217.2</ele>
        <time>2023-10-25T12:29:03Z</time>
      </trkpt>
      <trkpt lat="44.6532" lon="1.44279">
        <ele>217.1</ele>
        <time>2023-10-25T12:29:06Z</time>
      </trkpt>
      <trkpt lat="44.65323" lon="1.44285">
        <ele>217</ele>
        <time>2023-10-25T12:29:10Z</time>
      </trkpt>
      <trkpt lat="44.65326" lon="1.44292">
        <ele>216.7</ele>
        <time>2023-10-25T12:29:14Z</time>
      </trkpt>
      <trkpt lat="44.6533" lon="1.44298">
        <ele>216.8</ele>
        <time>2023-10-25T12:29:18Z</time>
      </trkpt>
      <trkpt lat="44.65333" lon="1.44304">
        <ele>216.7</ele>
        <time>2023-10-25T12:29:22Z</time>
      </trkpt>
      <trkpt lat="44.65337" lon="1.4431">
        <ele>216.6</ele>
        <time>2023-10-25T12:29:26Z</time>
      </trkpt>
      <trkpt lat="44.65341" lon="1.44316">
        <ele>217.3</ele>
        <time>2023-10-25T12:29:30Z</time>
      </trkpt>
      <trkpt lat="44.65344" lon="1.44321">
        <ele>217.3</ele>
        <time>2023-10-25T12:29:33Z</time>
      </trkpt>
      <trkpt lat="44.65348" lon="1.44326">
        <ele>217</ele>
        <time>2023-10-25T12:29:37Z</time>
      </trkpt>
      <trkpt lat="44.65353" lon="1.44331">
        <ele>216.8</ele>
        <time>2023-10-25T12:29:41Z</time>
      </trkpt>
      <trkpt lat="44.65357" lon="1.44337">
        <ele>217</ele>
        <time>2023-10-25T12:29:45Z</time>
      </trkpt>
      <trkpt lat="44.65361" lon="1.44343">
        <ele>216.7</ele>
        <time>2023-10-25T12:29:49Z</time>
      </trkpt>
      <trkpt lat="44.65364" lon="1.44348">
        <ele>216.4</ele>
        <time>2023-10-25T12:29:52Z</time>
      </trkpt>
      <trkpt lat="44.65367" lon="1.44353">
        <ele>216.2</ele>
        <time>2023-10-25T12:29:55Z</time>
      </trkpt>
      <trkpt lat="44.6537" lon="1.44358">
        <ele>216.5</ele>
        <time>2023-10-25T12:29:58Z</time>
      </trkpt>
      <trkpt lat="44.65373" lon="1.44363">
        <ele>216.9</ele>
        <time>2023-10-25T12:30:01Z</time>
      </trkpt>
      <trkpt lat="44.65377" lon="1.4437">
        <ele>218.3</ele>
        <time>2023-10-25T12:30:05Z</time>
      </trkpt>
      <trkpt lat="44.65381" lon="1.44375">
        <ele>218.5</ele>
        <time>2023-10-25T12:30:09Z</time>
      </trkpt>
      <trkpt lat="44.65385" lon="1.44381">
        <ele>218.4</ele>
        <time>2023-10-25T12:30:13Z</time>
      </trkpt>
      <trkpt lat="44.65389" lon="1.44387">
        <ele>218.3</ele>
        <time>2023-10-25T12:30:17Z</time>
      </trkpt>
      <trkpt lat="44.65393" lon="1.44392">
        <ele>218.6</ele>
        <time>2023-10-25T12:30:21Z</time>
      </trkpt>
      <trkpt lat="44.65397" lon="1.44396">
        <ele>218.9</ele>
        <time>2023-10-25T12:30:24Z</time>
      </trkpt>
      <trkpt lat="44.65401" lon="1.444">
        <ele>219</ele>
        <time>2023-10-25T12:30:28Z</time>
      </trkpt>
      <trkpt lat="44.65406" lon="1.44404">
        <ele>219.5</ele>
        <time>2023-10-25T12:30:32Z</time>
      </trkpt>
      <trkpt lat="44.65411" lon="1.44407">
        <ele>219.7</ele>
        <time>2023-10-25T12:30:36Z</time>
      </trkpt>
      <trkpt lat="44.65415" lon="1.44411">
        <ele>220</ele>
        <time>2023-10-25T12:30:40Z</time>
      </trkpt>
      <trkpt lat="44.6542" lon="1.44414">
        <ele>220.4</ele>
        <time>2023-10-25T12:30:44Z</time>
      </trkpt>
      <trkpt lat="44.65425" lon="1.44418">
        <ele>220.3</ele>
        <time>2023-10-25T12:30:48Z</time>
      </trkpt>
      <trkpt lat="44.65429" lon="1.44423">
        <ele>221.3</ele>
        <time>2023-10-25T12:30:52Z</time>
      </trkpt>
      <trkpt lat="44.65433" lon="1.44428">
        <ele>221.7</ele>
        <time>2023-10-25T12:30:56Z</time>
      </trkpt>
      <trkpt lat="44.65437" lon="1.44432">
        <ele>221</ele>
        <time>2023-10-25T12:31:00Z</time>
      </trkpt>
      <trkpt lat="44.65441" lon="1.44438">
        <ele>220.6</ele>
        <time>2023-10-25T12:31:04Z</time>
      </trkpt>
      <trkpt lat="44.65443" lon="1.44444">
        <ele>220.6</ele>
        <time>2023-10-25T12:31:08Z</time>
      </trkpt>
      <trkpt lat="44.65446" lon="1.44451">
        <ele>220.7</ele>
        <time>2023-10-25T12:31:12Z</time>
      </trkpt>
      <trkpt lat="44.65448" lon="1.44457">
        <ele>219.6</ele>
        <time>2023-10-25T12:31:16Z</time>
      </trkpt>
      <trkpt lat="44.6545" lon="1.44464">
        <ele>218.1</ele>
        <time>2023-10-25T12:31:21Z</time>
      </trkpt>
      <trkpt lat="44.65452" lon="1.4447">
        <ele>217.4</ele>
        <time>2023-10-25T12:31:25Z</time>
      </trkpt>
      <trkpt lat="44.65457" lon="1.44475">
        <ele>217.4</ele>
        <time>2023-10-25T12:31:29Z</time>
      </trkpt>
      <trkpt lat="44.6546" lon="1.4448">
        <ele>217.8</ele>
        <time>2023-10-25T12:31:32Z</time>
      </trkpt>
      <trkpt lat="44.65463" lon="1.44485">
        <ele>217.4</ele>
        <time>2023-10-25T12:31:35Z</time>
      </trkpt>
      <trkpt lat="44.65468" lon="1.4449">
        <ele>218.9</ele>
        <time>2023-10-25T12:31:39Z</time>
      </trkpt>
      <trkpt lat="44.65472" lon="1.44496">
        <ele>218.4</ele>
        <time>2023-10-25T12:31:43Z</time>
      </trkpt>
      <trkpt lat="44.65475" lon="1.44501">
        <ele>218.5</ele>
        <time>2023-10-25T12:31:46Z</time>
      </trkpt>
      <trkpt lat="44.65479" lon="1.44507">
        <ele>217.9</ele>
        <time>2023-10-25T12:31:50Z</time>
      </trkpt>
      <trkpt lat="44.65482" lon="1.44512">
        <ele>214.9</ele>
        <time>2023-10-25T12:31:54Z</time>
      </trkpt>
      <trkpt lat="44.65485" lon="1.44518">
        <ele>215.6</ele>
        <time>2023-10-25T12:31:58Z</time>
      </trkpt>
      <trkpt lat="44.65488" lon="1.44523">
        <ele>216.8</ele>
        <time>2023-10-25T12:32:02Z</time>
      </trkpt>
      <trkpt lat="44.65492" lon="1.44529">
        <ele>218.7</ele>
        <time>2023-10-25T12:32:06Z</time>
      </trkpt>
      <trkpt lat="44.65495" lon="1.44535">
        <ele>223.2</ele>
        <time>2023-10-25T12:32:10Z</time>
      </trkpt>
      <trkpt lat="44.65499" lon="1.4454">
        <ele>224.5</ele>
        <time>2023-10-25T12:32:14Z</time>
      </trkpt>
      <trkpt lat="44.65503" lon="1.44545">
        <ele>222.6</ele>
        <time>2023-10-25T12:32:18Z</time>
      </trkpt>
      <trkpt lat="44.65507" lon="1.4455">
        <ele>221.1</ele>
        <time>2023-10-25T12:32:22Z</time>
      </trkpt>
      <trkpt lat="44.65511" lon="1.44555">
        <ele>221</ele>
        <time>2023-10-25T12:32:26Z</time>
      </trkpt>
      <trkpt lat="44.65515" lon="1.44559">
        <ele>221.6</ele>
        <time>2023-10-25T12:32:30Z</time>
      </trkpt>
      <trkpt lat="44.65519" lon="1.44564">
        <ele>221.2</ele>
        <time>2023-10-25T12:32:34Z</time>
      </trkpt>
      <trkpt lat="44.65524" lon="1.44569">
        <ele>220.2</ele>
        <time>2023-10-25T12:32:38Z</time>
      </trkpt>
      <trkpt lat="44.65528" lon="1.44574">
        <ele>218.9</ele>
        <time>2023-10-25T12:32:42Z</time>
      </trkpt>
      <trkpt lat="44.65533" lon="1.44578">
        <ele>217.8</ele>
        <time>2023-10-25T12:32:46Z</time>
      </trkpt>
      <trkpt lat="44.65537" lon="1.44583">
        <ele>218.9</ele>
        <time>2023-10-25T12:32:50Z</time>
      </trkpt>
      <trkpt lat="44.6554" lon="1.44587">
        <ele>217.6</ele>
        <time>2023-10-25T12:32:53Z</time>
      </trkpt>
      <trkpt lat="44.65544" lon="1.4459">
        <ele>215.3</ele>
        <time>2023-10-25T12:32:56Z</time>
      </trkpt>
      <trkpt lat="44.65548" lon="1.44593">
        <ele>214.3</ele>
        <time>2023-10-25T12:32:59Z</time>
      </trkpt>
      <trkpt lat="44.65553" lon="1.44597">
        <ele>215</ele>
        <time>2023-10-25T12:33:03Z</time>
      </trkpt>
      <trkpt lat="44.65557" lon="1.446">
        <ele>215.4</ele>
        <time>2023-10-25T12:33:06Z</time>
      </trkpt>
      <trkpt lat="44.65561" lon="1.44604">
        <ele>216.9</ele>
        <time>2023-10-25T12:33:09Z</time>
      </trkpt>
      <trkpt lat="44.65566" lon="1.44608">
        <ele>217.6</ele>
        <time>2023-10-25T12:33:13Z</time>
      </trkpt>
      <trkpt lat="44.6557" lon="1.44612">
        <ele>219.6</ele>
        <time>2023-10-25T12:33:17Z</time>
      </trkpt>
      <trkpt lat="44.65574" lon="1.44617">
        <ele>220.4</ele>
        <time>2023-10-25T12:33:21Z</time>
      </trkpt>
      <trkpt lat="44.65579" lon="1.44623">
        <ele>221.2</ele>
        <time>2023-10-25T12:33:25Z</time>
      </trkpt>
      <trkpt lat="44.65583" lon="1.44628">
        <ele>221.3</ele>
        <time>2023-10-25T12:33:29Z</time>
      </trkpt>
      <trkpt lat="44.65586" lon="1.44632">
        <ele>219.7</ele>
        <time>2023-10-25T12:33:32Z</time>
      </trkpt>
      <trkpt lat="44.65591" lon="1.44637">
        <ele>218.4</ele>
        <time>2023-10-25T12:33:36Z</time>
      </trkpt>
      <trkpt lat="44.65595" lon="1.44643">
        <ele>219.2</ele>
        <time>2023-10-25T12:33:40Z</time>
      </trkpt>
      <trkpt lat="44.656" lon="1.44648">
        <ele>220.8</ele>
        <time>2023-10-25T12:33:44Z</time>
      </trkpt>
      <trkpt lat="44.65603" lon="1.44652">
        <ele>222.4</ele>
        <time>2023-10-25T12:33:47Z</time>
      </trkpt>
      <trkpt lat="44.65608" lon="1.44658">
        <ele>221.6</ele>
        <time>2023-10-25T12:33:51Z</time>
      </trkpt>
      <trkpt lat="44.65612" lon="1.44662">
        <ele>221.5</ele>
        <time>2023-10-25T12:33:55Z</time>
      </trkpt>
      <trkpt lat="44.65617" lon="1.44666">
        <ele>220.7</ele>
        <time>2023-10-25T12:33:59Z</time>
      </trkpt>
      <trkpt lat="44.6562" lon="1.44671">
        <ele>222.2</ele>
        <time>2023-10-25T12:34:02Z</time>
      </trkpt>
      <trkpt lat="44.65624" lon="1.44678">
        <ele>224.4</ele>
        <time>2023-10-25T12:34:06Z</time>
      </trkpt>
      <trkpt lat="44.65628" lon="1.44683">
        <ele>224.2</ele>
        <time>2023-10-25T12:34:10Z</time>
      </trkpt>
      <trkpt lat="44.65632" lon="1.44687">
        <ele>223.6</ele>
        <time>2023-10-25T12:34:13Z</time>
      </trkpt>
      <trkpt lat="44.65636" lon="1.44691">
        <ele>221.7</ele>
        <time>2023-10-25T12:34:17Z</time>
      </trkpt>
      <trkpt lat="44.6564" lon="1.44697">
        <ele>221.9</ele>
        <time>2023-10-25T12:34:21Z</time>
      </trkpt>
      <trkpt lat="44.65644" lon="1.44702">
        <ele>219.3</ele>
        <time>2023-10-25T12:34:24Z</time>
      </trkpt>
      <trkpt lat="44.65647" lon="1.44706">
        <ele>218.8</ele>
        <time>2023-10-25T12:34:27Z</time>
      </trkpt>
      <trkpt lat="44.65651" lon="1.44712">
        <ele>217</ele>
        <time>2023-10-25T12:34:31Z</time>
      </trkpt>
      <trkpt lat="44.65653" lon="1.44718">
        <ele>217.2</ele>
        <time>2023-10-25T12:34:34Z</time>
      </trkpt>
      <trkpt lat="44.65657" lon="1.44724">
        <ele>216.9</ele>
        <time>2023-10-25T12:34:38Z</time>
      </trkpt>
      <trkpt lat="44.6566" lon="1.44729">
        <ele>215.9</ele>
        <time>2023-10-25T12:34:41Z</time>
      </trkpt>
      <trkpt lat="44.65664" lon="1.44735">
        <ele>214.1</ele>
        <time>2023-10-25T12:34:45Z</time>
      </trkpt>
      <trkpt lat="44.65668" lon="1.4474">
        <ele>213.9</ele>
        <time>2023-10-25T12:34:49Z</time>
      </trkpt>
      <trkpt lat="44.65672" lon="1.44746">
        <ele>215.4</ele>
        <time>2023-10-25T12:34:53Z</time>
      </trkpt>
      <trkpt lat="44.65675" lon="1.44752">
        <ele>217.2</ele>
        <time>2023-10-25T12:34:57Z</time>
      </trkpt>
      <trkpt lat="44.65679" lon="1.44757">
        <ele>216.2</ele>
        <time>2023-10-25T12:35:00Z</time>
      </trkpt>
      <trkpt lat="44.65681" lon="1.44762">
        <ele>216.5</ele>
        <time>2023-10-25T12:35:03Z</time>
      </trkpt>
      <trkpt lat="44.65685" lon="1.44768">
        <ele>217.4</ele>
        <time>2023-10-25T12:35:07Z</time>
      </trkpt>
      <trkpt lat="44.65689" lon="1.44774">
        <ele>217.9</ele>
        <time>2023-10-25T12:35:11Z</time>
      </trkpt>
      <trkpt lat="44.65693" lon="1.44779">
        <ele>217.1</ele>
        <time>2023-10-25T12:35:15Z</time>
      </trkpt>
      <trkpt lat="44.65697" lon="1.44783">
        <ele>217.8</ele>
        <time>2023-10-25T12:35:19Z</time>
      </trkpt>
      <trkpt lat="44.65702" lon="1.44789">
        <ele>218.3</ele>
        <time>2023-10-25T12:35:23Z</time>
      </trkpt>
      <trkpt lat="44.65706" lon="1.44791">
        <ele>218.2</ele>
        <time>2023-10-25T12:35:27Z</time>
      </trkpt>
      <trkpt lat="44.65711" lon="1.44795">
        <ele>217.3</ele>
        <time>2023-10-25T12:35:31Z</time>
      </trkpt>
      <trkpt lat="44.65714" lon="1.448">
        <ele>216.9</ele>
        <time>2023-10-25T12:35:35Z</time>
      </trkpt>
      <trkpt lat="44.6572" lon="1.44803">
        <ele>217.7</ele>
        <time>2023-10-25T12:35:40Z</time>
      </trkpt>
      <trkpt lat="44.65724" lon="1.44806">
        <ele>216.5</ele>
        <time>2023-10-25T12:35:43Z</time>
      </trkpt>
      <trkpt lat="44.65729" lon="1.44809">
        <ele>217.1</ele>
        <time>2023-10-25T12:35:47Z</time>
      </trkpt>
      <trkpt lat="44.65733" lon="1.44812">
        <ele>217.3</ele>
        <time>2023-10-25T12:35:51Z</time>
      </trkpt>
      <trkpt lat="44.65738" lon="1.44815">
        <ele>216.4</ele>
        <time>2023-10-25T12:35:55Z</time>
      </trkpt>
      <trkpt lat="44.65743" lon="1.44818">
        <ele>216.7</ele>
        <time>2023-10-25T12:35:59Z</time>
      </trkpt>
      <trkpt lat="44.65748" lon="1.4482">
        <ele>217.4</ele>
        <time>2023-10-25T12:36:03Z</time>
      </trkpt>
      <trkpt lat="44.65753" lon="1.44823">
        <ele>217.4</ele>
        <time>2023-10-25T12:36:07Z</time>
      </trkpt>
      <trkpt lat="44.65759" lon="1.44826">
        <ele>217.8</ele>
        <time>2023-10-25T12:36:11Z</time>
      </trkpt>
      <trkpt lat="44.65763" lon="1.44828">
        <ele>217</ele>
        <time>2023-10-25T12:36:14Z</time>
      </trkpt>
      <trkpt lat="44.65768" lon="1.44832">
        <ele>216.9</ele>
        <time>2023-10-25T12:36:18Z</time>
      </trkpt>
      <trkpt lat="44.65773" lon="1.44834">
        <ele>216.8</ele>
        <time>2023-10-25T12:36:22Z</time>
      </trkpt>
      <trkpt lat="44.65777" lon="1.44838">
        <ele>216.2</ele>
        <time>2023-10-25T12:36:26Z</time>
      </trkpt>
      <trkpt lat="44.65783" lon="1.4484">
        <ele>216.5</ele>
        <time>2023-10-25T12:36:30Z</time>
      </trkpt>
      <trkpt lat="44.65787" lon="1.44841">
        <ele>218.1</ele>
        <time>2023-10-25T12:36:34Z</time>
      </trkpt>
      <trkpt lat="44.65793" lon="1.44841">
        <ele>217.5</ele>
        <time>2023-10-25T12:36:38Z</time>
      </trkpt>
      <trkpt lat="44.65797" lon="1.44842">
        <ele>219.5</ele>
        <time>2023-10-25T12:36:41Z</time>
      </trkpt>
      <trkpt lat="44.65802" lon="1.44843">
        <ele>220</ele>
        <time>2023-10-25T12:36:45Z</time>
      </trkpt>
      <trkpt lat="44.65807" lon="1.44845">
        <ele>219</ele>
        <time>2023-10-25T12:36:49Z</time>
      </trkpt>
      <trkpt lat="44.65812" lon="1.44846">
        <ele>219.6</ele>
        <time>2023-10-25T12:36:53Z</time>
      </trkpt>
      <trkpt lat="44.65817" lon="1.44846">
        <ele>220.5</ele>
        <time>2023-10-25T12:36:57Z</time>
      </trkpt>
      <trkpt lat="44.65822" lon="1.44847">
        <ele>224.3</ele>
        <time>2023-10-25T12:37:01Z</time>
      </trkpt>
      <trkpt lat="44.65827" lon="1.44848">
        <ele>224.1</ele>
        <time>2023-10-25T12:37:05Z</time>
      </trkpt>
      <trkpt lat="44.65831" lon="1.44843">
        <ele>224.2</ele>
        <time>2023-10-25T12:37:09Z</time>
      </trkpt>
      <trkpt lat="44.65832" lon="1.44836">
        <ele>225.1</ele>
        <time>2023-10-25T12:37:14Z</time>
      </trkpt>
      <trkpt lat="44.65834" lon="1.4483">
        <ele>223.9</ele>
        <time>2023-10-25T12:37:19Z</time>
      </trkpt>
      <trkpt lat="44.65837" lon="1.44823">
        <ele>222.5</ele>
        <time>2023-10-25T12:37:24Z</time>
      </trkpt>
      <trkpt lat="44.6584" lon="1.44817">
        <ele>222.9</ele>
        <time>2023-10-25T12:37:29Z</time>
      </trkpt>
      <trkpt lat="44.65844" lon="1.44811">
        <ele>224.7</ele>
        <time>2023-10-25T12:37:34Z</time>
      </trkpt>
      <trkpt lat="44.65847" lon="1.44806">
        <ele>225.9</ele>
        <time>2023-10-25T12:37:39Z</time>
      </trkpt>
      <trkpt lat="44.65851" lon="1.44802">
        <ele>226.1</ele>
        <time>2023-10-25T12:37:43Z</time>
      </trkpt>
      <trkpt lat="44.65854" lon="1.44797">
        <ele>226.2</ele>
        <time>2023-10-25T12:37:47Z</time>
      </trkpt>
      <trkpt lat="44.65857" lon="1.4479">
        <ele>228.2</ele>
        <time>2023-10-25T12:37:52Z</time>
      </trkpt>
      <trkpt lat="44.6586" lon="1.44784">
        <ele>230</ele>
        <time>2023-10-25T12:37:57Z</time>
      </trkpt>
      <trkpt lat="44.65863" lon="1.44779">
        <ele>230.9</ele>
        <time>2023-10-25T12:38:03Z</time>
      </trkpt>
      <trkpt lat="44.65866" lon="1.44774">
        <ele>229.7</ele>
        <time>2023-10-25T12:38:09Z</time>
      </trkpt>
      <trkpt lat="44.6587" lon="1.44768">
        <ele>231.8</ele>
        <time>2023-10-25T12:38:15Z</time>
      </trkpt>
      <trkpt lat="44.65875" lon="1.44765">
        <ele>233.3</ele>
        <time>2023-10-25T12:38:20Z</time>
      </trkpt>
      <trkpt lat="44.6588" lon="1.44764">
        <ele>229.8</ele>
        <time>2023-10-25T12:38:25Z</time>
      </trkpt>
      <trkpt lat="44.65886" lon="1.44765">
        <ele>229.8</ele>
        <time>2023-10-25T12:38:30Z</time>
      </trkpt>
      <trkpt lat="44.6589" lon="1.44768">
        <ele>231.9</ele>
        <time>2023-10-25T12:38:34Z</time>
      </trkpt>
      <trkpt lat="44.65894" lon="1.44771">
        <ele>233.4</ele>
        <time>2023-10-25T12:38:39Z</time>
      </trkpt>
      <trkpt lat="44.65899" lon="1.44774">
        <ele>233.9</ele>
        <time>2023-10-25T12:38:44Z</time>
      </trkpt>
      <trkpt lat="44.65904" lon="1.44773">
        <ele>236.5</ele>
        <time>2023-10-25T12:38:49Z</time>
      </trkpt>
      <trkpt lat="44.65908" lon="1.44771">
        <ele>236.4</ele>
        <time>2023-10-25T12:38:54Z</time>
      </trkpt>
      <trkpt lat="44.65912" lon="1.44767">
        <ele>236.8</ele>
        <time>2023-10-25T12:38:59Z</time>
      </trkpt>
      <trkpt lat="44.65917" lon="1.44764">
        <ele>233.9</ele>
        <time>2023-10-25T12:39:03Z</time>
      </trkpt>
      <trkpt lat="44.65922" lon="1.44763">
        <ele>236.2</ele>
        <time>2023-10-25T12:39:42Z</time>
      </trkpt>
      <trkpt lat="44.65926" lon="1.44758">
        <ele>235.9</ele>
        <time>2023-10-25T12:39:47Z</time>
      </trkpt>
      <trkpt lat="44.65928" lon="1.44752">
        <ele>235.4</ele>
        <time>2023-10-25T12:39:52Z</time>
      </trkpt>
      <trkpt lat="44.65929" lon="1.44745">
        <ele>236.2</ele>
        <time>2023-10-25T12:39:57Z</time>
      </trkpt>
      <trkpt lat="44.65931" lon="1.44739">
        <ele>236</ele>
        <time>2023-10-25T12:40:02Z</time>
      </trkpt>
      <trkpt lat="44.65932" lon="1.44731">
        <ele>237</ele>
        <time>2023-10-25T12:40:07Z</time>
      </trkpt>
      <trkpt lat="44.65934" lon="1.44725">
        <ele>238.7</ele>
        <time>2023-10-25T12:40:11Z</time>
      </trkpt>
      <trkpt lat="44.65937" lon="1.44719">
        <ele>239.6</ele>
        <time>2023-10-25T12:40:15Z</time>
      </trkpt>
      <trkpt lat="44.65939" lon="1.44713">
        <ele>241</ele>
        <time>2023-10-25T12:40:19Z</time>
      </trkpt>
      <trkpt lat="44.65939" lon="1.44706">
        <ele>241.8</ele>
        <time>2023-10-25T12:40:23Z</time>
      </trkpt>
      <trkpt lat="44.65937" lon="1.447">
        <ele>242.4</ele>
        <time>2023-10-25T12:40:27Z</time>
      </trkpt>
      <trkpt lat="44.65934" lon="1.44693">
        <ele>242.4</ele>
        <time>2023-10-25T12:40:32Z</time>
      </trkpt>
      <trkpt lat="44.65931" lon="1.44688">
        <ele>243</ele>
        <time>2023-10-25T12:40:36Z</time>
      </trkpt>
      <trkpt lat="44.65928" lon="1.44683">
        <ele>244.5</ele>
        <time>2023-10-25T12:40:40Z</time>
      </trkpt>
      <trkpt lat="44.65925" lon="1.44678">
        <ele>245.7</ele>
        <time>2023-10-25T12:40:44Z</time>
      </trkpt>
      <trkpt lat="44.65926" lon="1.4467">
        <ele>247.4</ele>
        <time>2023-10-25T12:40:49Z</time>
      </trkpt>
      <trkpt lat="44.6593" lon="1.44665">
        <ele>248.9</ele>
        <time>2023-10-25T12:40:53Z</time>
      </trkpt>
      <trkpt lat="44.65935" lon="1.44662">
        <ele>247.3</ele>
        <time>2023-10-25T12:40:57Z</time>
      </trkpt>
      <trkpt lat="44.65939" lon="1.44658">
        <ele>246.8</ele>
        <time>2023-10-25T12:41:02Z</time>
      </trkpt>
      <trkpt lat="44.65943" lon="1.44655">
        <ele>245.7</ele>
        <time>2023-10-25T12:41:07Z</time>
      </trkpt>
      <trkpt lat="44.65948" lon="1.44651">
        <ele>244.8</ele>
        <time>2023-10-25T12:41:12Z</time>
      </trkpt>
      <trkpt lat="44.65952" lon="1.44647">
        <ele>245.9</ele>
        <time>2023-10-25T12:41:17Z</time>
      </trkpt>
      <trkpt lat="44.65956" lon="1.44643">
        <ele>245.8</ele>
        <time>2023-10-25T12:41:22Z</time>
      </trkpt>
      <trkpt lat="44.6596" lon="1.44639">
        <ele>245.3</ele>
        <time>2023-10-25T12:41:27Z</time>
      </trkpt>
      <trkpt lat="44.65965" lon="1.44634">
        <ele>247.1</ele>
        <time>2023-10-25T12:41:32Z</time>
      </trkpt>
      <trkpt lat="44.65969" lon="1.4463">
        <ele>248</ele>
        <time>2023-10-25T12:41:37Z</time>
      </trkpt>
      <trkpt lat="44.65972" lon="1.44626">
        <ele>250.2</ele>
        <time>2023-10-25T12:41:42Z</time>
      </trkpt>
      <trkpt lat="44.65976" lon="1.44622">
        <ele>251.4</ele>
        <time>2023-10-25T12:41:47Z</time>
      </trkpt>
      <trkpt lat="44.65979" lon="1.44617">
        <ele>253.8</ele>
        <time>2023-10-25T12:41:52Z</time>
      </trkpt>
      <trkpt lat="44.65983" lon="1.44615">
        <ele>257.3</ele>
        <time>2023-10-25T12:41:57Z</time>
      </trkpt>
      <trkpt lat="44.65988" lon="1.44614">
        <ele>255.8</ele>
        <time>2023-10-25T12:42:01Z</time>
      </trkpt>
      <trkpt lat="44.65993" lon="1.44613">
        <ele>254.7</ele>
        <time>2023-10-25T12:42:05Z</time>
      </trkpt>
      <trkpt lat="44.65997" lon="1.44609">
        <ele>253.9</ele>
        <time>2023-10-25T12:42:10Z</time>
      </trkpt>
      <trkpt lat="44.66" lon="1.44602">
        <ele>257.1</ele>
        <time>2023-10-25T12:42:15Z</time>
      </trkpt>
      <trkpt lat="44.66001" lon="1.44596">
        <ele>256.7</ele>
        <time>2023-10-25T12:42:19Z</time>
      </trkpt>
      <trkpt lat="44.66001" lon="1.44588">
        <ele>259.5</ele>
        <time>2023-10-25T12:42:24Z</time>
      </trkpt>
      <trkpt lat="44.66" lon="1.44582">
        <ele>262.6</ele>
        <time>2023-10-25T12:42:31Z</time>
      </trkpt>
      <trkpt lat="44.65999" lon="1.44575">
        <ele>263.3</ele>
        <time>2023-10-25T12:42:38Z</time>
      </trkpt>
      <trkpt lat="44.65998" lon="1.44567">
        <ele>264</ele>
        <time>2023-10-25T12:42:44Z</time>
      </trkpt>
      <trkpt lat="44.65997" lon="1.44561">
        <ele>265.4</ele>
        <time>2023-10-25T12:42:51Z</time>
      </trkpt>
      <trkpt lat="44.65996" lon="1.44554">
        <ele>265.8</ele>
        <time>2023-10-25T12:42:58Z</time>
      </trkpt>
      <trkpt lat="44.65995" lon="1.44547">
        <ele>266.7</ele>
        <time>2023-10-25T12:43:05Z</time>
      </trkpt>
      <trkpt lat="44.65994" lon="1.4454">
        <ele>267.3</ele>
        <time>2023-10-25T12:43:11Z</time>
      </trkpt>
      <trkpt lat="44.65993" lon="1.44534">
        <ele>268.9</ele>
        <time>2023-10-25T12:43:16Z</time>
      </trkpt>
      <trkpt lat="44.65993" lon="1.44526">
        <ele>268.7</ele>
        <time>2023-10-25T12:43:21Z</time>
      </trkpt>
      <trkpt lat="44.65993" lon="1.44518">
        <ele>267.2</ele>
        <time>2023-10-25T12:43:26Z</time>
      </trkpt>
      <trkpt lat="44.65991" lon="1.44511">
        <ele>268.6</ele>
        <time>2023-10-25T12:43:33Z</time>
      </trkpt>
      <trkpt lat="44.65989" lon="1.44505">
        <ele>269.4</ele>
        <time>2023-10-25T12:43:38Z</time>
      </trkpt>
      <trkpt lat="44.65984" lon="1.44503">
        <ele>270.7</ele>
        <time>2023-10-25T12:43:43Z</time>
      </trkpt>
      <trkpt lat="44.65979" lon="1.44502">
        <ele>271.9</ele>
        <time>2023-10-25T12:43:48Z</time>
      </trkpt>
      <trkpt lat="44.65975" lon="1.44501">
        <ele>273.7</ele>
        <time>2023-10-25T12:43:54Z</time>
      </trkpt>
      <trkpt lat="44.6597" lon="1.445">
        <ele>274.8</ele>
        <time>2023-10-25T12:43:58Z</time>
      </trkpt>
      <trkpt lat="44.65965" lon="1.44499">
        <ele>274.8</ele>
        <time>2023-10-25T12:44:03Z</time>
      </trkpt>
      <trkpt lat="44.6596" lon="1.44496">
        <ele>276.3</ele>
        <time>2023-10-25T12:44:09Z</time>
      </trkpt>
      <trkpt lat="44.65957" lon="1.4449">
        <ele>277.1</ele>
        <time>2023-10-25T12:44:14Z</time>
      </trkpt>
      <trkpt lat="44.65958" lon="1.44483">
        <ele>275.9</ele>
        <time>2023-10-25T12:44:18Z</time>
      </trkpt>
      <trkpt lat="44.65957" lon="1.44477">
        <ele>275.5</ele>
        <time>2023-10-25T12:44:23Z</time>
      </trkpt>
      <trkpt lat="44.65955" lon="1.4447">
        <ele>276</ele>
        <time>2023-10-25T12:44:28Z</time>
      </trkpt>
      <trkpt lat="44.65954" lon="1.44463">
        <ele>275.6</ele>
        <time>2023-10-25T12:44:33Z</time>
      </trkpt>
      <trkpt lat="44.65951" lon="1.44456">
        <ele>275.9</ele>
        <time>2023-10-25T12:44:39Z</time>
      </trkpt>
      <trkpt lat="44.6595" lon="1.44449">
        <ele>275.5</ele>
        <time>2023-10-25T12:44:45Z</time>
      </trkpt>
      <trkpt lat="44.65949" lon="1.44442">
        <ele>276.1</ele>
        <time>2023-10-25T12:44:50Z</time>
      </trkpt>
      <trkpt lat="44.65948" lon="1.44435">
        <ele>278.6</ele>
        <time>2023-10-25T12:44:55Z</time>
      </trkpt>
      <trkpt lat="44.65947" lon="1.44428">
        <ele>280</ele>
        <time>2023-10-25T12:45:00Z</time>
      </trkpt>
      <trkpt lat="44.65946" lon="1.44421">
        <ele>279.2</ele>
        <time>2023-10-25T12:45:04Z</time>
      </trkpt>
      <trkpt lat="44.65945" lon="1.44415">
        <ele>280.3</ele>
        <time>2023-10-25T12:45:09Z</time>
      </trkpt>
      <trkpt lat="44.65943" lon="1.44408">
        <ele>280.9</ele>
        <time>2023-10-25T12:45:15Z</time>
      </trkpt>
      <trkpt lat="44.65942" lon="1.44401">
        <ele>281</ele>
        <time>2023-10-25T12:45:22Z</time>
      </trkpt>
      <trkpt lat="44.6594" lon="1.44395">
        <ele>282</ele>
        <time>2023-10-25T12:45:28Z</time>
      </trkpt>
      <trkpt lat="44.65938" lon="1.44388">
        <ele>285.4</ele>
        <time>2023-10-25T12:45:33Z</time>
      </trkpt>
      <trkpt lat="44.65936" lon="1.44381">
        <ele>284.4</ele>
        <time>2023-10-25T12:45:37Z</time>
      </trkpt>
      <trkpt lat="44.65934" lon="1.44375">
        <ele>283</ele>
        <time>2023-10-25T12:45:43Z</time>
      </trkpt>
      <trkpt lat="44.65932" lon="1.44369">
        <ele>284.1</ele>
        <time>2023-10-25T12:45:48Z</time>
      </trkpt>
      <trkpt lat="44.65929" lon="1.44363">
        <ele>284</ele>
        <time>2023-10-25T12:45:53Z</time>
      </trkpt>
      <trkpt lat="44.65926" lon="1.44357">
        <ele>284.4</ele>
        <time>2023-10-25T12:45:58Z</time>
      </trkpt>
      <trkpt lat="44.65924" lon="1.44352">
        <ele>285.8</ele>
        <time>2023-10-25T12:46:03Z</time>
      </trkpt>
      <trkpt lat="44.65921" lon="1.44346">
        <ele>286.1</ele>
        <time>2023-10-25T12:46:08Z</time>
      </trkpt>
      <trkpt lat="44.65918" lon="1.44341">
        <ele>287.8</ele>
        <time>2023-10-25T12:46:12Z</time>
      </trkpt>
      <trkpt lat="44.65915" lon="1.44335">
        <ele>285</ele>
        <time>2023-10-25T12:46:16Z</time>
      </trkpt>
      <trkpt lat="44.65912" lon="1.4433">
        <ele>287.1</ele>
        <time>2023-10-25T12:46:20Z</time>
      </trkpt>
      <trkpt lat="44.65908" lon="1.44325">
        <ele>288.9</ele>
        <time>2023-10-25T12:46:26Z</time>
      </trkpt>
      <trkpt lat="44.65905" lon="1.4432">
        <ele>288</ele>
        <time>2023-10-25T12:46:31Z</time>
      </trkpt>
      <trkpt lat="44.65902" lon="1.44315">
        <ele>290</ele>
        <time>2023-10-25T12:46:35Z</time>
      </trkpt>
      <trkpt lat="44.659" lon="1.44309">
        <ele>290.9</ele>
        <time>2023-10-25T12:46:39Z</time>
      </trkpt>
      <trkpt lat="44.65897" lon="1.44303">
        <ele>290.6</ele>
        <time>2023-10-25T12:46:44Z</time>
      </trkpt>
      <trkpt lat="44.65894" lon="1.44297">
        <ele>289.8</ele>
        <time>2023-10-25T12:46:50Z</time>
      </trkpt>
      <trkpt lat="44.65892" lon="1.4429">
        <ele>289.5</ele>
        <time>2023-10-25T12:46:55Z</time>
      </trkpt>
      <trkpt lat="44.65889" lon="1.44285">
        <ele>290.4</ele>
        <time>2023-10-25T12:47:00Z</time>
      </trkpt>
      <trkpt lat="44.65887" lon="1.44278">
        <ele>291.9</ele>
        <time>2023-10-25T12:47:05Z</time>
      </trkpt>
      <trkpt lat="44.65884" lon="1.44272">
        <ele>292.9</ele>
        <time>2023-10-25T12:47:10Z</time>
      </trkpt>
      <trkpt lat="44.65882" lon="1.44266">
        <ele>294.4</ele>
        <time>2023-10-25T12:47:15Z</time>
      </trkpt>
      <trkpt lat="44.65881" lon="1.4426">
        <ele>293</ele>
        <time>2023-10-25T12:47:19Z</time>
      </trkpt>
      <trkpt lat="44.65879" lon="1.44253">
        <ele>289.9</ele>
        <time>2023-10-25T12:47:24Z</time>
      </trkpt>
      <trkpt lat="44.65878" lon="1.44247">
        <ele>290.7</ele>
        <time>2023-10-25T12:47:32Z</time>
      </trkpt>
      <trkpt lat="44.65878" lon="1.4424">
        <ele>291.8</ele>
        <time>2023-10-25T12:47:38Z</time>
      </trkpt>
      <trkpt lat="44.65878" lon="1.44234">
        <ele>292.3</ele>
        <time>2023-10-25T12:47:43Z</time>
      </trkpt>
      <trkpt lat="44.65878" lon="1.44226">
        <ele>291.2</ele>
        <time>2023-10-25T12:47:50Z</time>
      </trkpt>
      <trkpt lat="44.65879" lon="1.44219">
        <ele>293.6</ele>
        <time>2023-10-25T12:47:56Z</time>
      </trkpt>
      <trkpt lat="44.65878" lon="1.44212">
        <ele>293.2</ele>
        <time>2023-10-25T12:48:01Z</time>
      </trkpt>
      <trkpt lat="44.65877" lon="1.44205">
        <ele>295.1</ele>
        <time>2023-10-25T12:48:06Z</time>
      </trkpt>
      <trkpt lat="44.65878" lon="1.44198">
        <ele>296</ele>
        <time>2023-10-25T12:48:11Z</time>
      </trkpt>
      <trkpt lat="44.65881" lon="1.44193">
        <ele>300</ele>
        <time>2023-10-25T12:48:15Z</time>
      </trkpt>
      <trkpt lat="44.65885" lon="1.44189">
        <ele>297.9</ele>
        <time>2023-10-25T12:48:19Z</time>
      </trkpt>
      <trkpt lat="44.65887" lon="1.44183">
        <ele>297.1</ele>
        <time>2023-10-25T12:48:24Z</time>
      </trkpt>
      <trkpt lat="44.6589" lon="1.44177">
        <ele>298</ele>
        <time>2023-10-25T12:48:29Z</time>
      </trkpt>
      <trkpt lat="44.65893" lon="1.4417">
        <ele>296.5</ele>
        <time>2023-10-25T12:48:34Z</time>
      </trkpt>
      <trkpt lat="44.65895" lon="1.44165">
        <ele>295.5</ele>
        <time>2023-10-25T12:48:38Z</time>
      </trkpt>
      <trkpt lat="44.65896" lon="1.44157">
        <ele>297.1</ele>
        <time>2023-10-25T12:48:43Z</time>
      </trkpt>
      <trkpt lat="44.65896" lon="1.4415">
        <ele>296.4</ele>
        <time>2023-10-25T12:48:48Z</time>
      </trkpt>
      <trkpt lat="44.65895" lon="1.44143">
        <ele>298.4</ele>
        <time>2023-10-25T12:48:53Z</time>
      </trkpt>
      <trkpt lat="44.65896" lon="1.44136">
        <ele>298</ele>
        <time>2023-10-25T12:48:58Z</time>
      </trkpt>
      <trkpt lat="44.65897" lon="1.44129">
        <ele>297.8</ele>
        <time>2023-10-25T12:49:02Z</time>
      </trkpt>
      <trkpt lat="44.65898" lon="1.44122">
        <ele>297.8</ele>
        <time>2023-10-25T12:49:07Z</time>
      </trkpt>
      <trkpt lat="44.65899" lon="1.44115">
        <ele>299.3</ele>
        <time>2023-10-25T12:49:11Z</time>
      </trkpt>
      <trkpt lat="44.65899" lon="1.44108">
        <ele>302.6</ele>
        <time>2023-10-25T12:49:16Z</time>
      </trkpt>
      <trkpt lat="44.65897" lon="1.44101">
        <ele>304.4</ele>
        <time>2023-10-25T12:49:21Z</time>
      </trkpt>
      <trkpt lat="44.65897" lon="1.44094">
        <ele>304.2</ele>
        <time>2023-10-25T12:49:25Z</time>
      </trkpt>
      <trkpt lat="44.65897" lon="1.44088">
        <ele>305</ele>
        <time>2023-10-25T12:49:29Z</time>
      </trkpt>
      <trkpt lat="44.65898" lon="1.44081">
        <ele>303.3</ele>
        <time>2023-10-25T12:49:33Z</time>
      </trkpt>
      <trkpt lat="44.65899" lon="1.44073">
        <ele>302.6</ele>
        <time>2023-10-25T12:49:38Z</time>
      </trkpt>
      <trkpt lat="44.65898" lon="1.44067">
        <ele>302.5</ele>
        <time>2023-10-25T12:49:43Z</time>
      </trkpt>
      <trkpt lat="44.65897" lon="1.44061">
        <ele>304.1</ele>
        <time>2023-10-25T12:49:47Z</time>
      </trkpt>
      <trkpt lat="44.65895" lon="1.44055">
        <ele>306.4</ele>
        <time>2023-10-25T12:49:53Z</time>
      </trkpt>
      <trkpt lat="44.65894" lon="1.44049">
        <ele>308.7</ele>
        <time>2023-10-25T12:49:58Z</time>
      </trkpt>
      <trkpt lat="44.6589" lon="1.44044">
        <ele>309.9</ele>
        <time>2023-10-25T12:50:03Z</time>
      </trkpt>
      <trkpt lat="44.65886" lon="1.4404">
        <ele>308.3</ele>
        <time>2023-10-25T12:50:08Z</time>
      </trkpt>
      <trkpt lat="44.65883" lon="1.44035">
        <ele>308.5</ele>
        <time>2023-10-25T12:50:13Z</time>
      </trkpt>
      <trkpt lat="44.65879" lon="1.44032">
        <ele>309.3</ele>
        <time>2023-10-25T12:50:18Z</time>
      </trkpt>
      <trkpt lat="44.65875" lon="1.44028">
        <ele>308.3</ele>
        <time>2023-10-25T12:50:23Z</time>
      </trkpt>
      <trkpt lat="44.65873" lon="1.44021">
        <ele>311</ele>
        <time>2023-10-25T12:50:28Z</time>
      </trkpt>
      <trkpt lat="44.65873" lon="1.44014">
        <ele>310.6</ele>
        <time>2023-10-25T12:50:33Z</time>
      </trkpt>
      <trkpt lat="44.65874" lon="1.44007">
        <ele>310.1</ele>
        <time>2023-10-25T12:50:38Z</time>
      </trkpt>
      <trkpt lat="44.65875" lon="1.44">
        <ele>310.4</ele>
        <time>2023-10-25T12:50:43Z</time>
      </trkpt>
      <trkpt lat="44.65878" lon="1.43993">
        <ele>311</ele>
        <time>2023-10-25T12:50:48Z</time>
      </trkpt>
      <trkpt lat="44.65881" lon="1.43988">
        <ele>312</ele>
        <time>2023-10-25T12:50:52Z</time>
      </trkpt>
      <trkpt lat="44.65883" lon="1.43983">
        <ele>309.5</ele>
        <time>2023-10-25T12:50:56Z</time>
      </trkpt>
      <trkpt lat="44.65886" lon="1.43977">
        <ele>310.5</ele>
        <time>2023-10-25T12:51:00Z</time>
      </trkpt>
      <trkpt lat="44.65888" lon="1.4397">
        <ele>310</ele>
        <time>2023-10-25T12:51:04Z</time>
      </trkpt>
      <trkpt lat="44.65889" lon="1.43963">
        <ele>310.5</ele>
        <time>2023-10-25T12:51:08Z</time>
      </trkpt>
      <trkpt lat="44.65888" lon="1.43956">
        <ele>309.4</ele>
        <time>2023-10-25T12:51:12Z</time>
      </trkpt>
      <trkpt lat="44.65886" lon="1.4395">
        <ele>310</ele>
        <time>2023-10-25T12:51:18Z</time>
      </trkpt>
      <trkpt lat="44.65883" lon="1.43945">
        <ele>310.7</ele>
        <time>2023-10-25T12:51:24Z</time>
      </trkpt>
      <trkpt lat="44.65878" lon="1.43944">
        <ele>311.1</ele>
        <time>2023-10-25T12:51:28Z</time>
      </trkpt>
      <trkpt lat="44.65874" lon="1.4394">
        <ele>310.5</ele>
        <time>2023-10-25T12:51:34Z</time>
      </trkpt>
      <trkpt lat="44.65869" lon="1.43937">
        <ele>312.6</ele>
        <time>2023-10-25T12:51:40Z</time>
      </trkpt>
      <trkpt lat="44.65864" lon="1.43936">
        <ele>311.4</ele>
        <time>2023-10-25T12:51:43Z</time>
      </trkpt>
      <trkpt lat="44.65859" lon="1.43934">
        <ele>309.4</ele>
        <time>2023-10-25T12:51:47Z</time>
      </trkpt>
      <trkpt lat="44.65854" lon="1.43933">
        <ele>307.8</ele>
        <time>2023-10-25T12:51:52Z</time>
      </trkpt>
      <trkpt lat="44.65849" lon="1.43934">
        <ele>310.3</ele>
        <time>2023-10-25T12:52:09Z</time>
      </trkpt>
      <trkpt lat="44.65844" lon="1.43931">
        <ele>312.5</ele>
        <time>2023-10-25T12:52:15Z</time>
      </trkpt>
      <trkpt lat="44.65841" lon="1.43925">
        <ele>316.1</ele>
        <time>2023-10-25T12:52:20Z</time>
      </trkpt>
      <trkpt lat="44.65839" lon="1.43918">
        <ele>314.1</ele>
        <time>2023-10-25T12:52:25Z</time>
      </trkpt>
      <trkpt lat="44.65837" lon="1.43913">
        <ele>312.8</ele>
        <time>2023-10-25T12:52:30Z</time>
      </trkpt>
      <trkpt lat="44.65835" lon="1.43906">
        <ele>316.5</ele>
        <time>2023-10-25T12:52:36Z</time>
      </trkpt>
      <trkpt lat="44.65833" lon="1.43899">
        <ele>317.1</ele>
        <time>2023-10-25T12:52:42Z</time>
      </trkpt>
      <trkpt lat="44.65831" lon="1.43892">
        <ele>318.3</ele>
        <time>2023-10-25T12:52:47Z</time>
      </trkpt>
      <trkpt lat="44.6583" lon="1.43885">
        <ele>320.2</ele>
        <time>2023-10-25T12:52:52Z</time>
      </trkpt>
      <trkpt lat="44.65828" lon="1.43879">
        <ele>323</ele>
        <time>2023-10-25T12:52:56Z</time>
      </trkpt>
      <trkpt lat="44.65826" lon="1.43872">
        <ele>321.6</ele>
        <time>2023-10-25T12:53:00Z</time>
      </trkpt>
      <trkpt lat="44.65824" lon="1.43865">
        <ele>319.8</ele>
        <time>2023-10-25T12:53:05Z</time>
      </trkpt>
      <trkpt lat="44.65822" lon="1.43859">
        <ele>321.2</ele>
        <time>2023-10-25T12:53:10Z</time>
      </trkpt>
      <trkpt lat="44.65821" lon="1.43852">
        <ele>322.5</ele>
        <time>2023-10-25T12:53:15Z</time>
      </trkpt>
      <trkpt lat="44.6582" lon="1.43846">
        <ele>321.8</ele>
        <time>2023-10-25T12:53:21Z</time>
      </trkpt>
      <trkpt lat="44.65819" lon="1.43839">
        <ele>321.1</ele>
        <time>2023-10-25T12:53:26Z</time>
      </trkpt>
      <trkpt lat="44.65818" lon="1.43833">
        <ele>319.3</ele>
        <time>2023-10-25T12:53:31Z</time>
      </trkpt>
      <trkpt lat="44.65816" lon="1.43827">
        <ele>323.1</ele>
        <time>2023-10-25T12:53:36Z</time>
      </trkpt>
      <trkpt lat="44.65815" lon="1.4382">
        <ele>326.2</ele>
        <time>2023-10-25T12:53:42Z</time>
      </trkpt>
      <trkpt lat="44.6581" lon="1.43823">
        <ele>330.7</ele>
        <time>2023-10-25T12:53:51Z</time>
      </trkpt>
      <trkpt lat="44.65811" lon="1.4383">
        <ele>328.9</ele>
        <time>2023-10-25T12:53:58Z</time>
      </trkpt>
      <trkpt lat="44.65809" lon="1.43836">
        <ele>328.1</ele>
        <time>2023-10-25T12:54:04Z</time>
      </trkpt>
      <trkpt lat="44.65806" lon="1.43842">
        <ele>328</ele>
        <time>2023-10-25T12:54:08Z</time>
      </trkpt>
      <trkpt lat="44.65803" lon="1.43848">
        <ele>328.6</ele>
        <time>2023-10-25T12:54:14Z</time>
      </trkpt>
      <trkpt lat="44.65798" lon="1.4385">
        <ele>330.3</ele>
        <time>2023-10-25T12:54:19Z</time>
      </trkpt>
      <trkpt lat="44.65794" lon="1.43849">
        <ele>330.8</ele>
        <time>2023-10-25T12:54:24Z</time>
      </trkpt>
      <trkpt lat="44.65789" lon="1.43847">
        <ele>330.6</ele>
        <time>2023-10-25T12:54:29Z</time>
      </trkpt>
      <trkpt lat="44.65785" lon="1.43849">
        <ele>333.3</ele>
        <time>2023-10-25T12:54:34Z</time>
      </trkpt>
      <trkpt lat="44.6578" lon="1.4385">
        <ele>335.2</ele>
        <time>2023-10-25T12:54:39Z</time>
      </trkpt>
      <trkpt lat="44.65776" lon="1.43847">
        <ele>337</ele>
        <time>2023-10-25T12:54:43Z</time>
      </trkpt>
      <trkpt lat="44.65771" lon="1.43843">
        <ele>338.4</ele>
        <time>2023-10-25T12:54:48Z</time>
      </trkpt>
      <trkpt lat="44.65767" lon="1.4384">
        <ele>340.4</ele>
        <time>2023-10-25T12:54:52Z</time>
      </trkpt>
      <trkpt lat="44.65763" lon="1.43836">
        <ele>338.6</ele>
        <time>2023-10-25T12:54:56Z</time>
      </trkpt>
      <trkpt lat="44.65759" lon="1.43832">
        <ele>339.1</ele>
        <time>2023-10-25T12:55:04Z</time>
      </trkpt>
      <trkpt lat="44.65756" lon="1.43826">
        <ele>338.4</ele>
        <time>2023-10-25T12:55:09Z</time>
      </trkpt>
      <trkpt lat="44.6576" lon="1.4382">
        <ele>338.2</ele>
        <time>2023-10-25T12:55:14Z</time>
      </trkpt>
      <trkpt lat="44.65763" lon="1.43814">
        <ele>339</ele>
        <time>2023-10-25T12:55:19Z</time>
      </trkpt>
      <trkpt lat="44.65766" lon="1.43809">
        <ele>338.9</ele>
        <time>2023-10-25T12:55:23Z</time>
      </trkpt>
      <trkpt lat="44.65769" lon="1.43802">
        <ele>340</ele>
        <time>2023-10-25T12:55:28Z</time>
      </trkpt>
      <trkpt lat="44.65771" lon="1.43796">
        <ele>340.4</ele>
        <time>2023-10-25T12:55:33Z</time>
      </trkpt>
      <trkpt lat="44.65774" lon="1.4379">
        <ele>340.7</ele>
        <time>2023-10-25T12:55:37Z</time>
      </trkpt>
      <trkpt lat="44.65776" lon="1.43783">
        <ele>341.4</ele>
        <time>2023-10-25T12:55:42Z</time>
      </trkpt>
      <trkpt lat="44.65779" lon="1.43777">
        <ele>341.3</ele>
        <time>2023-10-25T12:55:46Z</time>
      </trkpt>
      <trkpt lat="44.6578" lon="1.4377">
        <ele>341.9</ele>
        <time>2023-10-25T12:55:51Z</time>
      </trkpt>
      <trkpt lat="44.65782" lon="1.43762">
        <ele>343</ele>
        <time>2023-10-25T12:55:56Z</time>
      </trkpt>
      <trkpt lat="44.65782" lon="1.43755">
        <ele>342.2</ele>
        <time>2023-10-25T12:56:00Z</time>
      </trkpt>
      <trkpt lat="44.65783" lon="1.43749">
        <ele>343.1</ele>
        <time>2023-10-25T12:56:04Z</time>
      </trkpt>
      <trkpt lat="44.65784" lon="1.43743">
        <ele>343.1</ele>
        <time>2023-10-25T12:56:08Z</time>
      </trkpt>
      <trkpt lat="44.65785" lon="1.43735">
        <ele>343.9</ele>
        <time>2023-10-25T12:56:13Z</time>
      </trkpt>
      <trkpt lat="44.65786" lon="1.43729">
        <ele>344.3</ele>
        <time>2023-10-25T12:56:17Z</time>
      </trkpt>
      <trkpt lat="44.65787" lon="1.43721">
        <ele>345.6</ele>
        <time>2023-10-25T12:56:22Z</time>
      </trkpt>
      <trkpt lat="44.65788" lon="1.43714">
        <ele>344.7</ele>
        <time>2023-10-25T12:56:26Z</time>
      </trkpt>
      <trkpt lat="44.65788" lon="1.43707">
        <ele>345.3</ele>
        <time>2023-10-25T12:56:31Z</time>
      </trkpt>
      <trkpt lat="44.65789" lon="1.437">
        <ele>344.8</ele>
        <time>2023-10-25T12:56:35Z</time>
      </trkpt>
      <trkpt lat="44.65791" lon="1.43694">
        <ele>345</ele>
        <time>2023-10-25T12:56:39Z</time>
      </trkpt>
      <trkpt lat="44.65792" lon="1.43687">
        <ele>344.5</ele>
        <time>2023-10-25T12:56:43Z</time>
      </trkpt>
      <trkpt lat="44.65792" lon="1.4368">
        <ele>343.6</ele>
        <time>2023-10-25T12:56:47Z</time>
      </trkpt>
      <trkpt lat="44.65794" lon="1.43674">
        <ele>342.1</ele>
        <time>2023-10-25T12:56:51Z</time>
      </trkpt>
      <trkpt lat="44.65795" lon="1.43668">
        <ele>342.5</ele>
        <time>2023-10-25T12:56:55Z</time>
      </trkpt>
      <trkpt lat="44.65796" lon="1.43662">
        <ele>342.3</ele>
        <time>2023-10-25T12:56:59Z</time>
      </trkpt>
      <trkpt lat="44.65797" lon="1.43655">
        <ele>341.8</ele>
        <time>2023-10-25T12:57:03Z</time>
      </trkpt>
      <trkpt lat="44.65799" lon="1.43649">
        <ele>341.5</ele>
        <time>2023-10-25T12:57:07Z</time>
      </trkpt>
      <trkpt lat="44.65802" lon="1.43643">
        <ele>341.3</ele>
        <time>2023-10-25T12:57:12Z</time>
      </trkpt>
      <trkpt lat="44.65803" lon="1.43635">
        <ele>341.4</ele>
        <time>2023-10-25T12:57:17Z</time>
      </trkpt>
      <trkpt lat="44.65805" lon="1.43629">
        <ele>342.8</ele>
        <time>2023-10-25T12:57:23Z</time>
      </trkpt>
      <trkpt lat="44.65807" lon="1.43624">
        <ele>343.2</ele>
        <time>2023-10-25T12:57:27Z</time>
      </trkpt>
      <trkpt lat="44.6581" lon="1.43619">
        <ele>345.1</ele>
        <time>2023-10-25T12:57:31Z</time>
      </trkpt>
      <trkpt lat="44.65814" lon="1.43615">
        <ele>345.4</ele>
        <time>2023-10-25T12:57:35Z</time>
      </trkpt>
      <trkpt lat="44.65818" lon="1.43612">
        <ele>343.3</ele>
        <time>2023-10-25T12:57:39Z</time>
      </trkpt>
      <trkpt lat="44.65823" lon="1.43608">
        <ele>344.3</ele>
        <time>2023-10-25T12:57:44Z</time>
      </trkpt>
      <trkpt lat="44.6582" lon="1.43613">
        <ele>345.8</ele>
        <time>2023-10-25T12:58:04Z</time>
      </trkpt>
      <trkpt lat="44.65824" lon="1.43612">
        <ele>341.4</ele>
        <time>2023-10-25T13:00:59Z</time>
      </trkpt>
      <trkpt lat="44.65829" lon="1.43609">
        <ele>342.9</ele>
        <time>2023-10-25T13:01:03Z</time>
      </trkpt>
      <trkpt lat="44.65835" lon="1.43604">
        <ele>344.4</ele>
        <time>2023-10-25T13:01:07Z</time>
      </trkpt>
      <trkpt lat="44.6584" lon="1.43605">
        <ele>344.5</ele>
        <time>2023-10-25T13:01:10Z</time>
      </trkpt>
      <trkpt lat="44.65845" lon="1.43602">
        <ele>344.4</ele>
        <time>2023-10-25T13:01:14Z</time>
      </trkpt>
      <trkpt lat="44.6585" lon="1.436">
        <ele>344.3</ele>
        <time>2023-10-25T13:01:18Z</time>
      </trkpt>
      <trkpt lat="44.65854" lon="1.43596">
        <ele>342.9</ele>
        <time>2023-10-25T13:01:22Z</time>
      </trkpt>
      <trkpt lat="44.65858" lon="1.43594">
        <ele>340</ele>
        <time>2023-10-25T13:01:26Z</time>
      </trkpt>
      <trkpt lat="44.65862" lon="1.4359">
        <ele>340.9</ele>
        <time>2023-10-25T13:01:34Z</time>
      </trkpt>
      <trkpt lat="44.65866" lon="1.43587">
        <ele>342.4</ele>
        <time>2023-10-25T13:01:40Z</time>
      </trkpt>
      <trkpt lat="44.6587" lon="1.4359">
        <ele>341.3</ele>
        <time>2023-10-25T13:01:51Z</time>
      </trkpt>
      <trkpt lat="44.65875" lon="1.43589">
        <ele>342.8</ele>
        <time>2023-10-25T13:01:56Z</time>
      </trkpt>
      <trkpt lat="44.65879" lon="1.43587">
        <ele>342.4</ele>
        <time>2023-10-25T13:01:59Z</time>
      </trkpt>
      <trkpt lat="44.65883" lon="1.43584">
        <ele>342.9</ele>
        <time>2023-10-25T13:02:03Z</time>
      </trkpt>
      <trkpt lat="44.65888" lon="1.4358">
        <ele>345.1</ele>
        <time>2023-10-25T13:02:08Z</time>
      </trkpt>
      <trkpt lat="44.65893" lon="1.43582">
        <ele>344.4</ele>
        <time>2023-10-25T13:02:26Z</time>
      </trkpt>
      <trkpt lat="44.65897" lon="1.43581">
        <ele>341.3</ele>
        <time>2023-10-25T13:02:29Z</time>
      </trkpt>
      <trkpt lat="44.65902" lon="1.43586">
        <ele>341.3</ele>
        <time>2023-10-25T13:02:32Z</time>
      </trkpt>
      <trkpt lat="44.65907" lon="1.43587">
        <ele>340.8</ele>
        <time>2023-10-25T13:02:36Z</time>
      </trkpt>
      <trkpt lat="44.65912" lon="1.43587">
        <ele>340</ele>
        <time>2023-10-25T13:02:40Z</time>
      </trkpt>
      <trkpt lat="44.65916" lon="1.43587">
        <ele>340.8</ele>
        <time>2023-10-25T13:02:44Z</time>
      </trkpt>
      <trkpt lat="44.6592" lon="1.43583">
        <ele>342.7</ele>
        <time>2023-10-25T13:02:49Z</time>
      </trkpt>
      <trkpt lat="44.65924" lon="1.43579">
        <ele>343.4</ele>
        <time>2023-10-25T13:02:54Z</time>
      </trkpt>
      <trkpt lat="44.65928" lon="1.43576">
        <ele>344.2</ele>
        <time>2023-10-25T13:03:00Z</time>
      </trkpt>
      <trkpt lat="44.65933" lon="1.43574">
        <ele>344.9</ele>
        <time>2023-10-25T13:03:06Z</time>
      </trkpt>
      <trkpt lat="44.65937" lon="1.43571">
        <ele>345.8</ele>
        <time>2023-10-25T13:03:12Z</time>
      </trkpt>
      <trkpt lat="44.65941" lon="1.43566">
        <ele>349.2</ele>
        <time>2023-10-25T13:03:18Z</time>
      </trkpt>
      <trkpt lat="44.65945" lon="1.43563">
        <ele>351.4</ele>
        <time>2023-10-25T13:03:23Z</time>
      </trkpt>
      <trkpt lat="44.6595" lon="1.43559">
        <ele>352.7</ele>
        <time>2023-10-25T13:03:30Z</time>
      </trkpt>
      <trkpt lat="44.65953" lon="1.43555">
        <ele>353.3</ele>
        <time>2023-10-25T13:03:35Z</time>
      </trkpt>
      <trkpt lat="44.65958" lon="1.43551">
        <ele>353.4</ele>
        <time>2023-10-25T13:03:41Z</time>
      </trkpt>
      <trkpt lat="44.65962" lon="1.43548">
        <ele>353.9</ele>
        <time>2023-10-25T13:03:47Z</time>
      </trkpt>
      <trkpt lat="44.65966" lon="1.43544">
        <ele>354.5</ele>
        <time>2023-10-25T13:03:52Z</time>
      </trkpt>
      <trkpt lat="44.65971" lon="1.4354">
        <ele>353.5</ele>
        <time>2023-10-25T13:03:58Z</time>
      </trkpt>
      <trkpt lat="44.65975" lon="1.43538">
        <ele>353.9</ele>
        <time>2023-10-25T13:04:04Z</time>
      </trkpt>
      <trkpt lat="44.65979" lon="1.43535">
        <ele>357.1</ele>
        <time>2023-10-25T13:04:10Z</time>
      </trkpt>
      <trkpt lat="44.65983" lon="1.43531">
        <ele>359.2</ele>
        <time>2023-10-25T13:04:15Z</time>
      </trkpt>
      <trkpt lat="44.65988" lon="1.43528">
        <ele>359.2</ele>
        <time>2023-10-25T13:04:21Z</time>
      </trkpt>
      <trkpt lat="44.65993" lon="1.43527">
        <ele>359.4</ele>
        <time>2023-10-25T13:04:27Z</time>
      </trkpt>
      <trkpt lat="44.65998" lon="1.43525">
        <ele>357.7</ele>
        <time>2023-10-25T13:04:32Z</time>
      </trkpt>
      <trkpt lat="44.66003" lon="1.43522">
        <ele>359.6</ele>
        <time>2023-10-25T13:04:37Z</time>
      </trkpt>
      <trkpt lat="44.66007" lon="1.4352">
        <ele>360.1</ele>
        <time>2023-10-25T13:04:43Z</time>
      </trkpt>
      <trkpt lat="44.66012" lon="1.43517">
        <ele>360.4</ele>
        <time>2023-10-25T13:04:48Z</time>
      </trkpt>
      <trkpt lat="44.66016" lon="1.43515">
        <ele>364.2</ele>
        <time>2023-10-25T13:04:53Z</time>
      </trkpt>
      <trkpt lat="44.66021" lon="1.43513">
        <ele>364.9</ele>
        <time>2023-10-25T13:04:58Z</time>
      </trkpt>
      <trkpt lat="44.66026" lon="1.43511">
        <ele>363.9</ele>
        <time>2023-10-25T13:05:03Z</time>
      </trkpt>
      <trkpt lat="44.66031" lon="1.43512">
        <ele>363.5</ele>
        <time>2023-10-25T13:05:08Z</time>
      </trkpt>
      <trkpt lat="44.66035" lon="1.43511">
        <ele>364.2</ele>
        <time>2023-10-25T13:05:13Z</time>
      </trkpt>
      <trkpt lat="44.6604" lon="1.43511">
        <ele>363.6</ele>
        <time>2023-10-25T13:05:18Z</time>
      </trkpt>
      <trkpt lat="44.66045" lon="1.43512">
        <ele>364</ele>
        <time>2023-10-25T13:05:23Z</time>
      </trkpt>
      <trkpt lat="44.6605" lon="1.4351">
        <ele>365.1</ele>
        <time>2023-10-25T13:05:28Z</time>
      </trkpt>
      <trkpt lat="44.66056" lon="1.43507">
        <ele>362</ele>
        <time>2023-10-25T13:05:33Z</time>
      </trkpt>
      <trkpt lat="44.6606" lon="1.43506">
        <ele>361.7</ele>
        <time>2023-10-25T13:05:37Z</time>
      </trkpt>
      <trkpt lat="44.66065" lon="1.43505">
        <ele>362</ele>
        <time>2023-10-25T13:05:41Z</time>
      </trkpt>
      <trkpt lat="44.6607" lon="1.43502">
        <ele>361.9</ele>
        <time>2023-10-25T13:05:46Z</time>
      </trkpt>
      <trkpt lat="44.66074" lon="1.43498">
        <ele>362.7</ele>
        <time>2023-10-25T13:05:51Z</time>
      </trkpt>
      <trkpt lat="44.66079" lon="1.43496">
        <ele>363.5</ele>
        <time>2023-10-25T13:05:56Z</time>
      </trkpt>
      <trkpt lat="44.66085" lon="1.43493">
        <ele>363.8</ele>
        <time>2023-10-25T13:06:01Z</time>
      </trkpt>
      <trkpt lat="44.66089" lon="1.43491">
        <ele>364.4</ele>
        <time>2023-10-25T13:06:05Z</time>
      </trkpt>
      <trkpt lat="44.66093" lon="1.43488">
        <ele>364.3</ele>
        <time>2023-10-25T13:06:09Z</time>
      </trkpt>
      <trkpt lat="44.66098" lon="1.43486">
        <ele>365</ele>
        <time>2023-10-25T13:06:13Z</time>
      </trkpt>
      <trkpt lat="44.66103" lon="1.43484">
        <ele>364.6</ele>
        <time>2023-10-25T13:06:17Z</time>
      </trkpt>
      <trkpt lat="44.66107" lon="1.43482">
        <ele>363.3</ele>
        <time>2023-10-25T13:06:21Z</time>
      </trkpt>
      <trkpt lat="44.66112" lon="1.4348">
        <ele>363.3</ele>
        <time>2023-10-25T13:06:25Z</time>
      </trkpt>
      <trkpt lat="44.66117" lon="1.43478">
        <ele>364.1</ele>
        <time>2023-10-25T13:06:29Z</time>
      </trkpt>
      <trkpt lat="44.66121" lon="1.43478">
        <ele>362.6</ele>
        <time>2023-10-25T13:06:32Z</time>
      </trkpt>
      <trkpt lat="44.66126" lon="1.43476">
        <ele>363.1</ele>
        <time>2023-10-25T13:06:36Z</time>
      </trkpt>
      <trkpt lat="44.66131" lon="1.43476">
        <ele>360.6</ele>
        <time>2023-10-25T13:06:40Z</time>
      </trkpt>
      <trkpt lat="44.66135" lon="1.43473">
        <ele>361.4</ele>
        <time>2023-10-25T13:06:44Z</time>
      </trkpt>
      <trkpt lat="44.66139" lon="1.4347">
        <ele>362.3</ele>
        <time>2023-10-25T13:06:48Z</time>
      </trkpt>
      <trkpt lat="44.66144" lon="1.43467">
        <ele>363.4</ele>
        <time>2023-10-25T13:06:52Z</time>
      </trkpt>
      <trkpt lat="44.66149" lon="1.43465">
        <ele>363.6</ele>
        <time>2023-10-25T13:06:56Z</time>
      </trkpt>
      <trkpt lat="44.66153" lon="1.43464">
        <ele>362.8</ele>
        <time>2023-10-25T13:07:00Z</time>
      </trkpt>
      <trkpt lat="44.66158" lon="1.43463">
        <ele>365.5</ele>
        <time>2023-10-25T13:07:04Z</time>
      </trkpt>
      <trkpt lat="44.66163" lon="1.43461">
        <ele>366.4</ele>
        <time>2023-10-25T13:07:08Z</time>
      </trkpt>
      <trkpt lat="44.66167" lon="1.4346">
        <ele>365.3</ele>
        <time>2023-10-25T13:07:12Z</time>
      </trkpt>
      <trkpt lat="44.66172" lon="1.43459">
        <ele>364.2</ele>
        <time>2023-10-25T13:07:16Z</time>
      </trkpt>
      <trkpt lat="44.66177" lon="1.43458">
        <ele>364</ele>
        <time>2023-10-25T13:07:20Z</time>
      </trkpt>
      <trkpt lat="44.66182" lon="1.43458">
        <ele>364.2</ele>
        <time>2023-10-25T13:07:24Z</time>
      </trkpt>
      <trkpt lat="44.66187" lon="1.43457">
        <ele>363.6</ele>
        <time>2023-10-25T13:07:29Z</time>
      </trkpt>
      <trkpt lat="44.66192" lon="1.43457">
        <ele>363.2</ele>
        <time>2023-10-25T13:07:33Z</time>
      </trkpt>
      <trkpt lat="44.66197" lon="1.43457">
        <ele>362.9</ele>
        <time>2023-10-25T13:07:37Z</time>
      </trkpt>
      <trkpt lat="44.66201" lon="1.43458">
        <ele>361.6</ele>
        <time>2023-10-25T13:07:41Z</time>
      </trkpt>
      <trkpt lat="44.66206" lon="1.43458">
        <ele>362</ele>
        <time>2023-10-25T13:07:45Z</time>
      </trkpt>
      <trkpt lat="44.66212" lon="1.43459">
        <ele>352.8</ele>
        <time>2023-10-25T13:07:49Z</time>
      </trkpt>
      <trkpt lat="44.66215" lon="1.43457">
        <ele>352.9</ele>
        <time>2023-10-25T13:07:53Z</time>
      </trkpt>
      <trkpt lat="44.66219" lon="1.43457">
        <ele>352.8</ele>
        <time>2023-10-25T13:07:57Z</time>
      </trkpt>
      <trkpt lat="44.66223" lon="1.43456">
        <ele>352.8</ele>
        <time>2023-10-25T13:08:01Z</time>
      </trkpt>
      <trkpt lat="44.66229" lon="1.43455">
        <ele>352.7</ele>
        <time>2023-10-25T13:08:05Z</time>
      </trkpt>
      <trkpt lat="44.66233" lon="1.43455">
        <ele>352.6</ele>
        <time>2023-10-25T13:08:09Z</time>
      </trkpt>
      <trkpt lat="44.66238" lon="1.43456">
        <ele>352.5</ele>
        <time>2023-10-25T13:08:13Z</time>
      </trkpt>
      <trkpt lat="44.66243" lon="1.43457">
        <ele>352.2</ele>
        <time>2023-10-25T13:08:17Z</time>
      </trkpt>
      <trkpt lat="44.66248" lon="1.43457">
        <ele>352.2</ele>
        <time>2023-10-25T13:08:21Z</time>
      </trkpt>
      <trkpt lat="44.66253" lon="1.43458">
        <ele>351.7</ele>
        <time>2023-10-25T13:08:25Z</time>
      </trkpt>
      <trkpt lat="44.66259" lon="1.43459">
        <ele>351.1</ele>
        <time>2023-10-25T13:08:29Z</time>
      </trkpt>
      <trkpt lat="44.66263" lon="1.4346">
        <ele>350.7</ele>
        <time>2023-10-25T13:08:34Z</time>
      </trkpt>
      <trkpt lat="44.66268" lon="1.43461">
        <ele>350.1</ele>
        <time>2023-10-25T13:08:38Z</time>
      </trkpt>
      <trkpt lat="44.66272" lon="1.43461">
        <ele>349.7</ele>
        <time>2023-10-25T13:08:42Z</time>
      </trkpt>
      <trkpt lat="44.66276" lon="1.43462">
        <ele>349.3</ele>
        <time>2023-10-25T13:08:46Z</time>
      </trkpt>
      <trkpt lat="44.66281" lon="1.43461">
        <ele>348.9</ele>
        <time>2023-10-25T13:08:51Z</time>
      </trkpt>
      <trkpt lat="44.66289" lon="1.43463">
        <ele>348</ele>
        <time>2023-10-25T13:08:56Z</time>
      </trkpt>
      <trkpt lat="44.66295" lon="1.43463">
        <ele>347.6</ele>
        <time>2023-10-25T13:09:00Z</time>
      </trkpt>
      <trkpt lat="44.663" lon="1.43464">
        <ele>347.1</ele>
        <time>2023-10-25T13:09:04Z</time>
      </trkpt>
      <trkpt lat="44.66302" lon="1.43465">
        <ele>346.8</ele>
        <time>2023-10-25T13:09:08Z</time>
      </trkpt>
      <trkpt lat="44.66304" lon="1.43466">
        <ele>346.6</ele>
      </trkpt>
      <trkpt lat="44.6631" lon="1.43467">
        <ele>346.1</ele>
        <time>2023-10-25T13:09:13Z</time>
      </trkpt>
      <trkpt lat="44.66314" lon="1.43469">
        <ele>345.6</ele>
        <time>2023-10-25T13:09:17Z</time>
      </trkpt>
      <trkpt lat="44.66318" lon="1.43471">
        <ele>345.1</ele>
        <time>2023-10-25T13:09:21Z</time>
      </trkpt>
      <trkpt lat="44.66324" lon="1.43475">
        <ele>344.5</ele>
        <time>2023-10-25T13:09:25Z</time>
      </trkpt>
      <trkpt lat="44.66329" lon="1.43477">
        <ele>344.1</ele>
        <time>2023-10-25T13:09:30Z</time>
      </trkpt>
      <trkpt lat="44.66334" lon="1.43477">
        <ele>343.8</ele>
        <time>2023-10-25T13:09:34Z</time>
      </trkpt>
      <trkpt lat="44.6634" lon="1.43477">
        <ele>343.4</ele>
        <time>2023-10-25T13:09:38Z</time>
      </trkpt>
      <trkpt lat="44.66348" lon="1.4348">
        <ele>342.7</ele>
        <time>2023-10-25T13:09:42Z</time>
      </trkpt>
      <trkpt lat="44.66353" lon="1.43482">
        <ele>342.2</ele>
        <time>2023-10-25T13:09:46Z</time>
      </trkpt>
      <trkpt lat="44.66359" lon="1.43482">
        <ele>341.8</ele>
        <time>2023-10-25T13:09:50Z</time>
      </trkpt>
      <trkpt lat="44.66364" lon="1.43483">
        <ele>341.3</ele>
        <time>2023-10-25T13:09:54Z</time>
      </trkpt>
      <trkpt lat="44.66369" lon="1.43485">
        <ele>340.9</ele>
        <time>2023-10-25T13:09:58Z</time>
      </trkpt>
      <trkpt lat="44.66373" lon="1.43485">
        <ele>340.4</ele>
        <time>2023-10-25T13:10:03Z</time>
      </trkpt>
      <trkpt lat="44.66378" lon="1.43488">
        <ele>339.9</ele>
        <time>2023-10-25T13:10:07Z</time>
      </trkpt>
      <trkpt lat="44.66383" lon="1.4349">
        <ele>339.5</ele>
        <time>2023-10-25T13:10:11Z</time>
      </trkpt>
      <trkpt lat="44.66388" lon="1.4349">
        <ele>339.1</ele>
        <time>2023-10-25T13:10:15Z</time>
      </trkpt>
      <trkpt lat="44.66392" lon="1.43491">
        <ele>338.7</ele>
        <time>2023-10-25T13:10:19Z</time>
      </trkpt>
      <trkpt lat="44.66398" lon="1.43493">
        <ele>338.2</ele>
        <time>2023-10-25T13:10:24Z</time>
      </trkpt>
      <trkpt lat="44.66403" lon="1.43493">
        <ele>337.7</ele>
        <time>2023-10-25T13:10:28Z</time>
      </trkpt>
      <trkpt lat="44.66408" lon="1.43492">
        <ele>337.2</ele>
        <time>2023-10-25T13:10:32Z</time>
      </trkpt>
      <trkpt lat="44.66412" lon="1.43493">
        <ele>336.9</ele>
        <time>2023-10-25T13:10:36Z</time>
      </trkpt>
      <trkpt lat="44.66417" lon="1.43494">
        <ele>336.6</ele>
        <time>2023-10-25T13:10:41Z</time>
      </trkpt>
      <trkpt lat="44.66421" lon="1.43497">
        <ele>336.6</ele>
        <time>2023-10-25T13:10:45Z</time>
      </trkpt>
      <trkpt lat="44.66425" lon="1.43498">
        <ele>336.5</ele>
        <time>2023-10-25T13:10:49Z</time>
      </trkpt>
      <trkpt lat="44.6643" lon="1.43497">
        <ele>336.2</ele>
        <time>2023-10-25T13:10:53Z</time>
      </trkpt>
      <trkpt lat="44.66434" lon="1.43499">
        <ele>336.3</ele>
        <time>2023-10-25T13:10:57Z</time>
      </trkpt>
      <trkpt lat="44.66439" lon="1.435">
        <ele>336.2</ele>
        <time>2023-10-25T13:11:01Z</time>
      </trkpt>
      <trkpt lat="44.66445" lon="1.43501">
        <ele>336</ele>
        <time>2023-10-25T13:11:05Z</time>
      </trkpt>
      <trkpt lat="44.6645" lon="1.43502">
        <ele>336.1</ele>
        <time>2023-10-25T13:11:09Z</time>
      </trkpt>
      <trkpt lat="44.66455" lon="1.43501">
        <ele>336.1</ele>
        <time>2023-10-25T13:11:14Z</time>
      </trkpt>
      <trkpt lat="44.6646" lon="1.43501">
        <ele>336.1</ele>
        <time>2023-10-25T13:11:19Z</time>
      </trkpt>
      <trkpt lat="44.66465" lon="1.43503">
        <ele>336.2</ele>
        <time>2023-10-25T13:11:23Z</time>
      </trkpt>
      <trkpt lat="44.6647" lon="1.43503">
        <ele>336.3</ele>
        <time>2023-10-25T13:11:27Z</time>
      </trkpt>
      <trkpt lat="44.66473" lon="1.43503">
        <ele>336.3</ele>
        <time>2023-10-25T13:11:31Z</time>
      </trkpt>
      <trkpt lat="44.66477" lon="1.43504">
        <ele>336.6</ele>
        <time>2023-10-25T13:11:35Z</time>
      </trkpt>
      <trkpt lat="44.66481" lon="1.43504">
        <ele>336.8</ele>
        <time>2023-10-25T13:11:39Z</time>
      </trkpt>
      <trkpt lat="44.66486" lon="1.43504">
        <ele>337</ele>
        <time>2023-10-25T13:11:44Z</time>
      </trkpt>
      <trkpt lat="44.66491" lon="1.43505">
        <ele>337.2</ele>
        <time>2023-10-25T13:11:49Z</time>
      </trkpt>
      <trkpt lat="44.66494" lon="1.43505">
        <ele>337.3</ele>
        <time>2023-10-25T13:11:55Z</time>
      </trkpt>
      <trkpt lat="44.66496" lon="1.43507">
        <ele>337.6</ele>
        <time>2023-10-25T13:12:10Z</time>
      </trkpt>
      <trkpt lat="44.66499" lon="1.43506">
        <ele>337.6</ele>
        <time>2023-10-25T13:12:15Z</time>
      </trkpt>
      <trkpt lat="44.66502" lon="1.43506">
        <ele>337.7</ele>
        <time>2023-10-25T13:12:20Z</time>
      </trkpt>
      <trkpt lat="44.66505" lon="1.43509">
        <ele>338</ele>
        <time>2023-10-25T13:12:25Z</time>
      </trkpt>
      <trkpt lat="44.66508" lon="1.43509">
        <ele>338.1</ele>
        <time>2023-10-25T13:12:30Z</time>
      </trkpt>
      <trkpt lat="44.66512" lon="1.4351">
        <ele>338.3</ele>
        <time>2023-10-25T13:12:35Z</time>
      </trkpt>
      <trkpt lat="44.66517" lon="1.43512">
        <ele>338.5</ele>
        <time>2023-10-25T13:12:39Z</time>
      </trkpt>
      <trkpt lat="44.66521" lon="1.43512">
        <ele>338.6</ele>
        <time>2023-10-25T13:12:43Z</time>
      </trkpt>
      <trkpt lat="44.66525" lon="1.43512">
        <ele>338.6</ele>
        <time>2023-10-25T13:12:47Z</time>
      </trkpt>
      <trkpt lat="44.66528" lon="1.43513">
        <ele>338.8</ele>
        <time>2023-10-25T13:12:51Z</time>
      </trkpt>
      <trkpt lat="44.66534" lon="1.4351">
        <ele>345.7</ele>
        <time>2023-10-25T13:12:55Z</time>
      </trkpt>
      <trkpt lat="44.66538" lon="1.43508">
        <ele>345.1</ele>
        <time>2023-10-25T13:12:59Z</time>
      </trkpt>
      <trkpt lat="44.66543" lon="1.43506">
        <ele>344.5</ele>
        <time>2023-10-25T13:13:03Z</time>
      </trkpt>
      <trkpt lat="44.66548" lon="1.43504">
        <ele>342.5</ele>
        <time>2023-10-25T13:13:07Z</time>
      </trkpt>
      <trkpt lat="44.66553" lon="1.43506">
        <ele>341.8</ele>
        <time>2023-10-25T13:13:11Z</time>
      </trkpt>
      <trkpt lat="44.66557" lon="1.4351">
        <ele>339.7</ele>
        <time>2023-10-25T13:13:16Z</time>
      </trkpt>
      <trkpt lat="44.66562" lon="1.43513">
        <ele>339.5</ele>
        <time>2023-10-25T13:13:21Z</time>
      </trkpt>
      <trkpt lat="44.66566" lon="1.43517">
        <ele>340.7</ele>
        <time>2023-10-25T13:13:26Z</time>
      </trkpt>
      <trkpt lat="44.66571" lon="1.43519">
        <ele>337.1</ele>
        <time>2023-10-25T13:13:31Z</time>
      </trkpt>
      <trkpt lat="44.66576" lon="1.43521">
        <ele>337.2</ele>
        <time>2023-10-25T13:13:35Z</time>
      </trkpt>
      <trkpt lat="44.6658" lon="1.43526">
        <ele>337.6</ele>
        <time>2023-10-25T13:13:40Z</time>
      </trkpt>
      <trkpt lat="44.66584" lon="1.43531">
        <ele>336.4</ele>
        <time>2023-10-25T13:13:44Z</time>
      </trkpt>
      <trkpt lat="44.66588" lon="1.43534">
        <ele>334.2</ele>
        <time>2023-10-25T13:13:48Z</time>
      </trkpt>
      <trkpt lat="44.66592" lon="1.43538">
        <ele>333.4</ele>
        <time>2023-10-25T13:13:52Z</time>
      </trkpt>
      <trkpt lat="44.66596" lon="1.43542">
        <ele>333.6</ele>
        <time>2023-10-25T13:13:56Z</time>
      </trkpt>
      <trkpt lat="44.666" lon="1.43546">
        <ele>333.3</ele>
        <time>2023-10-25T13:14:00Z</time>
      </trkpt>
      <trkpt lat="44.66604" lon="1.4355">
        <ele>333.6</ele>
        <time>2023-10-25T13:14:04Z</time>
      </trkpt>
      <trkpt lat="44.66609" lon="1.43554">
        <ele>334.4</ele>
        <time>2023-10-25T13:14:09Z</time>
      </trkpt>
      <trkpt lat="44.66613" lon="1.43559">
        <ele>334.3</ele>
        <time>2023-10-25T13:14:14Z</time>
      </trkpt>
      <trkpt lat="44.66617" lon="1.43563">
        <ele>334.7</ele>
        <time>2023-10-25T13:14:19Z</time>
      </trkpt>
      <trkpt lat="44.66623" lon="1.43564">
        <ele>335.2</ele>
        <time>2023-10-25T13:14:24Z</time>
      </trkpt>
      <trkpt lat="44.66625" lon="1.4357">
        <ele>333.7</ele>
        <time>2023-10-25T13:14:29Z</time>
      </trkpt>
      <trkpt lat="44.6663" lon="1.43569">
        <ele>334.2</ele>
        <time>2023-10-25T13:14:33Z</time>
      </trkpt>
      <trkpt lat="44.66635" lon="1.43566">
        <ele>336</ele>
        <time>2023-10-25T13:14:39Z</time>
      </trkpt>
      <trkpt lat="44.6664" lon="1.43566">
        <ele>338.1</ele>
        <time>2023-10-25T13:14:45Z</time>
      </trkpt>
      <trkpt lat="44.66645" lon="1.43565">
        <ele>338.2</ele>
        <time>2023-10-25T13:14:51Z</time>
      </trkpt>
      <trkpt lat="44.66649" lon="1.43566">
        <ele>337.2</ele>
        <time>2023-10-25T13:14:56Z</time>
      </trkpt>
      <trkpt lat="44.66654" lon="1.43566">
        <ele>337.3</ele>
        <time>2023-10-25T13:15:01Z</time>
      </trkpt>
      <trkpt lat="44.66659" lon="1.43565">
        <ele>337.8</ele>
        <time>2023-10-25T13:15:07Z</time>
      </trkpt>
      <trkpt lat="44.66664" lon="1.43565">
        <ele>344</ele>
        <time>2023-10-25T13:15:13Z</time>
      </trkpt>
      <trkpt lat="44.66669" lon="1.43565">
        <ele>341.3</ele>
        <time>2023-10-25T13:15:20Z</time>
      </trkpt>
      <trkpt lat="44.66674" lon="1.43566">
        <ele>340.7</ele>
        <time>2023-10-25T13:15:27Z</time>
      </trkpt>
      <trkpt lat="44.66678" lon="1.43567">
        <ele>343.1</ele>
        <time>2023-10-25T13:15:34Z</time>
      </trkpt>
      <trkpt lat="44.66683" lon="1.43567">
        <ele>345.7</ele>
        <time>2023-10-25T13:15:42Z</time>
      </trkpt>
      <trkpt lat="44.66687" lon="1.43566">
        <ele>346.5</ele>
        <time>2023-10-25T13:15:50Z</time>
      </trkpt>
      <trkpt lat="44.66691" lon="1.43562">
        <ele>349.9</ele>
        <time>2023-10-25T13:16:03Z</time>
      </trkpt>
      <trkpt lat="44.66696" lon="1.4356">
        <ele>350.2</ele>
        <time>2023-10-25T13:16:11Z</time>
      </trkpt>
      <trkpt lat="44.667" lon="1.43555">
        <ele>352.4</ele>
        <time>2023-10-25T13:16:19Z</time>
      </trkpt>
      <trkpt lat="44.66703" lon="1.4355">
        <ele>351.4</ele>
        <time>2023-10-25T13:16:26Z</time>
      </trkpt>
      <trkpt lat="44.66707" lon="1.43546">
        <ele>359.1</ele>
        <time>2023-10-25T13:16:33Z</time>
      </trkpt>
      <trkpt lat="44.66711" lon="1.43542">
        <ele>357.7</ele>
        <time>2023-10-25T13:16:39Z</time>
      </trkpt>
      <trkpt lat="44.66715" lon="1.43538">
        <ele>359.5</ele>
        <time>2023-10-25T13:16:46Z</time>
      </trkpt>
      <trkpt lat="44.66718" lon="1.43533">
        <ele>362.2</ele>
        <time>2023-10-25T13:16:52Z</time>
      </trkpt>
      <trkpt lat="44.66721" lon="1.43527">
        <ele>360.3</ele>
        <time>2023-10-25T13:16:58Z</time>
      </trkpt>
      <trkpt lat="44.66725" lon="1.43522">
        <ele>358.5</ele>
        <time>2023-10-25T13:17:04Z</time>
      </trkpt>
      <trkpt lat="44.66728" lon="1.43515">
        <ele>352.1</ele>
        <time>2023-10-25T13:17:09Z</time>
      </trkpt>
      <trkpt lat="44.6673" lon="1.43509">
        <ele>353.2</ele>
        <time>2023-10-25T13:17:14Z</time>
      </trkpt>
      <trkpt lat="44.66732" lon="1.43502">
        <ele>353.9</ele>
        <time>2023-10-25T13:17:20Z</time>
      </trkpt>
      <trkpt lat="44.66735" lon="1.43496">
        <ele>347.7</ele>
        <time>2023-10-25T13:17:25Z</time>
      </trkpt>
      <trkpt lat="44.66739" lon="1.43492">
        <ele>349.5</ele>
        <time>2023-10-25T13:17:34Z</time>
      </trkpt>
      <trkpt lat="44.66742" lon="1.43486">
        <ele>353.3</ele>
        <time>2023-10-25T13:17:37Z</time>
      </trkpt>
      <trkpt lat="44.66743" lon="1.4348">
        <ele>353.3</ele>
        <time>2023-10-25T13:17:42Z</time>
      </trkpt>
      <trkpt lat="44.66745" lon="1.43473">
        <ele>354.5</ele>
        <time>2023-10-25T13:17:47Z</time>
      </trkpt>
      <trkpt lat="44.66748" lon="1.43466">
        <ele>354.5</ele>
        <time>2023-10-25T13:17:52Z</time>
      </trkpt>
      <trkpt lat="44.6675" lon="1.4346">
        <ele>355.6</ele>
        <time>2023-10-25T13:17:57Z</time>
      </trkpt>
      <trkpt lat="44.66752" lon="1.43454">
        <ele>355.9</ele>
        <time>2023-10-25T13:18:01Z</time>
      </trkpt>
      <trkpt lat="44.66753" lon="1.43447">
        <ele>356</ele>
        <time>2023-10-25T13:18:05Z</time>
      </trkpt>
      <trkpt lat="44.66754" lon="1.43441">
        <ele>356.3</ele>
        <time>2023-10-25T13:18:09Z</time>
      </trkpt>
      <trkpt lat="44.66756" lon="1.43434">
        <ele>355.1</ele>
        <time>2023-10-25T13:18:14Z</time>
      </trkpt>
      <trkpt lat="44.66757" lon="1.43427">
        <ele>354.9</ele>
        <time>2023-10-25T13:18:18Z</time>
      </trkpt>
      <trkpt lat="44.66756" lon="1.4342">
        <ele>355.2</ele>
        <time>2023-10-25T13:18:22Z</time>
      </trkpt>
      <trkpt lat="44.66755" lon="1.43412">
        <ele>355.4</ele>
        <time>2023-10-25T13:18:27Z</time>
      </trkpt>
      <trkpt lat="44.66753" lon="1.43406">
        <ele>355.3</ele>
        <time>2023-10-25T13:18:31Z</time>
      </trkpt>
      <trkpt lat="44.66753" lon="1.434">
        <ele>355.3</ele>
        <time>2023-10-25T13:18:35Z</time>
      </trkpt>
      <trkpt lat="44.66753" lon="1.43393">
        <ele>354.7</ele>
        <time>2023-10-25T13:18:39Z</time>
      </trkpt>
      <trkpt lat="44.66753" lon="1.43386">
        <ele>355.7</ele>
        <time>2023-10-25T13:18:43Z</time>
      </trkpt>
      <trkpt lat="44.66753" lon="1.43379">
        <ele>356.3</ele>
        <time>2023-10-25T13:18:47Z</time>
      </trkpt>
      <trkpt lat="44.66753" lon="1.43373">
        <ele>356.2</ele>
        <time>2023-10-25T13:18:51Z</time>
      </trkpt>
      <trkpt lat="44.66752" lon="1.43365">
        <ele>355.8</ele>
        <time>2023-10-25T13:18:55Z</time>
      </trkpt>
      <trkpt lat="44.66753" lon="1.43358">
        <ele>354.8</ele>
        <time>2023-10-25T13:18:59Z</time>
      </trkpt>
      <trkpt lat="44.66752" lon="1.43351">
        <ele>354.7</ele>
        <time>2023-10-25T13:19:03Z</time>
      </trkpt>
      <trkpt lat="44.66752" lon="1.43344">
        <ele>353.3</ele>
        <time>2023-10-25T13:19:07Z</time>
      </trkpt>
      <trkpt lat="44.66752" lon="1.43337">
        <ele>353.8</ele>
        <time>2023-10-25T13:19:11Z</time>
      </trkpt>
      <trkpt lat="44.66752" lon="1.43329">
        <ele>355.6</ele>
        <time>2023-10-25T13:19:16Z</time>
      </trkpt>
      <trkpt lat="44.66753" lon="1.43323">
        <ele>356.3</ele>
        <time>2023-10-25T13:19:20Z</time>
      </trkpt>
      <trkpt lat="44.66755" lon="1.43316">
        <ele>356.1</ele>
        <time>2023-10-25T13:19:24Z</time>
      </trkpt>
      <trkpt lat="44.66757" lon="1.43309">
        <ele>355.4</ele>
        <time>2023-10-25T13:19:28Z</time>
      </trkpt>
      <trkpt lat="44.66759" lon="1.43302">
        <ele>355.4</ele>
        <time>2023-10-25T13:19:32Z</time>
      </trkpt>
      <trkpt lat="44.66761" lon="1.43296">
        <ele>354.1</ele>
        <time>2023-10-25T13:19:36Z</time>
      </trkpt>
      <trkpt lat="44.66763" lon="1.43289">
        <ele>353.4</ele>
        <time>2023-10-25T13:19:40Z</time>
      </trkpt>
      <trkpt lat="44.66764" lon="1.43282">
        <ele>353.9</ele>
        <time>2023-10-25T13:19:44Z</time>
      </trkpt>
      <trkpt lat="44.66764" lon="1.43279">
        <ele>350</ele>
        <time>2023-10-25T13:19:49Z</time>
      </trkpt>
      <trkpt lat="44.66767" lon="1.43273">
        <ele>349.8</ele>
        <time>2023-10-25T13:20:12Z</time>
      </trkpt>
      <trkpt lat="44.66769" lon="1.43272">
        <ele>352.5</ele>
        <time>2023-10-25T13:20:14Z</time>
      </trkpt>
      <trkpt lat="44.6677" lon="1.43265">
        <ele>349.6</ele>
      </trkpt>
      <trkpt lat="44.66769" lon="1.43261">
        <ele>349.4</ele>
        <time>2023-10-25T13:20:18Z</time>
      </trkpt>
      <trkpt lat="44.66772" lon="1.43258">
        <ele>349.3</ele>
        <time>2023-10-25T13:20:22Z</time>
      </trkpt>
      <trkpt lat="44.66773" lon="1.43251">
        <ele>352.1</ele>
        <time>2023-10-25T13:20:26Z</time>
      </trkpt>
      <trkpt lat="44.66774" lon="1.43243">
        <ele>353.6</ele>
        <time>2023-10-25T13:20:30Z</time>
      </trkpt>
      <trkpt lat="44.66775" lon="1.43236">
        <ele>354.4</ele>
        <time>2023-10-25T13:20:34Z</time>
      </trkpt>
      <trkpt lat="44.66775" lon="1.43229">
        <ele>353.8</ele>
        <time>2023-10-25T13:20:37Z</time>
      </trkpt>
      <trkpt lat="44.66775" lon="1.43221">
        <ele>354.6</ele>
        <time>2023-10-25T13:20:41Z</time>
      </trkpt>
      <trkpt lat="44.66774" lon="1.43214">
        <ele>354.2</ele>
        <time>2023-10-25T13:20:45Z</time>
      </trkpt>
      <trkpt lat="44.66773" lon="1.43207">
        <ele>353.6</ele>
        <time>2023-10-25T13:20:50Z</time>
      </trkpt>
      <trkpt lat="44.66774" lon="1.432">
        <ele>353.2</ele>
        <time>2023-10-25T13:20:54Z</time>
      </trkpt>
      <trkpt lat="44.66777" lon="1.43193">
        <ele>352.2</ele>
        <time>2023-10-25T13:20:58Z</time>
      </trkpt>
      <trkpt lat="44.66778" lon="1.43185">
        <ele>351.2</ele>
        <time>2023-10-25T13:21:02Z</time>
      </trkpt>
      <trkpt lat="44.66779" lon="1.43177">
        <ele>351.1</ele>
        <time>2023-10-25T13:21:06Z</time>
      </trkpt>
      <trkpt lat="44.66782" lon="1.4317">
        <ele>350.7</ele>
        <time>2023-10-25T13:21:10Z</time>
      </trkpt>
      <trkpt lat="44.66784" lon="1.43164">
        <ele>350.7</ele>
        <time>2023-10-25T13:21:14Z</time>
      </trkpt>
      <trkpt lat="44.66786" lon="1.43157">
        <ele>351</ele>
        <time>2023-10-25T13:21:18Z</time>
      </trkpt>
      <trkpt lat="44.66786" lon="1.43151">
        <ele>352</ele>
        <time>2023-10-25T13:21:21Z</time>
      </trkpt>
      <trkpt lat="44.66787" lon="1.43143">
        <ele>350.8</ele>
        <time>2023-10-25T13:21:25Z</time>
      </trkpt>
      <trkpt lat="44.66788" lon="1.43137">
        <ele>350.4</ele>
        <time>2023-10-25T13:21:29Z</time>
      </trkpt>
      <trkpt lat="44.6679" lon="1.4313">
        <ele>352.1</ele>
        <time>2023-10-25T13:21:33Z</time>
      </trkpt>
      <trkpt lat="44.66792" lon="1.43122">
        <ele>352.4</ele>
        <time>2023-10-25T13:21:37Z</time>
      </trkpt>
      <trkpt lat="44.66796" lon="1.43118">
        <ele>349.6</ele>
        <time>2023-10-25T13:21:42Z</time>
      </trkpt>
      <trkpt lat="44.668" lon="1.43116">
        <ele>347.9</ele>
        <time>2023-10-25T13:21:58Z</time>
      </trkpt>
      <trkpt lat="44.668" lon="1.43109">
        <ele>345.1</ele>
        <time>2023-10-25T13:22:13Z</time>
      </trkpt>
      <trkpt lat="44.668" lon="1.43101">
        <ele>344.8</ele>
        <time>2023-10-25T13:22:18Z</time>
      </trkpt>
      <trkpt lat="44.66801" lon="1.43095">
        <ele>343.8</ele>
        <time>2023-10-25T13:22:22Z</time>
      </trkpt>
      <trkpt lat="44.66802" lon="1.43089">
        <ele>342.7</ele>
        <time>2023-10-25T13:22:27Z</time>
      </trkpt>
      <trkpt lat="44.66803" lon="1.43081">
        <ele>342</ele>
        <time>2023-10-25T13:22:32Z</time>
      </trkpt>
      <trkpt lat="44.66805" lon="1.43074">
        <ele>341.9</ele>
        <time>2023-10-25T13:22:36Z</time>
      </trkpt>
      <trkpt lat="44.66808" lon="1.43067">
        <ele>340.7</ele>
        <time>2023-10-25T13:22:40Z</time>
      </trkpt>
      <trkpt lat="44.66812" lon="1.43062">
        <ele>339.6</ele>
        <time>2023-10-25T13:22:44Z</time>
      </trkpt>
      <trkpt lat="44.66815" lon="1.43057">
        <ele>339.6</ele>
        <time>2023-10-25T13:22:48Z</time>
      </trkpt>
      <trkpt lat="44.66819" lon="1.43053">
        <ele>339.2</ele>
        <time>2023-10-25T13:22:52Z</time>
      </trkpt>
      <trkpt lat="44.66823" lon="1.43048">
        <ele>337.4</ele>
        <time>2023-10-25T13:22:56Z</time>
      </trkpt>
      <trkpt lat="44.66826" lon="1.43043">
        <ele>335.2</ele>
        <time>2023-10-25T13:23:00Z</time>
      </trkpt>
      <trkpt lat="44.6683" lon="1.43038">
        <ele>334.7</ele>
        <time>2023-10-25T13:23:05Z</time>
      </trkpt>
      <trkpt lat="44.66832" lon="1.43032">
        <ele>333.4</ele>
        <time>2023-10-25T13:23:09Z</time>
      </trkpt>
      <trkpt lat="44.66829" lon="1.43025">
        <ele>329.4</ele>
        <time>2023-10-25T13:23:16Z</time>
      </trkpt>
      <trkpt lat="44.66828" lon="1.43018">
        <ele>329.4</ele>
        <time>2023-10-25T13:23:21Z</time>
      </trkpt>
      <trkpt lat="44.66826" lon="1.43012">
        <ele>330.6</ele>
        <time>2023-10-25T13:23:26Z</time>
      </trkpt>
      <trkpt lat="44.66828" lon="1.43006">
        <ele>329.5</ele>
        <time>2023-10-25T13:23:30Z</time>
      </trkpt>
      <trkpt lat="44.66831" lon="1.43001">
        <ele>327.6</ele>
        <time>2023-10-25T13:23:35Z</time>
      </trkpt>
      <trkpt lat="44.66835" lon="1.42997">
        <ele>328.8</ele>
        <time>2023-10-25T13:23:39Z</time>
      </trkpt>
      <trkpt lat="44.6684" lon="1.42995">
        <ele>329.3</ele>
        <time>2023-10-25T13:23:44Z</time>
      </trkpt>
      <trkpt lat="44.66845" lon="1.42994">
        <ele>329.3</ele>
        <time>2023-10-25T13:23:48Z</time>
      </trkpt>
      <trkpt lat="44.6685" lon="1.42994">
        <ele>329</ele>
        <time>2023-10-25T13:23:52Z</time>
      </trkpt>
      <trkpt lat="44.66855" lon="1.42995">
        <ele>328.8</ele>
        <time>2023-10-25T13:23:57Z</time>
      </trkpt>
      <trkpt lat="44.6686" lon="1.42995">
        <ele>328.8</ele>
        <time>2023-10-25T13:24:02Z</time>
      </trkpt>
      <trkpt lat="44.66865" lon="1.42994">
        <ele>325.2</ele>
        <time>2023-10-25T13:24:08Z</time>
      </trkpt>
      <trkpt lat="44.6687" lon="1.42994">
        <ele>323.2</ele>
        <time>2023-10-25T13:24:13Z</time>
      </trkpt>
      <trkpt lat="44.66874" lon="1.42993">
        <ele>320.8</ele>
        <time>2023-10-25T13:24:17Z</time>
      </trkpt>
      <trkpt lat="44.66879" lon="1.42994">
        <ele>319.2</ele>
        <time>2023-10-25T13:24:22Z</time>
      </trkpt>
      <trkpt lat="44.66884" lon="1.42997">
        <ele>317.5</ele>
        <time>2023-10-25T13:24:27Z</time>
      </trkpt>
      <trkpt lat="44.66888" lon="1.43002">
        <ele>314.8</ele>
        <time>2023-10-25T13:24:32Z</time>
      </trkpt>
      <trkpt lat="44.66892" lon="1.43008">
        <ele>313.8</ele>
        <time>2023-10-25T13:24:36Z</time>
      </trkpt>
      <trkpt lat="44.66896" lon="1.43013">
        <ele>312.3</ele>
        <time>2023-10-25T13:24:40Z</time>
      </trkpt>
      <trkpt lat="44.669" lon="1.43019">
        <ele>310.9</ele>
        <time>2023-10-25T13:24:45Z</time>
      </trkpt>
      <trkpt lat="44.66902" lon="1.43025">
        <ele>310.9</ele>
        <time>2023-10-25T13:24:49Z</time>
      </trkpt>
      <trkpt lat="44.66903" lon="1.43032">
        <ele>310.4</ele>
        <time>2023-10-25T13:24:53Z</time>
      </trkpt>
      <trkpt lat="44.66903" lon="1.43039">
        <ele>310.3</ele>
        <time>2023-10-25T13:24:57Z</time>
      </trkpt>
      <trkpt lat="44.66903" lon="1.43046">
        <ele>309.5</ele>
        <time>2023-10-25T13:25:01Z</time>
      </trkpt>
      <trkpt lat="44.66902" lon="1.43054">
        <ele>309.8</ele>
        <time>2023-10-25T13:25:05Z</time>
      </trkpt>
      <trkpt lat="44.66902" lon="1.43062">
        <ele>311</ele>
        <time>2023-10-25T13:25:09Z</time>
      </trkpt>
      <trkpt lat="44.66901" lon="1.4307">
        <ele>311.4</ele>
        <time>2023-10-25T13:25:13Z</time>
      </trkpt>
      <trkpt lat="44.66901" lon="1.43077">
        <ele>311.7</ele>
        <time>2023-10-25T13:25:17Z</time>
      </trkpt>
      <trkpt lat="44.66902" lon="1.43085">
        <ele>311.6</ele>
        <time>2023-10-25T13:25:21Z</time>
      </trkpt>
      <trkpt lat="44.66903" lon="1.43093">
        <ele>311.5</ele>
        <time>2023-10-25T13:25:25Z</time>
      </trkpt>
      <trkpt lat="44.66904" lon="1.43101">
        <ele>312.5</ele>
        <time>2023-10-25T13:25:29Z</time>
      </trkpt>
      <trkpt lat="44.66905" lon="1.43108">
        <ele>313.8</ele>
        <time>2023-10-25T13:25:34Z</time>
      </trkpt>
      <trkpt lat="44.66907" lon="1.43114">
        <ele>309.6</ele>
        <time>2023-10-25T13:25:39Z</time>
      </trkpt>
      <trkpt lat="44.66911" lon="1.43117">
        <ele>306.9</ele>
        <time>2023-10-25T13:25:43Z</time>
      </trkpt>
      <trkpt lat="44.66916" lon="1.43118">
        <ele>304.3</ele>
        <time>2023-10-25T13:25:47Z</time>
      </trkpt>
      <trkpt lat="44.66922" lon="1.43119">
        <ele>304.9</ele>
        <time>2023-10-25T13:25:51Z</time>
      </trkpt>
      <trkpt lat="44.66926" lon="1.43121">
        <ele>305.1</ele>
        <time>2023-10-25T13:25:55Z</time>
      </trkpt>
      <trkpt lat="44.66931" lon="1.43125">
        <ele>310.3</ele>
        <time>2023-10-25T13:26:01Z</time>
      </trkpt>
      <trkpt lat="44.66935" lon="1.43129">
        <ele>311.6</ele>
        <time>2023-10-25T13:26:04Z</time>
      </trkpt>
      <trkpt lat="44.6694" lon="1.43129">
        <ele>313.7</ele>
        <time>2023-10-25T13:26:08Z</time>
      </trkpt>
      <trkpt lat="44.66945" lon="1.43131">
        <ele>314.6</ele>
        <time>2023-10-25T13:26:20Z</time>
      </trkpt>
      <trkpt lat="44.66948" lon="1.43138">
        <ele>313.9</ele>
        <time>2023-10-25T13:26:24Z</time>
      </trkpt>
      <trkpt lat="44.6695" lon="1.43145">
        <ele>311.9</ele>
        <time>2023-10-25T13:26:29Z</time>
      </trkpt>
      <trkpt lat="44.66954" lon="1.4315">
        <ele>311.5</ele>
        <time>2023-10-25T13:26:33Z</time>
      </trkpt>
      <trkpt lat="44.66958" lon="1.43154">
        <ele>312.2</ele>
        <time>2023-10-25T13:26:38Z</time>
      </trkpt>
      <trkpt lat="44.66962" lon="1.4316">
        <ele>310.6</ele>
        <time>2023-10-25T13:26:43Z</time>
      </trkpt>
      <trkpt lat="44.66965" lon="1.43166">
        <ele>308.6</ele>
        <time>2023-10-25T13:26:47Z</time>
      </trkpt>
      <trkpt lat="44.66969" lon="1.43171">
        <ele>307.9</ele>
        <time>2023-10-25T13:26:51Z</time>
      </trkpt>
      <trkpt lat="44.66972" lon="1.43176">
        <ele>307.2</ele>
        <time>2023-10-25T13:26:56Z</time>
      </trkpt>
      <trkpt lat="44.66974" lon="1.43182">
        <ele>307</ele>
        <time>2023-10-25T13:26:59Z</time>
      </trkpt>
      <trkpt lat="44.66977" lon="1.43187">
        <ele>307.6</ele>
        <time>2023-10-25T13:27:03Z</time>
      </trkpt>
      <trkpt lat="44.66979" lon="1.43193">
        <ele>306.4</ele>
        <time>2023-10-25T13:27:06Z</time>
      </trkpt>
      <trkpt lat="44.66979" lon="1.432">
        <ele>305.6</ele>
        <time>2023-10-25T13:27:10Z</time>
      </trkpt>
      <trkpt lat="44.66979" lon="1.43207">
        <ele>301</ele>
        <time>2023-10-25T13:27:15Z</time>
      </trkpt>
      <trkpt lat="44.66979" lon="1.43215">
        <ele>300.7</ele>
        <time>2023-10-25T13:27:20Z</time>
      </trkpt>
      <trkpt lat="44.66979" lon="1.43221">
        <ele>300.4</ele>
        <time>2023-10-25T13:27:24Z</time>
      </trkpt>
      <trkpt lat="44.66979" lon="1.43228">
        <ele>300.1</ele>
        <time>2023-10-25T13:27:28Z</time>
      </trkpt>
      <trkpt lat="44.66979" lon="1.43235">
        <ele>297.9</ele>
        <time>2023-10-25T13:27:32Z</time>
      </trkpt>
      <trkpt lat="44.66978" lon="1.43242">
        <ele>297.1</ele>
        <time>2023-10-25T13:27:36Z</time>
      </trkpt>
      <trkpt lat="44.66976" lon="1.43249">
        <ele>298.2</ele>
        <time>2023-10-25T13:27:41Z</time>
      </trkpt>
      <trkpt lat="44.66975" lon="1.43255">
        <ele>295.5</ele>
        <time>2023-10-25T13:27:45Z</time>
      </trkpt>
      <trkpt lat="44.66973" lon="1.43262">
        <ele>297.6</ele>
        <time>2023-10-25T13:27:50Z</time>
      </trkpt>
      <trkpt lat="44.66971" lon="1.43268">
        <ele>299.8</ele>
        <time>2023-10-25T13:27:54Z</time>
      </trkpt>
      <trkpt lat="44.66969" lon="1.43275">
        <ele>301.4</ele>
        <time>2023-10-25T13:27:59Z</time>
      </trkpt>
      <trkpt lat="44.6697" lon="1.43282">
        <ele>300.7</ele>
        <time>2023-10-25T13:28:04Z</time>
      </trkpt>
      <trkpt lat="44.66966" lon="1.43289">
        <ele>290.9</ele>
        <time>2023-10-25T13:28:08Z</time>
      </trkpt>
      <trkpt lat="44.6696" lon="1.43298">
        <ele>292.1</ele>
        <time>2023-10-25T13:28:13Z</time>
      </trkpt>
      <trkpt lat="44.66966" lon="1.43303">
        <ele>290.9</ele>
        <time>2023-10-25T13:28:16Z</time>
      </trkpt>
      <trkpt lat="44.66973" lon="1.43307">
        <ele>290.3</ele>
        <time>2023-10-25T13:28:19Z</time>
      </trkpt>
      <trkpt lat="44.66976" lon="1.43312">
        <ele>291.3</ele>
        <time>2023-10-25T13:28:23Z</time>
      </trkpt>
      <trkpt lat="44.66982" lon="1.43317">
        <ele>291.8</ele>
        <time>2023-10-25T13:28:27Z</time>
      </trkpt>
      <trkpt lat="44.66986" lon="1.43324">
        <ele>292.6</ele>
        <time>2023-10-25T13:28:32Z</time>
      </trkpt>
      <trkpt lat="44.66992" lon="1.43325">
        <ele>291.5</ele>
        <time>2023-10-25T13:28:37Z</time>
      </trkpt>
      <trkpt lat="44.67" lon="1.43326">
        <ele>290</ele>
        <time>2023-10-25T13:28:41Z</time>
      </trkpt>
      <trkpt lat="44.67008" lon="1.43324">
        <ele>290.1</ele>
      </trkpt>
      <trkpt lat="44.67014" lon="1.43315">
        <ele>289.2</ele>
        <time>2023-10-25T13:28:45Z</time>
      </trkpt>
      <trkpt lat="44.6702" lon="1.43304">
        <ele>288.3</ele>
        <time>2023-10-25T13:28:49Z</time>
      </trkpt>
      <trkpt lat="44.67025" lon="1.43294">
        <ele>287.6</ele>
      </trkpt>
      <trkpt lat="44.67029" lon="1.43282">
        <ele>287.1</ele>
        <time>2023-10-25T13:28:53Z</time>
      </trkpt>
      <trkpt lat="44.67032" lon="1.43268">
        <ele>287</ele>
        <time>2023-10-25T13:28:56Z</time>
      </trkpt>
      <trkpt lat="44.67038" lon="1.43259">
        <ele>288.4</ele>
        <time>2023-10-25T13:28:59Z</time>
      </trkpt>
      <trkpt lat="44.67043" lon="1.43251">
        <ele>289.9</ele>
        <time>2023-10-25T13:29:04Z</time>
      </trkpt>
      <trkpt lat="44.67051" lon="1.43234">
        <ele>291.6</ele>
        <time>2023-10-25T13:29:07Z</time>
      </trkpt>
      <trkpt lat="44.67055" lon="1.43224">
        <ele>292.1</ele>
        <time>2023-10-25T13:29:10Z</time>
      </trkpt>
      <trkpt lat="44.67065" lon="1.43214">
        <ele>295.5</ele>
        <time>2023-10-25T13:29:14Z</time>
      </trkpt>
      <trkpt lat="44.67068" lon="1.43203">
        <ele>295.5</ele>
        <time>2023-10-25T13:29:18Z</time>
      </trkpt>
      <trkpt lat="44.67071" lon="1.43196">
        <ele>296.6</ele>
        <time>2023-10-25T13:29:22Z</time>
      </trkpt>
      <trkpt lat="44.67071" lon="1.4319">
        <ele>296.2</ele>
        <time>2023-10-25T13:29:26Z</time>
      </trkpt>
      <trkpt lat="44.67073" lon="1.43181">
        <ele>296.4</ele>
        <time>2023-10-25T13:29:31Z</time>
      </trkpt>
      <trkpt lat="44.67077" lon="1.43175">
        <ele>297.8</ele>
        <time>2023-10-25T13:29:35Z</time>
      </trkpt>
      <trkpt lat="44.67079" lon="1.43169">
        <ele>298.6</ele>
        <time>2023-10-25T13:29:39Z</time>
      </trkpt>
      <trkpt lat="44.67082" lon="1.43162">
        <ele>299.7</ele>
        <time>2023-10-25T13:29:44Z</time>
      </trkpt>
      <trkpt lat="44.67084" lon="1.43154">
        <ele>299.9</ele>
        <time>2023-10-25T13:29:48Z</time>
      </trkpt>
      <trkpt lat="44.67087" lon="1.43145">
        <ele>300.5</ele>
        <time>2023-10-25T13:29:52Z</time>
      </trkpt>
      <trkpt lat="44.67087" lon="1.43138">
        <ele>299.7</ele>
        <time>2023-10-25T13:29:56Z</time>
      </trkpt>
      <trkpt lat="44.67091" lon="1.43131">
        <ele>300.8</ele>
        <time>2023-10-25T13:30:00Z</time>
      </trkpt>
      <trkpt lat="44.67094" lon="1.4312">
        <ele>301.1</ele>
        <time>2023-10-25T13:30:04Z</time>
      </trkpt>
      <trkpt lat="44.67097" lon="1.43113">
        <ele>301.3</ele>
        <time>2023-10-25T13:30:08Z</time>
      </trkpt>
      <trkpt lat="44.671" lon="1.43108">
        <ele>302.2</ele>
        <time>2023-10-25T13:30:12Z</time>
      </trkpt>
      <trkpt lat="44.67102" lon="1.431">
        <ele>302.3</ele>
        <time>2023-10-25T13:30:16Z</time>
      </trkpt>
      <trkpt lat="44.67106" lon="1.4309">
        <ele>303.4</ele>
        <time>2023-10-25T13:30:21Z</time>
      </trkpt>
      <trkpt lat="44.67108" lon="1.43084">
        <ele>303.4</ele>
        <time>2023-10-25T13:30:25Z</time>
      </trkpt>
      <trkpt lat="44.67108" lon="1.43076">
        <ele>302.9</ele>
        <time>2023-10-25T13:30:29Z</time>
      </trkpt>
      <trkpt lat="44.67109" lon="1.43069">
        <ele>302.5</ele>
        <time>2023-10-25T13:30:33Z</time>
      </trkpt>
      <trkpt lat="44.6711" lon="1.43062">
        <ele>302.1</ele>
        <time>2023-10-25T13:30:37Z</time>
      </trkpt>
      <trkpt lat="44.67112" lon="1.43048">
        <ele>300.8</ele>
        <time>2023-10-25T13:30:41Z</time>
      </trkpt>
      <trkpt lat="44.67119" lon="1.43027">
        <ele>297.9</ele>
        <time>2023-10-25T13:30:45Z</time>
      </trkpt>
      <trkpt lat="44.67124" lon="1.4302">
        <ele>296.8</ele>
        <time>2023-10-25T13:30:49Z</time>
      </trkpt>
      <trkpt lat="44.67136" lon="1.43034">
        <ele>298.1</ele>
        <time>2023-10-25T13:30:53Z</time>
      </trkpt>
      <trkpt lat="44.67147" lon="1.43043">
        <ele>296</ele>
        <time>2023-10-25T13:30:57Z</time>
      </trkpt>
      <trkpt lat="44.67162" lon="1.43054">
        <ele>293.6</ele>
        <time>2023-10-25T13:31:01Z</time>
      </trkpt>
      <trkpt lat="44.67174" lon="1.43055">
        <ele>292.8</ele>
        <time>2023-10-25T13:31:05Z</time>
      </trkpt>
      <trkpt lat="44.67183" lon="1.43053">
        <ele>292.5</ele>
        <time>2023-10-25T13:31:09Z</time>
      </trkpt>
      <trkpt lat="44.67191" lon="1.43047">
        <ele>291</ele>
        <time>2023-10-25T13:31:13Z</time>
      </trkpt>
      <trkpt lat="44.67202" lon="1.43041">
        <ele>289.1</ele>
        <time>2023-10-25T13:31:17Z</time>
      </trkpt>
      <trkpt lat="44.67212" lon="1.43026">
        <ele>285.7</ele>
        <time>2023-10-25T13:31:21Z</time>
      </trkpt>
      <trkpt lat="44.67231" lon="1.42983">
        <ele>278.3</ele>
        <time>2023-10-25T13:31:25Z</time>
      </trkpt>
      <trkpt lat="44.67246" lon="1.42946">
        <ele>274.7</ele>
        <time>2023-10-25T13:31:29Z</time>
      </trkpt>
      <trkpt lat="44.67256" lon="1.42909">
        <ele>272.5</ele>
        <time>2023-10-25T13:31:33Z</time>
      </trkpt>
      <trkpt lat="44.67236" lon="1.42905">
        <ele>271</ele>
        <time>2023-10-25T13:31:37Z</time>
      </trkpt>
      <trkpt lat="44.67207" lon="1.42893">
        <ele>269</ele>
        <time>2023-10-25T13:31:41Z</time>
      </trkpt>
      <trkpt lat="44.67181" lon="1.42894">
        <ele>267.2</ele>
        <time>2023-10-25T13:31:45Z</time>
      </trkpt>
      <trkpt lat="44.67169" lon="1.42884">
        <ele>267.4</ele>
        <time>2023-10-25T13:31:49Z</time>
      </trkpt>
      <trkpt lat="44.6715" lon="1.42883">
        <ele>266.7</ele>
        <time>2023-10-25T13:31:53Z</time>
      </trkpt>
      <trkpt lat="44.67139" lon="1.42877">
        <ele>267.1</ele>
        <time>2023-10-25T13:31:57Z</time>
      </trkpt>
      <trkpt lat="44.67131" lon="1.42874">
        <ele>266.7</ele>
        <time>2023-10-25T13:32:01Z</time>
      </trkpt>
      <trkpt lat="44.67127" lon="1.42872">
        <ele>266.7</ele>
        <time>2023-10-25T13:32:05Z</time>
      </trkpt>
      <trkpt lat="44.67123" lon="1.42868">
        <ele>266.6</ele>
        <time>2023-10-25T13:32:09Z</time>
      </trkpt>
      <trkpt lat="44.67117" lon="1.42865">
        <ele>266.4</ele>
        <time>2023-10-25T13:32:13Z</time>
      </trkpt>
      <trkpt lat="44.67111" lon="1.42864">
        <ele>265.7</ele>
        <time>2023-10-25T13:32:17Z</time>
      </trkpt>
      <trkpt lat="44.67102" lon="1.42863">
        <ele>264.6</ele>
        <time>2023-10-25T13:32:30Z</time>
      </trkpt>
      <trkpt lat="44.67098" lon="1.42861">
        <ele>264.2</ele>
        <time>2023-10-25T13:32:35Z</time>
      </trkpt>
      <trkpt lat="44.6709" lon="1.42859">
        <ele>263.7</ele>
        <time>2023-10-25T13:32:40Z</time>
      </trkpt>
      <trkpt lat="44.67081" lon="1.42855">
        <ele>264.3</ele>
        <time>2023-10-25T13:32:50Z</time>
      </trkpt>
      <trkpt lat="44.67071" lon="1.42853">
        <ele>268.6</ele>
        <time>2023-10-25T13:32:53Z</time>
      </trkpt>
      <trkpt lat="44.67065" lon="1.42852">
        <ele>266.8</ele>
        <time>2023-10-25T13:32:55Z</time>
      </trkpt>
      <trkpt lat="44.6706" lon="1.42851">
        <ele>266.7</ele>
        <time>2023-10-25T13:32:58Z</time>
      </trkpt>
      <trkpt lat="44.67055" lon="1.42852">
        <ele>266.8</ele>
        <time>2023-10-25T13:33:01Z</time>
      </trkpt>
      <trkpt lat="44.6705" lon="1.4285">
        <ele>268</ele>
        <time>2023-10-25T13:33:05Z</time>
      </trkpt>
      <trkpt lat="44.67046" lon="1.42848">
        <ele>269</ele>
        <time>2023-10-25T13:33:09Z</time>
      </trkpt>
      <trkpt lat="44.67041" lon="1.42845">
        <ele>269</ele>
        <time>2023-10-25T13:33:13Z</time>
      </trkpt>
      <trkpt lat="44.67036" lon="1.42842">
        <ele>268.9</ele>
        <time>2023-10-25T13:33:17Z</time>
      </trkpt>
      <trkpt lat="44.67032" lon="1.42839">
        <ele>268</ele>
        <time>2023-10-25T13:33:21Z</time>
      </trkpt>
      <trkpt lat="44.67028" lon="1.42835">
        <ele>267.4</ele>
        <time>2023-10-25T13:33:25Z</time>
      </trkpt>
      <trkpt lat="44.67023" lon="1.42833">
        <ele>266.1</ele>
        <time>2023-10-25T13:33:29Z</time>
      </trkpt>
      <trkpt lat="44.67018" lon="1.4283">
        <ele>265.7</ele>
        <time>2023-10-25T13:33:33Z</time>
      </trkpt>
      <trkpt lat="44.67014" lon="1.42826">
        <ele>264.2</ele>
        <time>2023-10-25T13:33:37Z</time>
      </trkpt>
      <trkpt lat="44.6701" lon="1.42822">
        <ele>263.4</ele>
        <time>2023-10-25T13:33:41Z</time>
      </trkpt>
      <trkpt lat="44.67005" lon="1.42817">
        <ele>262.8</ele>
        <time>2023-10-25T13:33:45Z</time>
      </trkpt>
      <trkpt lat="44.67001" lon="1.42813">
        <ele>261.6</ele>
        <time>2023-10-25T13:33:49Z</time>
      </trkpt>
      <trkpt lat="44.66996" lon="1.42808">
        <ele>261.7</ele>
        <time>2023-10-25T13:33:53Z</time>
      </trkpt>
      <trkpt lat="44.66992" lon="1.42802">
        <ele>262.3</ele>
        <time>2023-10-25T13:33:57Z</time>
      </trkpt>
      <trkpt lat="44.66988" lon="1.42796">
        <ele>259.7</ele>
        <time>2023-10-25T13:34:01Z</time>
      </trkpt>
      <trkpt lat="44.66985" lon="1.4279">
        <ele>259.7</ele>
        <time>2023-10-25T13:34:05Z</time>
      </trkpt>
      <trkpt lat="44.66982" lon="1.42784">
        <ele>261</ele>
        <time>2023-10-25T13:34:09Z</time>
      </trkpt>
      <trkpt lat="44.66979" lon="1.42776">
        <ele>262.4</ele>
        <time>2023-10-25T13:34:13Z</time>
      </trkpt>
      <trkpt lat="44.66976" lon="1.42769">
        <ele>263.1</ele>
        <time>2023-10-25T13:34:17Z</time>
      </trkpt>
      <trkpt lat="44.66972" lon="1.42763">
        <ele>264.7</ele>
        <time>2023-10-25T13:34:21Z</time>
      </trkpt>
      <trkpt lat="44.66969" lon="1.42756">
        <ele>265.2</ele>
        <time>2023-10-25T13:34:25Z</time>
      </trkpt>
      <trkpt lat="44.66966" lon="1.4275">
        <ele>266.8</ele>
        <time>2023-10-25T13:34:29Z</time>
      </trkpt>
      <trkpt lat="44.66963" lon="1.42744">
        <ele>267.1</ele>
        <time>2023-10-25T13:34:33Z</time>
      </trkpt>
      <trkpt lat="44.6696" lon="1.42737">
        <ele>265.9</ele>
        <time>2023-10-25T13:34:37Z</time>
      </trkpt>
      <trkpt lat="44.66956" lon="1.42732">
        <ele>264.6</ele>
        <time>2023-10-25T13:34:41Z</time>
      </trkpt>
      <trkpt lat="44.66953" lon="1.42725">
        <ele>265.6</ele>
        <time>2023-10-25T13:34:45Z</time>
      </trkpt>
      <trkpt lat="44.6695" lon="1.42719">
        <ele>265.3</ele>
        <time>2023-10-25T13:34:49Z</time>
      </trkpt>
      <trkpt lat="44.66947" lon="1.42713">
        <ele>266.8</ele>
        <time>2023-10-25T13:34:53Z</time>
      </trkpt>
      <trkpt lat="44.66943" lon="1.42706">
        <ele>267.9</ele>
        <time>2023-10-25T13:34:57Z</time>
      </trkpt>
      <trkpt lat="44.6694" lon="1.42699">
        <ele>264.5</ele>
        <time>2023-10-25T13:35:01Z</time>
      </trkpt>
      <trkpt lat="44.66937" lon="1.42692">
        <ele>266</ele>
        <time>2023-10-25T13:35:05Z</time>
      </trkpt>
      <trkpt lat="44.66934" lon="1.42685">
        <ele>268.1</ele>
        <time>2023-10-25T13:35:09Z</time>
      </trkpt>
      <trkpt lat="44.66932" lon="1.42678">
        <ele>268.7</ele>
        <time>2023-10-25T13:35:13Z</time>
      </trkpt>
      <trkpt lat="44.66929" lon="1.42671">
        <ele>268.8</ele>
        <time>2023-10-25T13:35:17Z</time>
      </trkpt>
      <trkpt lat="44.66926" lon="1.42664">
        <ele>267.3</ele>
        <time>2023-10-25T13:35:21Z</time>
      </trkpt>
      <trkpt lat="44.66922" lon="1.4266">
        <ele>265.2</ele>
        <time>2023-10-25T13:35:25Z</time>
      </trkpt>
      <trkpt lat="44.66916" lon="1.42659">
        <ele>265.7</ele>
        <time>2023-10-25T13:35:29Z</time>
      </trkpt>
      <trkpt lat="44.66912" lon="1.42657">
        <ele>266.3</ele>
        <time>2023-10-25T13:35:32Z</time>
      </trkpt>
      <trkpt lat="44.66907" lon="1.42657">
        <ele>267.9</ele>
        <time>2023-10-25T13:35:35Z</time>
      </trkpt>
      <trkpt lat="44.66901" lon="1.42657">
        <ele>267.5</ele>
        <time>2023-10-25T13:35:39Z</time>
      </trkpt>
      <trkpt lat="44.66896" lon="1.42657">
        <ele>269.7</ele>
        <time>2023-10-25T13:35:43Z</time>
      </trkpt>
      <trkpt lat="44.66891" lon="1.42659">
        <ele>267.4</ele>
        <time>2023-10-25T13:35:47Z</time>
      </trkpt>
      <trkpt lat="44.66886" lon="1.42661">
        <ele>268</ele>
        <time>2023-10-25T13:35:51Z</time>
      </trkpt>
      <trkpt lat="44.66881" lon="1.42664">
        <ele>267.8</ele>
        <time>2023-10-25T13:35:55Z</time>
      </trkpt>
      <trkpt lat="44.66876" lon="1.42667">
        <ele>264.4</ele>
        <time>2023-10-25T13:35:59Z</time>
      </trkpt>
      <trkpt lat="44.66871" lon="1.42671">
        <ele>263.9</ele>
        <time>2023-10-25T13:36:03Z</time>
      </trkpt>
      <trkpt lat="44.66867" lon="1.42675">
        <ele>260.4</ele>
        <time>2023-10-25T13:36:07Z</time>
      </trkpt>
      <trkpt lat="44.66862" lon="1.42678">
        <ele>260</ele>
        <time>2023-10-25T13:36:12Z</time>
      </trkpt>
      <trkpt lat="44.66857" lon="1.42677">
        <ele>259.3</ele>
        <time>2023-10-25T13:36:19Z</time>
      </trkpt>
      <trkpt lat="44.66852" lon="1.4268">
        <ele>256</ele>
        <time>2023-10-25T13:36:23Z</time>
      </trkpt>
      <trkpt lat="44.66848" lon="1.42685">
        <ele>257.9</ele>
        <time>2023-10-25T13:36:26Z</time>
      </trkpt>
      <trkpt lat="44.66843" lon="1.42687">
        <ele>259</ele>
        <time>2023-10-25T13:36:29Z</time>
      </trkpt>
      <trkpt lat="44.66838" lon="1.42687">
        <ele>259.2</ele>
        <time>2023-10-25T13:36:32Z</time>
      </trkpt>
      <trkpt lat="44.66833" lon="1.42687">
        <ele>258.8</ele>
        <time>2023-10-25T13:36:35Z</time>
      </trkpt>
      <trkpt lat="44.66827" lon="1.42688">
        <ele>261.8</ele>
        <time>2023-10-25T13:36:39Z</time>
      </trkpt>
      <trkpt lat="44.66822" lon="1.42688">
        <ele>260.6</ele>
        <time>2023-10-25T13:36:43Z</time>
      </trkpt>
      <trkpt lat="44.66817" lon="1.42689">
        <ele>259.2</ele>
        <time>2023-10-25T13:36:47Z</time>
      </trkpt>
      <trkpt lat="44.66812" lon="1.42689">
        <ele>259.6</ele>
        <time>2023-10-25T13:36:51Z</time>
      </trkpt>
      <trkpt lat="44.66807" lon="1.4269">
        <ele>260.9</ele>
        <time>2023-10-25T13:36:55Z</time>
      </trkpt>
      <trkpt lat="44.66802" lon="1.4269">
        <ele>261.7</ele>
        <time>2023-10-25T13:36:59Z</time>
      </trkpt>
      <trkpt lat="44.66796" lon="1.42692">
        <ele>262.5</ele>
        <time>2023-10-25T13:37:03Z</time>
      </trkpt>
      <trkpt lat="44.66791" lon="1.42696">
        <ele>261.8</ele>
        <time>2023-10-25T13:37:07Z</time>
      </trkpt>
      <trkpt lat="44.66786" lon="1.42697">
        <ele>258.8</ele>
        <time>2023-10-25T13:37:10Z</time>
      </trkpt>
      <trkpt lat="44.66781" lon="1.42699">
        <ele>259.9</ele>
        <time>2023-10-25T13:37:13Z</time>
      </trkpt>
      <trkpt lat="44.66776" lon="1.427">
        <ele>259.4</ele>
        <time>2023-10-25T13:37:17Z</time>
      </trkpt>
      <trkpt lat="44.66771" lon="1.42701">
        <ele>260.1</ele>
        <time>2023-10-25T13:37:20Z</time>
      </trkpt>
      <trkpt lat="44.66766" lon="1.42702">
        <ele>260.2</ele>
        <time>2023-10-25T13:37:23Z</time>
      </trkpt>
      <trkpt lat="44.66761" lon="1.42704">
        <ele>259.8</ele>
        <time>2023-10-25T13:37:27Z</time>
      </trkpt>
      <trkpt lat="44.66755" lon="1.42706">
        <ele>260</ele>
        <time>2023-10-25T13:37:31Z</time>
      </trkpt>
      <trkpt lat="44.66751" lon="1.42709">
        <ele>260.5</ele>
        <time>2023-10-25T13:37:35Z</time>
      </trkpt>
      <trkpt lat="44.66747" lon="1.42712">
        <ele>259.8</ele>
        <time>2023-10-25T13:37:39Z</time>
      </trkpt>
      <trkpt lat="44.66741" lon="1.42714">
        <ele>261.7</ele>
        <time>2023-10-25T13:37:43Z</time>
      </trkpt>
      <trkpt lat="44.66736" lon="1.42716">
        <ele>262.6</ele>
        <time>2023-10-25T13:37:46Z</time>
      </trkpt>
      <trkpt lat="44.66731" lon="1.42718">
        <ele>261.4</ele>
        <time>2023-10-25T13:37:50Z</time>
      </trkpt>
      <trkpt lat="44.66725" lon="1.42719">
        <ele>261.6</ele>
        <time>2023-10-25T13:37:54Z</time>
      </trkpt>
      <trkpt lat="44.66721" lon="1.4272">
        <ele>262</ele>
        <time>2023-10-25T13:37:57Z</time>
      </trkpt>
      <trkpt lat="44.66715" lon="1.42722">
        <ele>264.3</ele>
        <time>2023-10-25T13:38:01Z</time>
      </trkpt>
      <trkpt lat="44.6671" lon="1.42725">
        <ele>261.6</ele>
        <time>2023-10-25T13:38:05Z</time>
      </trkpt>
      <trkpt lat="44.66704" lon="1.42728">
        <ele>260.9</ele>
        <time>2023-10-25T13:38:09Z</time>
      </trkpt>
      <trkpt lat="44.667" lon="1.42731">
        <ele>261.8</ele>
        <time>2023-10-25T13:38:13Z</time>
      </trkpt>
      <trkpt lat="44.66695" lon="1.42733">
        <ele>261.6</ele>
        <time>2023-10-25T13:38:18Z</time>
      </trkpt>
      <trkpt lat="44.6669" lon="1.42733">
        <ele>260.6</ele>
        <time>2023-10-25T13:38:22Z</time>
      </trkpt>
      <trkpt lat="44.66685" lon="1.42734">
        <ele>259.4</ele>
        <time>2023-10-25T13:38:26Z</time>
      </trkpt>
      <trkpt lat="44.6668" lon="1.42734">
        <ele>258.7</ele>
        <time>2023-10-25T13:38:30Z</time>
      </trkpt>
      <trkpt lat="44.66674" lon="1.42734">
        <ele>257.7</ele>
        <time>2023-10-25T13:38:34Z</time>
      </trkpt>
      <trkpt lat="44.66669" lon="1.42735">
        <ele>258.6</ele>
        <time>2023-10-25T13:38:38Z</time>
      </trkpt>
      <trkpt lat="44.66664" lon="1.42736">
        <ele>260.5</ele>
        <time>2023-10-25T13:38:42Z</time>
      </trkpt>
      <trkpt lat="44.66658" lon="1.42735">
        <ele>261.3</ele>
        <time>2023-10-25T13:38:46Z</time>
      </trkpt>
      <trkpt lat="44.66653" lon="1.42735">
        <ele>260.5</ele>
        <time>2023-10-25T13:38:50Z</time>
      </trkpt>
      <trkpt lat="44.66648" lon="1.42736">
        <ele>260</ele>
        <time>2023-10-25T13:38:54Z</time>
      </trkpt>
      <trkpt lat="44.66643" lon="1.42736">
        <ele>259.4</ele>
        <time>2023-10-25T13:38:58Z</time>
      </trkpt>
      <trkpt lat="44.66637" lon="1.42735">
        <ele>257.1</ele>
        <time>2023-10-25T13:39:02Z</time>
      </trkpt>
      <trkpt lat="44.66633" lon="1.42733">
        <ele>257</ele>
        <time>2023-10-25T13:39:05Z</time>
      </trkpt>
      <trkpt lat="44.66628" lon="1.42731">
        <ele>255.1</ele>
        <time>2023-10-25T13:39:09Z</time>
      </trkpt>
      <trkpt lat="44.66622" lon="1.4273">
        <ele>253.9</ele>
        <time>2023-10-25T13:39:13Z</time>
      </trkpt>
      <trkpt lat="44.66617" lon="1.42729">
        <ele>254.5</ele>
        <time>2023-10-25T13:39:17Z</time>
      </trkpt>
      <trkpt lat="44.66612" lon="1.42727">
        <ele>251.6</ele>
        <time>2023-10-25T13:39:21Z</time>
      </trkpt>
      <trkpt lat="44.66607" lon="1.42726">
        <ele>253.1</ele>
        <time>2023-10-25T13:39:25Z</time>
      </trkpt>
      <trkpt lat="44.66602" lon="1.42724">
        <ele>252.9</ele>
        <time>2023-10-25T13:39:29Z</time>
      </trkpt>
      <trkpt lat="44.66596" lon="1.42724">
        <ele>252.2</ele>
        <time>2023-10-25T13:39:33Z</time>
      </trkpt>
      <trkpt lat="44.66591" lon="1.42724">
        <ele>252.2</ele>
        <time>2023-10-25T13:39:37Z</time>
      </trkpt>
      <trkpt lat="44.66586" lon="1.42723">
        <ele>251.9</ele>
        <time>2023-10-25T13:39:41Z</time>
      </trkpt>
      <trkpt lat="44.66581" lon="1.42721">
        <ele>251.7</ele>
        <time>2023-10-25T13:39:45Z</time>
      </trkpt>
      <trkpt lat="44.66576" lon="1.4272">
        <ele>252.1</ele>
        <time>2023-10-25T13:39:49Z</time>
      </trkpt>
      <trkpt lat="44.66571" lon="1.42719">
        <ele>251</ele>
        <time>2023-10-25T13:39:53Z</time>
      </trkpt>
      <trkpt lat="44.66565" lon="1.42718">
        <ele>249.8</ele>
        <time>2023-10-25T13:39:57Z</time>
      </trkpt>
      <trkpt lat="44.6656" lon="1.42716">
        <ele>248.4</ele>
        <time>2023-10-25T13:40:01Z</time>
      </trkpt>
      <trkpt lat="44.66555" lon="1.42714">
        <ele>247.5</ele>
        <time>2023-10-25T13:40:05Z</time>
      </trkpt>
      <trkpt lat="44.6655" lon="1.42712">
        <ele>247.5</ele>
        <time>2023-10-25T13:40:09Z</time>
      </trkpt>
      <trkpt lat="44.66544" lon="1.4271">
        <ele>245.4</ele>
        <time>2023-10-25T13:40:13Z</time>
      </trkpt>
      <trkpt lat="44.66539" lon="1.42708">
        <ele>245.1</ele>
        <time>2023-10-25T13:40:17Z</time>
      </trkpt>
      <trkpt lat="44.66534" lon="1.42706">
        <ele>244.5</ele>
        <time>2023-10-25T13:40:21Z</time>
      </trkpt>
      <trkpt lat="44.66529" lon="1.42704">
        <ele>243.4</ele>
        <time>2023-10-25T13:40:25Z</time>
      </trkpt>
      <trkpt lat="44.66524" lon="1.42702">
        <ele>243.2</ele>
        <time>2023-10-25T13:40:29Z</time>
      </trkpt>
      <trkpt lat="44.66519" lon="1.427">
        <ele>242.2</ele>
        <time>2023-10-25T13:40:33Z</time>
      </trkpt>
      <trkpt lat="44.66514" lon="1.42698">
        <ele>241.6</ele>
        <time>2023-10-25T13:40:37Z</time>
      </trkpt>
      <trkpt lat="44.66509" lon="1.42696">
        <ele>241.8</ele>
        <time>2023-10-25T13:40:41Z</time>
      </trkpt>
      <trkpt lat="44.66504" lon="1.42692">
        <ele>242.3</ele>
        <time>2023-10-25T13:40:45Z</time>
      </trkpt>
      <trkpt lat="44.66499" lon="1.42689">
        <ele>243</ele>
        <time>2023-10-25T13:40:49Z</time>
      </trkpt>
      <trkpt lat="44.66495" lon="1.42685">
        <ele>244.1</ele>
        <time>2023-10-25T13:40:53Z</time>
      </trkpt>
      <trkpt lat="44.6649" lon="1.4268">
        <ele>244.6</ele>
        <time>2023-10-25T13:40:57Z</time>
      </trkpt>
      <trkpt lat="44.66485" lon="1.42677">
        <ele>244</ele>
        <time>2023-10-25T13:41:01Z</time>
      </trkpt>
      <trkpt lat="44.6648" lon="1.42673">
        <ele>244.8</ele>
        <time>2023-10-25T13:41:05Z</time>
      </trkpt>
      <trkpt lat="44.66475" lon="1.4267">
        <ele>243.2</ele>
        <time>2023-10-25T13:41:09Z</time>
      </trkpt>
      <trkpt lat="44.6647" lon="1.42667">
        <ele>243.4</ele>
        <time>2023-10-25T13:41:13Z</time>
      </trkpt>
      <trkpt lat="44.66465" lon="1.42664">
        <ele>243.6</ele>
        <time>2023-10-25T13:41:17Z</time>
      </trkpt>
      <trkpt lat="44.6646" lon="1.42662">
        <ele>243</ele>
        <time>2023-10-25T13:41:21Z</time>
      </trkpt>
      <trkpt lat="44.66455" lon="1.4266">
        <ele>243.5</ele>
        <time>2023-10-25T13:41:25Z</time>
      </trkpt>
      <trkpt lat="44.66449" lon="1.42658">
        <ele>243.3</ele>
        <time>2023-10-25T13:41:29Z</time>
      </trkpt>
      <trkpt lat="44.66444" lon="1.42657">
        <ele>243.5</ele>
        <time>2023-10-25T13:41:33Z</time>
      </trkpt>
      <trkpt lat="44.66438" lon="1.42655">
        <ele>241.5</ele>
        <time>2023-10-25T13:41:37Z</time>
      </trkpt>
      <trkpt lat="44.66434" lon="1.42654">
        <ele>243.9</ele>
        <time>2023-10-25T13:41:40Z</time>
      </trkpt>
      <trkpt lat="44.66428" lon="1.42652">
        <ele>243</ele>
        <time>2023-10-25T13:41:44Z</time>
      </trkpt>
      <trkpt lat="44.66423" lon="1.4265">
        <ele>242.8</ele>
        <time>2023-10-25T13:41:48Z</time>
      </trkpt>
      <trkpt lat="44.66418" lon="1.42647">
        <ele>243.8</ele>
        <time>2023-10-25T13:41:52Z</time>
      </trkpt>
      <trkpt lat="44.66413" lon="1.42645">
        <ele>243</ele>
        <time>2023-10-25T13:41:56Z</time>
      </trkpt>
      <trkpt lat="44.66408" lon="1.42642">
        <ele>243.1</ele>
        <time>2023-10-25T13:42:00Z</time>
      </trkpt>
      <trkpt lat="44.66402" lon="1.42639">
        <ele>243.6</ele>
        <time>2023-10-25T13:42:04Z</time>
      </trkpt>
      <trkpt lat="44.66397" lon="1.42637">
        <ele>242.6</ele>
        <time>2023-10-25T13:42:08Z</time>
      </trkpt>
      <trkpt lat="44.66392" lon="1.42635">
        <ele>241.9</ele>
        <time>2023-10-25T13:42:12Z</time>
      </trkpt>
      <trkpt lat="44.66386" lon="1.42634">
        <ele>242.5</ele>
        <time>2023-10-25T13:42:16Z</time>
      </trkpt>
      <trkpt lat="44.66381" lon="1.42632">
        <ele>242.5</ele>
        <time>2023-10-25T13:42:20Z</time>
      </trkpt>
      <trkpt lat="44.66376" lon="1.4263">
        <ele>241.5</ele>
        <time>2023-10-25T13:42:24Z</time>
      </trkpt>
      <trkpt lat="44.66371" lon="1.42628">
        <ele>240.7</ele>
        <time>2023-10-25T13:42:28Z</time>
      </trkpt>
      <trkpt lat="44.66366" lon="1.42626">
        <ele>241.4</ele>
        <time>2023-10-25T13:42:32Z</time>
      </trkpt>
      <trkpt lat="44.6636" lon="1.42623">
        <ele>241.2</ele>
        <time>2023-10-25T13:42:36Z</time>
      </trkpt>
      <trkpt lat="44.66354" lon="1.42621">
        <ele>241.6</ele>
        <time>2023-10-25T13:42:40Z</time>
      </trkpt>
      <trkpt lat="44.66349" lon="1.42618">
        <ele>240.1</ele>
        <time>2023-10-25T13:42:44Z</time>
      </trkpt>
      <trkpt lat="44.66344" lon="1.42615">
        <ele>240.9</ele>
        <time>2023-10-25T13:42:48Z</time>
      </trkpt>
      <trkpt lat="44.66339" lon="1.42612">
        <ele>241</ele>
        <time>2023-10-25T13:42:52Z</time>
      </trkpt>
      <trkpt lat="44.66334" lon="1.42608">
        <ele>240.7</ele>
        <time>2023-10-25T13:42:56Z</time>
      </trkpt>
      <trkpt lat="44.66329" lon="1.42604">
        <ele>240.2</ele>
        <time>2023-10-25T13:43:00Z</time>
      </trkpt>
      <trkpt lat="44.66324" lon="1.426">
        <ele>240</ele>
        <time>2023-10-25T13:43:04Z</time>
      </trkpt>
      <trkpt lat="44.66319" lon="1.42596">
        <ele>240.5</ele>
        <time>2023-10-25T13:43:08Z</time>
      </trkpt>
      <trkpt lat="44.66315" lon="1.42591">
        <ele>238.6</ele>
        <time>2023-10-25T13:43:12Z</time>
      </trkpt>
      <trkpt lat="44.66311" lon="1.42585">
        <ele>238.5</ele>
        <time>2023-10-25T13:43:16Z</time>
      </trkpt>
      <trkpt lat="44.66308" lon="1.42579">
        <ele>238.3</ele>
        <time>2023-10-25T13:43:20Z</time>
      </trkpt>
      <trkpt lat="44.66305" lon="1.42572">
        <ele>237.7</ele>
        <time>2023-10-25T13:43:24Z</time>
      </trkpt>
      <trkpt lat="44.66302" lon="1.42565">
        <ele>237.2</ele>
        <time>2023-10-25T13:43:28Z</time>
      </trkpt>
      <trkpt lat="44.66299" lon="1.42559">
        <ele>236.6</ele>
        <time>2023-10-25T13:43:32Z</time>
      </trkpt>
      <trkpt lat="44.66298" lon="1.42551">
        <ele>235.8</ele>
        <time>2023-10-25T13:43:36Z</time>
      </trkpt>
      <trkpt lat="44.66297" lon="1.42543">
        <ele>235.2</ele>
        <time>2023-10-25T13:43:40Z</time>
      </trkpt>
      <trkpt lat="44.66295" lon="1.42536">
        <ele>235</ele>
        <time>2023-10-25T13:43:44Z</time>
      </trkpt>
      <trkpt lat="44.66293" lon="1.42529">
        <ele>233.5</ele>
        <time>2023-10-25T13:43:48Z</time>
      </trkpt>
      <trkpt lat="44.66291" lon="1.42521">
        <ele>233</ele>
        <time>2023-10-25T13:43:52Z</time>
      </trkpt>
      <trkpt lat="44.66288" lon="1.42514">
        <ele>233.6</ele>
        <time>2023-10-25T13:43:56Z</time>
      </trkpt>
      <trkpt lat="44.66286" lon="1.42508">
        <ele>232.8</ele>
        <time>2023-10-25T13:43:59Z</time>
      </trkpt>
      <trkpt lat="44.66284" lon="1.42502">
        <ele>233</ele>
        <time>2023-10-25T13:44:02Z</time>
      </trkpt>
      <trkpt lat="44.66282" lon="1.42497">
        <ele>235.2</ele>
        <time>2023-10-25T13:44:05Z</time>
      </trkpt>
      <trkpt lat="44.66279" lon="1.42489">
        <ele>235.3</ele>
        <time>2023-10-25T13:44:09Z</time>
      </trkpt>
      <trkpt lat="44.66276" lon="1.42483">
        <ele>235.6</ele>
        <time>2023-10-25T13:44:13Z</time>
      </trkpt>
      <trkpt lat="44.66274" lon="1.42475">
        <ele>235.7</ele>
        <time>2023-10-25T13:44:17Z</time>
      </trkpt>
      <trkpt lat="44.66271" lon="1.42468">
        <ele>234.4</ele>
        <time>2023-10-25T13:44:21Z</time>
      </trkpt>
      <trkpt lat="44.66269" lon="1.42461">
        <ele>235.4</ele>
        <time>2023-10-25T13:44:25Z</time>
      </trkpt>
      <trkpt lat="44.66265" lon="1.42455">
        <ele>234.2</ele>
        <time>2023-10-25T13:44:29Z</time>
      </trkpt>
      <trkpt lat="44.66263" lon="1.42448">
        <ele>235.3</ele>
        <time>2023-10-25T13:44:33Z</time>
      </trkpt>
      <trkpt lat="44.6626" lon="1.42441">
        <ele>233.3</ele>
        <time>2023-10-25T13:44:37Z</time>
      </trkpt>
      <trkpt lat="44.66257" lon="1.42435">
        <ele>230.9</ele>
        <time>2023-10-25T13:44:41Z</time>
      </trkpt>
      <trkpt lat="44.66254" lon="1.42429">
        <ele>231</ele>
        <time>2023-10-25T13:44:45Z</time>
      </trkpt>
      <trkpt lat="44.66252" lon="1.42421">
        <ele>232.3</ele>
        <time>2023-10-25T13:44:49Z</time>
      </trkpt>
      <trkpt lat="44.6625" lon="1.42413">
        <ele>233.7</ele>
        <time>2023-10-25T13:44:53Z</time>
      </trkpt>
      <trkpt lat="44.66248" lon="1.42406">
        <ele>234.1</ele>
        <time>2023-10-25T13:44:57Z</time>
      </trkpt>
      <trkpt lat="44.66246" lon="1.424">
        <ele>233.9</ele>
        <time>2023-10-25T13:45:01Z</time>
      </trkpt>
      <trkpt lat="44.66244" lon="1.42393">
        <ele>234.3</ele>
        <time>2023-10-25T13:45:05Z</time>
      </trkpt>
      <trkpt lat="44.66242" lon="1.42385">
        <ele>234</ele>
        <time>2023-10-25T13:45:09Z</time>
      </trkpt>
      <trkpt lat="44.6624" lon="1.42378">
        <ele>234.1</ele>
        <time>2023-10-25T13:45:13Z</time>
      </trkpt>
      <trkpt lat="44.66239" lon="1.42372">
        <ele>234.5</ele>
        <time>2023-10-25T13:45:16Z</time>
      </trkpt>
      <trkpt lat="44.66237" lon="1.42365">
        <ele>234.6</ele>
        <time>2023-10-25T13:45:20Z</time>
      </trkpt>
      <trkpt lat="44.66234" lon="1.42357">
        <ele>232.5</ele>
        <time>2023-10-25T13:45:25Z</time>
      </trkpt>
      <trkpt lat="44.66232" lon="1.42351">
        <ele>232.8</ele>
        <time>2023-10-25T13:45:29Z</time>
      </trkpt>
      <trkpt lat="44.6623" lon="1.42344">
        <ele>232.7</ele>
        <time>2023-10-25T13:45:33Z</time>
      </trkpt>
      <trkpt lat="44.66227" lon="1.42337">
        <ele>229.6</ele>
        <time>2023-10-25T13:45:38Z</time>
      </trkpt>
      <trkpt lat="44.66224" lon="1.42331">
        <ele>228.1</ele>
        <time>2023-10-25T13:45:43Z</time>
      </trkpt>
      <trkpt lat="44.66221" lon="1.42326">
        <ele>228</ele>
        <time>2023-10-25T13:45:47Z</time>
      </trkpt>
      <trkpt lat="44.66217" lon="1.4232">
        <ele>228.2</ele>
        <time>2023-10-25T13:45:51Z</time>
      </trkpt>
      <trkpt lat="44.66213" lon="1.42314">
        <ele>225.7</ele>
        <time>2023-10-25T13:45:55Z</time>
      </trkpt>
      <trkpt lat="44.66211" lon="1.42308">
        <ele>226.4</ele>
        <time>2023-10-25T13:45:59Z</time>
      </trkpt>
      <trkpt lat="44.66209" lon="1.42301">
        <ele>226.5</ele>
        <time>2023-10-25T13:46:03Z</time>
      </trkpt>
      <trkpt lat="44.66206" lon="1.42295">
        <ele>226.1</ele>
        <time>2023-10-25T13:46:07Z</time>
      </trkpt>
      <trkpt lat="44.66206" lon="1.42287">
        <ele>229.1</ele>
        <time>2023-10-25T13:46:11Z</time>
      </trkpt>
      <trkpt lat="44.66207" lon="1.4228">
        <ele>230.3</ele>
        <time>2023-10-25T13:46:14Z</time>
      </trkpt>
      <trkpt lat="44.66205" lon="1.42274">
        <ele>228.1</ele>
        <time>2023-10-25T13:46:17Z</time>
      </trkpt>
      <trkpt lat="44.66201" lon="1.4227">
        <ele>226</ele>
        <time>2023-10-25T13:46:20Z</time>
      </trkpt>
      <trkpt lat="44.66196" lon="1.4227">
        <ele>224.6</ele>
        <time>2023-10-25T13:46:23Z</time>
      </trkpt>
      <trkpt lat="44.66192" lon="1.42271">
        <ele>221.3</ele>
        <time>2023-10-25T13:46:26Z</time>
      </trkpt>
      <trkpt lat="44.66187" lon="1.42273">
        <ele>220.6</ele>
        <time>2023-10-25T13:46:29Z</time>
      </trkpt>
      <trkpt lat="44.66182" lon="1.42276">
        <ele>220.8</ele>
        <time>2023-10-25T13:46:32Z</time>
      </trkpt>
      <trkpt lat="44.66177" lon="1.42279">
        <ele>221.3</ele>
        <time>2023-10-25T13:46:36Z</time>
      </trkpt>
      <trkpt lat="44.66173" lon="1.42283">
        <ele>223</ele>
        <time>2023-10-25T13:46:40Z</time>
      </trkpt>
      <trkpt lat="44.66169" lon="1.42287">
        <ele>222.9</ele>
        <time>2023-10-25T13:46:43Z</time>
      </trkpt>
      <trkpt lat="44.66164" lon="1.42292">
        <ele>221.8</ele>
        <time>2023-10-25T13:46:47Z</time>
      </trkpt>
      <trkpt lat="44.6616" lon="1.42296">
        <ele>221.6</ele>
        <time>2023-10-25T13:46:50Z</time>
      </trkpt>
      <trkpt lat="44.66155" lon="1.423">
        <ele>221.1</ele>
        <time>2023-10-25T13:46:54Z</time>
      </trkpt>
      <trkpt lat="44.66151" lon="1.42302">
        <ele>220.2</ele>
        <time>2023-10-25T13:46:57Z</time>
      </trkpt>
      <trkpt lat="44.66147" lon="1.42306">
        <ele>220.1</ele>
        <time>2023-10-25T13:47:00Z</time>
      </trkpt>
      <trkpt lat="44.66142" lon="1.4231">
        <ele>220.4</ele>
        <time>2023-10-25T13:47:04Z</time>
      </trkpt>
      <trkpt lat="44.66137" lon="1.42313">
        <ele>219.2</ele>
        <time>2023-10-25T13:47:08Z</time>
      </trkpt>
      <trkpt lat="44.66133" lon="1.42318">
        <ele>218.3</ele>
        <time>2023-10-25T13:47:12Z</time>
      </trkpt>
      <trkpt lat="44.66129" lon="1.42322">
        <ele>219.9</ele>
        <time>2023-10-25T13:47:16Z</time>
      </trkpt>
      <trkpt lat="44.66123" lon="1.42322">
        <ele>222.9</ele>
        <time>2023-10-25T13:47:21Z</time>
      </trkpt>
      <trkpt lat="44.66119" lon="1.42318">
        <ele>223</ele>
        <time>2023-10-25T13:47:25Z</time>
      </trkpt>
      <trkpt lat="44.66117" lon="1.42311">
        <ele>222.1</ele>
        <time>2023-10-25T13:47:29Z</time>
      </trkpt>
      <trkpt lat="44.66115" lon="1.42304">
        <ele>221.7</ele>
        <time>2023-10-25T13:47:33Z</time>
      </trkpt>
      <trkpt lat="44.66112" lon="1.42298">
        <ele>223.2</ele>
        <time>2023-10-25T13:47:37Z</time>
      </trkpt>
      <trkpt lat="44.66109" lon="1.42292">
        <ele>223.9</ele>
        <time>2023-10-25T13:47:41Z</time>
      </trkpt>
      <trkpt lat="44.66106" lon="1.42286">
        <ele>223.3</ele>
        <time>2023-10-25T13:47:45Z</time>
      </trkpt>
      <trkpt lat="44.66103" lon="1.4228">
        <ele>223.2</ele>
        <time>2023-10-25T13:47:49Z</time>
      </trkpt>
      <trkpt lat="44.661" lon="1.42274">
        <ele>222.6</ele>
        <time>2023-10-25T13:47:53Z</time>
      </trkpt>
      <trkpt lat="44.66097" lon="1.42267">
        <ele>221.4</ele>
        <time>2023-10-25T13:47:57Z</time>
      </trkpt>
      <trkpt lat="44.66094" lon="1.42261">
        <ele>219.5</ele>
        <time>2023-10-25T13:48:01Z</time>
      </trkpt>
      <trkpt lat="44.66091" lon="1.42256">
        <ele>220.1</ele>
        <time>2023-10-25T13:48:05Z</time>
      </trkpt>
      <trkpt lat="44.66088" lon="1.42251">
        <ele>223.4</ele>
        <time>2023-10-25T13:48:12Z</time>
      </trkpt>
      <trkpt lat="44.66086" lon="1.42244">
        <ele>225.2</ele>
        <time>2023-10-25T13:48:32Z</time>
      </trkpt>
      <trkpt lat="44.66085" lon="1.42237">
        <ele>225</ele>
        <time>2023-10-25T13:48:36Z</time>
      </trkpt>
      <trkpt lat="44.66083" lon="1.42229">
        <ele>226.2</ele>
        <time>2023-10-25T13:48:40Z</time>
      </trkpt>
      <trkpt lat="44.66082" lon="1.42223">
        <ele>226.8</ele>
        <time>2023-10-25T13:48:44Z</time>
      </trkpt>
      <trkpt lat="44.6608" lon="1.42217">
        <ele>227.1</ele>
        <time>2023-10-25T13:48:48Z</time>
      </trkpt>
      <trkpt lat="44.66078" lon="1.4221">
        <ele>227.2</ele>
        <time>2023-10-25T13:48:52Z</time>
      </trkpt>
      <trkpt lat="44.66077" lon="1.42203">
        <ele>227.3</ele>
        <time>2023-10-25T13:48:56Z</time>
      </trkpt>
      <trkpt lat="44.66075" lon="1.42197">
        <ele>226.8</ele>
        <time>2023-10-25T13:49:00Z</time>
      </trkpt>
      <trkpt lat="44.66073" lon="1.42191">
        <ele>225.8</ele>
        <time>2023-10-25T13:49:04Z</time>
      </trkpt>
      <trkpt lat="44.66071" lon="1.42184">
        <ele>225.5</ele>
        <time>2023-10-25T13:49:08Z</time>
      </trkpt>
      <trkpt lat="44.6607" lon="1.42177">
        <ele>225.3</ele>
        <time>2023-10-25T13:49:12Z</time>
      </trkpt>
      <trkpt lat="44.66071" lon="1.42171">
        <ele>220.6</ele>
        <time>2023-10-25T13:49:27Z</time>
      </trkpt>
      <trkpt lat="44.66069" lon="1.42165">
        <ele>221.1</ele>
        <time>2023-10-25T13:49:40Z</time>
      </trkpt>
      <trkpt lat="44.66065" lon="1.42161">
        <ele>220.1</ele>
        <time>2023-10-25T13:49:50Z</time>
      </trkpt>
      <trkpt lat="44.6606" lon="1.42157">
        <ele>219.8</ele>
        <time>2023-10-25T13:49:56Z</time>
      </trkpt>
      <trkpt lat="44.6606" lon="1.42151">
        <ele>219.7</ele>
        <time>2023-10-25T13:50:01Z</time>
      </trkpt>
      <trkpt lat="44.66058" lon="1.42144">
        <ele>219.7</ele>
        <time>2023-10-25T13:50:06Z</time>
      </trkpt>
      <trkpt lat="44.66057" lon="1.42137">
        <ele>218.6</ele>
        <time>2023-10-25T13:50:11Z</time>
      </trkpt>
      <trkpt lat="44.66056" lon="1.4213">
        <ele>219</ele>
        <time>2023-10-25T13:50:15Z</time>
      </trkpt>
      <trkpt lat="44.66055" lon="1.42124">
        <ele>219</ele>
        <time>2023-10-25T13:50:19Z</time>
      </trkpt>
      <trkpt lat="44.66052" lon="1.42117">
        <ele>219.3</ele>
        <time>2023-10-25T13:50:23Z</time>
      </trkpt>
      <trkpt lat="44.66052" lon="1.42109">
        <ele>219.5</ele>
        <time>2023-10-25T13:50:28Z</time>
      </trkpt>
      <trkpt lat="44.66051" lon="1.42103">
        <ele>219.8</ele>
        <time>2023-10-25T13:50:45Z</time>
      </trkpt>
      <trkpt lat="44.66049" lon="1.42097">
        <ele>220.1</ele>
        <time>2023-10-25T13:50:49Z</time>
      </trkpt>
      <trkpt lat="44.66048" lon="1.4209">
        <ele>220.2</ele>
        <time>2023-10-25T13:50:54Z</time>
      </trkpt>
      <trkpt lat="44.66046" lon="1.42083">
        <ele>220.4</ele>
        <time>2023-10-25T13:50:58Z</time>
      </trkpt>
      <trkpt lat="44.66047" lon="1.42076">
        <ele>222.6</ele>
        <time>2023-10-25T13:51:03Z</time>
      </trkpt>
      <trkpt lat="44.66046" lon="1.42069">
        <ele>221.1</ele>
        <time>2023-10-25T13:52:37Z</time>
      </trkpt>
      <trkpt lat="44.66044" lon="1.42063">
        <ele>221.5</ele>
        <time>2023-10-25T13:52:41Z</time>
      </trkpt>
      <trkpt lat="44.66042" lon="1.42057">
        <ele>220.9</ele>
        <time>2023-10-25T13:52:45Z</time>
      </trkpt>
      <trkpt lat="44.6604" lon="1.42051">
        <ele>220</ele>
        <time>2023-10-25T13:52:49Z</time>
      </trkpt>
      <trkpt lat="44.66037" lon="1.42045">
        <ele>219.5</ele>
        <time>2023-10-25T13:52:53Z</time>
      </trkpt>
      <trkpt lat="44.66035" lon="1.4204">
        <ele>218.8</ele>
        <time>2023-10-25T13:52:57Z</time>
      </trkpt>
      <trkpt lat="44.66032" lon="1.42034">
        <ele>219</ele>
        <time>2023-10-25T13:53:01Z</time>
      </trkpt>
      <trkpt lat="44.66029" lon="1.42028">
        <ele>219.6</ele>
        <time>2023-10-25T13:53:05Z</time>
      </trkpt>
      <trkpt lat="44.66026" lon="1.42022">
        <ele>219.2</ele>
        <time>2023-10-25T13:53:09Z</time>
      </trkpt>
      <trkpt lat="44.66024" lon="1.42017">
        <ele>219.2</ele>
        <time>2023-10-25T13:53:13Z</time>
      </trkpt>
      <trkpt lat="44.6602" lon="1.42011">
        <ele>218.5</ele>
        <time>2023-10-25T13:53:17Z</time>
      </trkpt>
      <trkpt lat="44.66017" lon="1.42006">
        <ele>218</ele>
        <time>2023-10-25T13:53:21Z</time>
      </trkpt>
      <trkpt lat="44.66014" lon="1.42001">
        <ele>217.7</ele>
        <time>2023-10-25T13:53:25Z</time>
      </trkpt>
      <trkpt lat="44.66011" lon="1.41994">
        <ele>217.1</ele>
        <time>2023-10-25T13:53:29Z</time>
      </trkpt>
      <trkpt lat="44.66008" lon="1.41988">
        <ele>217.5</ele>
        <time>2023-10-25T13:53:33Z</time>
      </trkpt>
      <trkpt lat="44.66005" lon="1.41981">
        <ele>217.2</ele>
        <time>2023-10-25T13:53:37Z</time>
      </trkpt>
      <trkpt lat="44.66002" lon="1.41975">
        <ele>217.1</ele>
        <time>2023-10-25T13:53:41Z</time>
      </trkpt>
      <trkpt lat="44.65999" lon="1.41969">
        <ele>217.3</ele>
        <time>2023-10-25T13:53:45Z</time>
      </trkpt>
      <trkpt lat="44.65996" lon="1.41962">
        <ele>217.9</ele>
        <time>2023-10-25T13:53:49Z</time>
      </trkpt>
      <trkpt lat="44.65994" lon="1.41956">
        <ele>217.6</ele>
        <time>2023-10-25T13:53:53Z</time>
      </trkpt>
      <trkpt lat="44.65991" lon="1.4195">
        <ele>217.7</ele>
        <time>2023-10-25T13:53:57Z</time>
      </trkpt>
      <trkpt lat="44.65989" lon="1.41943">
        <ele>217.2</ele>
        <time>2023-10-25T13:54:01Z</time>
      </trkpt>
      <trkpt lat="44.65986" lon="1.41937">
        <ele>217.1</ele>
        <time>2023-10-25T13:54:05Z</time>
      </trkpt>
      <trkpt lat="44.65984" lon="1.4193">
        <ele>216.7</ele>
        <time>2023-10-25T13:54:09Z</time>
      </trkpt>
      <trkpt lat="44.65981" lon="1.41923">
        <ele>216.1</ele>
        <time>2023-10-25T13:54:13Z</time>
      </trkpt>
      <trkpt lat="44.65979" lon="1.41917">
        <ele>215.9</ele>
        <time>2023-10-25T13:54:17Z</time>
      </trkpt>
      <trkpt lat="44.65976" lon="1.4191">
        <ele>216.2</ele>
        <time>2023-10-25T13:54:21Z</time>
      </trkpt>
      <trkpt lat="44.65973" lon="1.41904">
        <ele>215.7</ele>
        <time>2023-10-25T13:54:25Z</time>
      </trkpt>
      <trkpt lat="44.6597" lon="1.41898">
        <ele>215.1</ele>
        <time>2023-10-25T13:54:29Z</time>
      </trkpt>
      <trkpt lat="44.65967" lon="1.41891">
        <ele>215</ele>
        <time>2023-10-25T13:54:33Z</time>
      </trkpt>
      <trkpt lat="44.65964" lon="1.41886">
        <ele>215.5</ele>
        <time>2023-10-25T13:54:37Z</time>
      </trkpt>
      <trkpt lat="44.6596" lon="1.41882">
        <ele>215.5</ele>
        <time>2023-10-25T13:54:41Z</time>
      </trkpt>
      <trkpt lat="44.65956" lon="1.41886">
        <ele>216.1</ele>
        <time>2023-10-25T13:54:44Z</time>
      </trkpt>
      <trkpt lat="44.65955" lon="1.41878">
        <ele>215.9</ele>
        <time>2023-10-25T13:54:47Z</time>
      </trkpt>
      <trkpt lat="44.65955" lon="1.41871">
        <ele>215.9</ele>
        <time>2023-10-25T13:54:49Z</time>
      </trkpt>
      <trkpt lat="44.65951" lon="1.41865">
        <ele>216.1</ele>
        <time>2023-10-25T13:54:53Z</time>
      </trkpt>
      <trkpt lat="44.65947" lon="1.4186">
        <ele>216</ele>
        <time>2023-10-25T13:54:57Z</time>
      </trkpt>
      <trkpt lat="44.65944" lon="1.41855">
        <ele>215.5</ele>
        <time>2023-10-25T13:55:01Z</time>
      </trkpt>
      <trkpt lat="44.6594" lon="1.41851">
        <ele>215.7</ele>
        <time>2023-10-25T13:55:05Z</time>
      </trkpt>
      <trkpt lat="44.65935" lon="1.41847">
        <ele>215.8</ele>
        <time>2023-10-25T13:55:09Z</time>
      </trkpt>
      <trkpt lat="44.65932" lon="1.41842">
        <ele>216.5</ele>
        <time>2023-10-25T13:55:13Z</time>
      </trkpt>
      <trkpt lat="44.65928" lon="1.41837">
        <ele>217</ele>
        <time>2023-10-25T13:55:17Z</time>
      </trkpt>
      <trkpt lat="44.65923" lon="1.41833">
        <ele>216.5</ele>
        <time>2023-10-25T13:55:21Z</time>
      </trkpt>
      <trkpt lat="44.65919" lon="1.41829">
        <ele>215.9</ele>
        <time>2023-10-25T13:55:25Z</time>
      </trkpt>
      <trkpt lat="44.65915" lon="1.41825">
        <ele>214.5</ele>
        <time>2023-10-25T13:55:29Z</time>
      </trkpt>
      <trkpt lat="44.6591" lon="1.41821">
        <ele>213.5</ele>
        <time>2023-10-25T13:55:33Z</time>
      </trkpt>
      <trkpt lat="44.65906" lon="1.41817">
        <ele>213.6</ele>
        <time>2023-10-25T13:55:37Z</time>
      </trkpt>
      <trkpt lat="44.65901" lon="1.41813">
        <ele>213.1</ele>
        <time>2023-10-25T13:55:41Z</time>
      </trkpt>
      <trkpt lat="44.65897" lon="1.4181">
        <ele>213.4</ele>
        <time>2023-10-25T13:55:44Z</time>
      </trkpt>
      <trkpt lat="44.65893" lon="1.41807">
        <ele>213.8</ele>
        <time>2023-10-25T13:55:47Z</time>
      </trkpt>
      <trkpt lat="44.65888" lon="1.41803">
        <ele>214.2</ele>
        <time>2023-10-25T13:55:51Z</time>
      </trkpt>
      <trkpt lat="44.65884" lon="1.418">
        <ele>215.4</ele>
        <time>2023-10-25T13:55:54Z</time>
      </trkpt>
      <trkpt lat="44.6588" lon="1.41795">
        <ele>216.1</ele>
        <time>2023-10-25T13:55:58Z</time>
      </trkpt>
      <trkpt lat="44.65877" lon="1.41788">
        <ele>214.5</ele>
        <time>2023-10-25T13:56:02Z</time>
      </trkpt>
      <trkpt lat="44.65874" lon="1.41783">
        <ele>214.1</ele>
        <time>2023-10-25T13:56:06Z</time>
      </trkpt>
      <trkpt lat="44.6587" lon="1.41777">
        <ele>215</ele>
        <time>2023-10-25T13:56:10Z</time>
      </trkpt>
      <trkpt lat="44.65867" lon="1.41771">
        <ele>215.3</ele>
        <time>2023-10-25T13:56:14Z</time>
      </trkpt>
      <trkpt lat="44.65863" lon="1.41765">
        <ele>216.1</ele>
        <time>2023-10-25T13:56:18Z</time>
      </trkpt>
      <trkpt lat="44.65859" lon="1.41759">
        <ele>216.3</ele>
        <time>2023-10-25T13:56:22Z</time>
      </trkpt>
      <trkpt lat="44.65855" lon="1.41754">
        <ele>216.8</ele>
        <time>2023-10-25T13:56:26Z</time>
      </trkpt>
      <trkpt lat="44.65852" lon="1.41749">
        <ele>217.2</ele>
        <time>2023-10-25T13:56:30Z</time>
      </trkpt>
      <trkpt lat="44.65848" lon="1.41744">
        <ele>216.8</ele>
        <time>2023-10-25T13:56:34Z</time>
      </trkpt>
      <trkpt lat="44.65843" lon="1.41739">
        <ele>216.6</ele>
        <time>2023-10-25T13:56:38Z</time>
      </trkpt>
      <trkpt lat="44.65839" lon="1.41733">
        <ele>215.1</ele>
        <time>2023-10-25T13:56:42Z</time>
      </trkpt>
      <trkpt lat="44.65835" lon="1.41729">
        <ele>214.9</ele>
        <time>2023-10-25T13:56:46Z</time>
      </trkpt>
      <trkpt lat="44.65831" lon="1.41723">
        <ele>214.1</ele>
        <time>2023-10-25T13:56:50Z</time>
      </trkpt>
      <trkpt lat="44.65826" lon="1.41718">
        <ele>213.7</ele>
        <time>2023-10-25T13:56:54Z</time>
      </trkpt>
      <trkpt lat="44.65822" lon="1.41713">
        <ele>213.8</ele>
        <time>2023-10-25T13:56:58Z</time>
      </trkpt>
      <trkpt lat="44.65817" lon="1.41709">
        <ele>214.2</ele>
        <time>2023-10-25T13:57:02Z</time>
      </trkpt>
      <trkpt lat="44.65812" lon="1.41704">
        <ele>213.3</ele>
        <time>2023-10-25T13:57:06Z</time>
      </trkpt>
      <trkpt lat="44.65808" lon="1.41701">
        <ele>212.5</ele>
        <time>2023-10-25T13:57:10Z</time>
      </trkpt>
      <trkpt lat="44.65803" lon="1.41698">
        <ele>211.8</ele>
        <time>2023-10-25T13:57:14Z</time>
      </trkpt>
      <trkpt lat="44.65798" lon="1.41694">
        <ele>211</ele>
        <time>2023-10-25T13:57:18Z</time>
      </trkpt>
      <trkpt lat="44.65794" lon="1.41689">
        <ele>209.8</ele>
        <time>2023-10-25T13:57:22Z</time>
      </trkpt>
      <trkpt lat="44.6579" lon="1.41686">
        <ele>208.3</ele>
        <time>2023-10-25T13:57:25Z</time>
      </trkpt>
      <trkpt lat="44.65785" lon="1.41682">
        <ele>208.1</ele>
        <time>2023-10-25T13:57:29Z</time>
      </trkpt>
      <trkpt lat="44.6578" lon="1.41678">
        <ele>208</ele>
        <time>2023-10-25T13:57:33Z</time>
      </trkpt>
      <trkpt lat="44.65775" lon="1.41673">
        <ele>208.7</ele>
        <time>2023-10-25T13:57:37Z</time>
      </trkpt>
      <trkpt lat="44.65771" lon="1.41669">
        <ele>208.3</ele>
        <time>2023-10-25T13:57:41Z</time>
      </trkpt>
      <trkpt lat="44.65767" lon="1.41664">
        <ele>207.6</ele>
        <time>2023-10-25T13:57:45Z</time>
      </trkpt>
      <trkpt lat="44.65762" lon="1.41659">
        <ele>209.1</ele>
        <time>2023-10-25T13:57:49Z</time>
      </trkpt>
      <trkpt lat="44.65758" lon="1.41654">
        <ele>209.6</ele>
        <time>2023-10-25T13:57:53Z</time>
      </trkpt>
      <trkpt lat="44.65754" lon="1.4165">
        <ele>210.8</ele>
        <time>2023-10-25T13:57:57Z</time>
      </trkpt>
      <trkpt lat="44.6575" lon="1.41645">
        <ele>211</ele>
        <time>2023-10-25T13:58:01Z</time>
      </trkpt>
      <trkpt lat="44.65745" lon="1.41642">
        <ele>211.2</ele>
        <time>2023-10-25T13:58:05Z</time>
      </trkpt>
      <trkpt lat="44.6574" lon="1.41637">
        <ele>212.1</ele>
        <time>2023-10-25T13:58:09Z</time>
      </trkpt>
      <trkpt lat="44.65736" lon="1.41633">
        <ele>212</ele>
        <time>2023-10-25T13:58:13Z</time>
      </trkpt>
      <trkpt lat="44.65732" lon="1.41628">
        <ele>210.9</ele>
        <time>2023-10-25T13:58:17Z</time>
      </trkpt>
      <trkpt lat="44.65729" lon="1.41623">
        <ele>209.4</ele>
        <time>2023-10-25T13:58:21Z</time>
      </trkpt>
      <trkpt lat="44.65725" lon="1.41618">
        <ele>209.4</ele>
        <time>2023-10-25T13:58:25Z</time>
      </trkpt>
      <trkpt lat="44.65721" lon="1.41613">
        <ele>209.1</ele>
        <time>2023-10-25T13:58:29Z</time>
      </trkpt>
      <trkpt lat="44.65717" lon="1.41609">
        <ele>210.4</ele>
        <time>2023-10-25T13:58:33Z</time>
      </trkpt>
      <trkpt lat="44.65713" lon="1.41606">
        <ele>211.1</ele>
        <time>2023-10-25T13:58:37Z</time>
      </trkpt>
      <trkpt lat="44.65709" lon="1.41602">
        <ele>211.1</ele>
        <time>2023-10-25T13:58:41Z</time>
      </trkpt>
      <trkpt lat="44.65704" lon="1.41597">
        <ele>211</ele>
        <time>2023-10-25T13:58:45Z</time>
      </trkpt>
      <trkpt lat="44.657" lon="1.41593">
        <ele>212.2</ele>
        <time>2023-10-25T13:58:49Z</time>
      </trkpt>
      <trkpt lat="44.65696" lon="1.41588">
        <ele>212.6</ele>
        <time>2023-10-25T13:58:53Z</time>
      </trkpt>
      <trkpt lat="44.65692" lon="1.41585">
        <ele>212.6</ele>
        <time>2023-10-25T13:58:57Z</time>
      </trkpt>
      <trkpt lat="44.65687" lon="1.41583">
        <ele>213.3</ele>
        <time>2023-10-25T13:59:01Z</time>
      </trkpt>
      <trkpt lat="44.65683" lon="1.41579">
        <ele>213.8</ele>
        <time>2023-10-25T13:59:05Z</time>
      </trkpt>
      <trkpt lat="44.6568" lon="1.41574">
        <ele>215.1</ele>
        <time>2023-10-25T13:59:09Z</time>
      </trkpt>
      <trkpt lat="44.65676" lon="1.4157">
        <ele>217.5</ele>
        <time>2023-10-25T13:59:13Z</time>
      </trkpt>
      <trkpt lat="44.65672" lon="1.41565">
        <ele>219.4</ele>
        <time>2023-10-25T13:59:17Z</time>
      </trkpt>
      <trkpt lat="44.65669" lon="1.41561">
        <ele>221.2</ele>
        <time>2023-10-25T13:59:21Z</time>
      </trkpt>
      <trkpt lat="44.65665" lon="1.41556">
        <ele>220.8</ele>
        <time>2023-10-25T13:59:25Z</time>
      </trkpt>
      <trkpt lat="44.65661" lon="1.41551">
        <ele>219.1</ele>
        <time>2023-10-25T13:59:29Z</time>
      </trkpt>
      <trkpt lat="44.65658" lon="1.41545">
        <ele>220.7</ele>
        <time>2023-10-25T13:59:33Z</time>
      </trkpt>
      <trkpt lat="44.65654" lon="1.41542">
        <ele>219.4</ele>
        <time>2023-10-25T13:59:36Z</time>
      </trkpt>
      <trkpt lat="44.6565" lon="1.41538">
        <ele>218.2</ele>
        <time>2023-10-25T13:59:39Z</time>
      </trkpt>
      <trkpt lat="44.65646" lon="1.41532">
        <ele>214.7</ele>
        <time>2023-10-25T13:59:43Z</time>
      </trkpt>
      <trkpt lat="44.65641" lon="1.41527">
        <ele>215.4</ele>
        <time>2023-10-25T13:59:47Z</time>
      </trkpt>
      <trkpt lat="44.65638" lon="1.41521">
        <ele>214.7</ele>
        <time>2023-10-25T13:59:51Z</time>
      </trkpt>
      <trkpt lat="44.65634" lon="1.41515">
        <ele>213.3</ele>
        <time>2023-10-25T13:59:55Z</time>
      </trkpt>
      <trkpt lat="44.65629" lon="1.41511">
        <ele>212.3</ele>
        <time>2023-10-25T13:59:59Z</time>
      </trkpt>
      <trkpt lat="44.65625" lon="1.41505">
        <ele>211.9</ele>
        <time>2023-10-25T14:00:03Z</time>
      </trkpt>
      <trkpt lat="44.65622" lon="1.415">
        <ele>212.6</ele>
        <time>2023-10-25T14:00:07Z</time>
      </trkpt>
      <trkpt lat="44.65618" lon="1.41494">
        <ele>209.4</ele>
        <time>2023-10-25T14:00:11Z</time>
      </trkpt>
      <trkpt lat="44.65613" lon="1.41488">
        <ele>208.4</ele>
        <time>2023-10-25T14:00:15Z</time>
      </trkpt>
      <trkpt lat="44.65609" lon="1.41483">
        <ele>207.8</ele>
        <time>2023-10-25T14:00:19Z</time>
      </trkpt>
      <trkpt lat="44.65605" lon="1.41479">
        <ele>208.1</ele>
        <time>2023-10-25T14:00:23Z</time>
      </trkpt>
      <trkpt lat="44.656" lon="1.41474">
        <ele>207.8</ele>
        <time>2023-10-25T14:00:27Z</time>
      </trkpt>
      <trkpt lat="44.65597" lon="1.41469">
        <ele>207.2</ele>
        <time>2023-10-25T14:00:31Z</time>
      </trkpt>
      <trkpt lat="44.65593" lon="1.41464">
        <ele>208</ele>
        <time>2023-10-25T14:00:35Z</time>
      </trkpt>
      <trkpt lat="44.65589" lon="1.41458">
        <ele>208.6</ele>
        <time>2023-10-25T14:00:39Z</time>
      </trkpt>
      <trkpt lat="44.65585" lon="1.41452">
        <ele>208.9</ele>
        <time>2023-10-25T14:00:43Z</time>
      </trkpt>
      <trkpt lat="44.65581" lon="1.41447">
        <ele>208.2</ele>
        <time>2023-10-25T14:00:47Z</time>
      </trkpt>
      <trkpt lat="44.65577" lon="1.41442">
        <ele>208.1</ele>
        <time>2023-10-25T14:00:51Z</time>
      </trkpt>
      <trkpt lat="44.65573" lon="1.41436">
        <ele>208.7</ele>
        <time>2023-10-25T14:00:55Z</time>
      </trkpt>
      <trkpt lat="44.65569" lon="1.4143">
        <ele>206.6</ele>
        <time>2023-10-25T14:00:59Z</time>
      </trkpt>
      <trkpt lat="44.65565" lon="1.41425">
        <ele>207</ele>
        <time>2023-10-25T14:01:03Z</time>
      </trkpt>
      <trkpt lat="44.65561" lon="1.4142">
        <ele>206.5</ele>
        <time>2023-10-25T14:01:07Z</time>
      </trkpt>
      <trkpt lat="44.65557" lon="1.41416">
        <ele>208.9</ele>
        <time>2023-10-25T14:01:11Z</time>
      </trkpt>
      <trkpt lat="44.65553" lon="1.4141">
        <ele>209</ele>
        <time>2023-10-25T14:01:15Z</time>
      </trkpt>
      <trkpt lat="44.65549" lon="1.41406">
        <ele>206.7</ele>
        <time>2023-10-25T14:01:19Z</time>
      </trkpt>
      <trkpt lat="44.65545" lon="1.414">
        <ele>207</ele>
        <time>2023-10-25T14:01:23Z</time>
      </trkpt>
      <trkpt lat="44.65541" lon="1.41394">
        <ele>207</ele>
        <time>2023-10-25T14:01:27Z</time>
      </trkpt>
      <trkpt lat="44.65538" lon="1.41389">
        <ele>207.4</ele>
        <time>2023-10-25T14:01:31Z</time>
      </trkpt>
      <trkpt lat="44.65533" lon="1.41384">
        <ele>205.3</ele>
        <time>2023-10-25T14:01:35Z</time>
      </trkpt>
      <trkpt lat="44.65529" lon="1.4138">
        <ele>205.3</ele>
        <time>2023-10-25T14:01:39Z</time>
      </trkpt>
      <trkpt lat="44.65525" lon="1.41375">
        <ele>205.4</ele>
        <time>2023-10-25T14:01:43Z</time>
      </trkpt>
      <trkpt lat="44.65521" lon="1.4137">
        <ele>204.8</ele>
        <time>2023-10-25T14:01:47Z</time>
      </trkpt>
      <trkpt lat="44.65517" lon="1.41365">
        <ele>205.3</ele>
        <time>2023-10-25T14:01:51Z</time>
      </trkpt>
      <trkpt lat="44.65513" lon="1.4136">
        <ele>206.7</ele>
        <time>2023-10-25T14:01:55Z</time>
      </trkpt>
      <trkpt lat="44.65509" lon="1.41355">
        <ele>205.8</ele>
        <time>2023-10-25T14:01:59Z</time>
      </trkpt>
      <trkpt lat="44.65505" lon="1.41351">
        <ele>206.1</ele>
        <time>2023-10-25T14:02:03Z</time>
      </trkpt>
      <trkpt lat="44.65501" lon="1.41347">
        <ele>205.7</ele>
        <time>2023-10-25T14:02:07Z</time>
      </trkpt>
      <trkpt lat="44.65496" lon="1.41343">
        <ele>207.1</ele>
        <time>2023-10-25T14:02:11Z</time>
      </trkpt>
      <trkpt lat="44.65491" lon="1.41339">
        <ele>205.1</ele>
        <time>2023-10-25T14:02:15Z</time>
      </trkpt>
      <trkpt lat="44.65486" lon="1.41335">
        <ele>202.8</ele>
        <time>2023-10-25T14:02:19Z</time>
      </trkpt>
      <trkpt lat="44.6548" lon="1.41332">
        <ele>202.5</ele>
        <time>2023-10-25T14:02:23Z</time>
      </trkpt>
      <trkpt lat="44.65475" lon="1.41328">
        <ele>202.3</ele>
        <time>2023-10-25T14:02:27Z</time>
      </trkpt>
      <trkpt lat="44.6547" lon="1.41327">
        <ele>201.4</ele>
        <time>2023-10-25T14:02:31Z</time>
      </trkpt>
      <trkpt lat="44.65466" lon="1.41326">
        <ele>202.3</ele>
        <time>2023-10-25T14:02:35Z</time>
      </trkpt>
      <trkpt lat="44.6546" lon="1.41326">
        <ele>200.9</ele>
        <time>2023-10-25T14:03:58Z</time>
      </trkpt>
      <trkpt lat="44.65455" lon="1.41327">
        <ele>199.7</ele>
        <time>2023-10-25T14:04:03Z</time>
      </trkpt>
      <trkpt lat="44.6545" lon="1.41328">
        <ele>197.9</ele>
        <time>2023-10-25T14:04:08Z</time>
      </trkpt>
      <trkpt lat="44.6545" lon="1.41336">
        <ele>194</ele>
        <time>2023-10-25T14:06:20Z</time>
      </trkpt>
      <trkpt lat="44.65449" lon="1.41343">
        <ele>193.9</ele>
        <time>2023-10-25T14:06:24Z</time>
      </trkpt>
      <trkpt lat="44.65447" lon="1.4135">
        <ele>193.8</ele>
        <time>2023-10-25T14:06:28Z</time>
      </trkpt>
      <trkpt lat="44.65446" lon="1.41358">
        <ele>194</ele>
        <time>2023-10-25T14:06:32Z</time>
      </trkpt>
      <trkpt lat="44.65444" lon="1.41365">
        <ele>192.8</ele>
        <time>2023-10-25T14:06:36Z</time>
      </trkpt>
      <trkpt lat="44.65444" lon="1.41373">
        <ele>192.8</ele>
        <time>2023-10-25T14:06:40Z</time>
      </trkpt>
      <trkpt lat="44.65441" lon="1.41379">
        <ele>193.2</ele>
        <time>2023-10-25T14:06:44Z</time>
      </trkpt>
      <trkpt lat="44.6544" lon="1.41386">
        <ele>193.4</ele>
        <time>2023-10-25T14:06:48Z</time>
      </trkpt>
      <trkpt lat="44.65438" lon="1.41394">
        <ele>193.1</ele>
        <time>2023-10-25T14:06:52Z</time>
      </trkpt>
      <trkpt lat="44.65437" lon="1.414">
        <ele>194.6</ele>
        <time>2023-10-25T14:06:55Z</time>
      </trkpt>
      <trkpt lat="44.65436" lon="1.41406">
        <ele>195</ele>
        <time>2023-10-25T14:06:58Z</time>
      </trkpt>
      <trkpt lat="44.65434" lon="1.41414">
        <ele>193.8</ele>
        <time>2023-10-25T14:07:02Z</time>
      </trkpt>
      <trkpt lat="44.65432" lon="1.41421">
        <ele>193.4</ele>
        <time>2023-10-25T14:07:06Z</time>
      </trkpt>
      <trkpt lat="44.65431" lon="1.41428">
        <ele>193.5</ele>
        <time>2023-10-25T14:07:10Z</time>
      </trkpt>
      <trkpt lat="44.65429" lon="1.41434">
        <ele>193.1</ele>
        <time>2023-10-25T14:07:14Z</time>
      </trkpt>
      <trkpt lat="44.65427" lon="1.41441">
        <ele>193.1</ele>
        <time>2023-10-25T14:07:18Z</time>
      </trkpt>
      <trkpt lat="44.65425" lon="1.41449">
        <ele>192.4</ele>
        <time>2023-10-25T14:07:22Z</time>
      </trkpt>
      <trkpt lat="44.65424" lon="1.41456">
        <ele>192.6</ele>
        <time>2023-10-25T14:07:26Z</time>
      </trkpt>
      <trkpt lat="44.65423" lon="1.41464">
        <ele>193.3</ele>
        <time>2023-10-25T14:07:30Z</time>
      </trkpt>
      <trkpt lat="44.65422" lon="1.4147">
        <ele>193.1</ele>
        <time>2023-10-25T14:07:33Z</time>
      </trkpt>
      <trkpt lat="44.6542" lon="1.41476">
        <ele>192.9</ele>
        <time>2023-10-25T14:07:36Z</time>
      </trkpt>
      <trkpt lat="44.65418" lon="1.41483">
        <ele>192.3</ele>
        <time>2023-10-25T14:07:40Z</time>
      </trkpt>
      <trkpt lat="44.65416" lon="1.4149">
        <ele>192.1</ele>
        <time>2023-10-25T14:07:44Z</time>
      </trkpt>
      <trkpt lat="44.65415" lon="1.41497">
        <ele>191.7</ele>
        <time>2023-10-25T14:07:48Z</time>
      </trkpt>
      <trkpt lat="44.65413" lon="1.41505">
        <ele>192.1</ele>
        <time>2023-10-25T14:07:52Z</time>
      </trkpt>
      <trkpt lat="44.65411" lon="1.41511">
        <ele>192.2</ele>
        <time>2023-10-25T14:07:55Z</time>
      </trkpt>
      <trkpt lat="44.65409" lon="1.41518">
        <ele>193.1</ele>
        <time>2023-10-25T14:07:59Z</time>
      </trkpt>
      <trkpt lat="44.65407" lon="1.41526">
        <ele>192.2</ele>
        <time>2023-10-25T14:08:03Z</time>
      </trkpt>
      <trkpt lat="44.65405" lon="1.41533">
        <ele>192.5</ele>
        <time>2023-10-25T14:08:07Z</time>
      </trkpt>
      <trkpt lat="44.65403" lon="1.4154">
        <ele>193.7</ele>
        <time>2023-10-25T14:08:11Z</time>
      </trkpt>
      <trkpt lat="44.65401" lon="1.41548">
        <ele>194.6</ele>
        <time>2023-10-25T14:08:15Z</time>
      </trkpt>
      <trkpt lat="44.65399" lon="1.41554">
        <ele>194.2</ele>
        <time>2023-10-25T14:08:19Z</time>
      </trkpt>
      <trkpt lat="44.65397" lon="1.41561">
        <ele>195.3</ele>
        <time>2023-10-25T14:08:23Z</time>
      </trkpt>
      <trkpt lat="44.65395" lon="1.41567">
        <ele>194.1</ele>
        <time>2023-10-25T14:08:27Z</time>
      </trkpt>
      <trkpt lat="44.65393" lon="1.41573">
        <ele>193.6</ele>
        <time>2023-10-25T14:08:31Z</time>
      </trkpt>
      <trkpt lat="44.65391" lon="1.4158">
        <ele>194.4</ele>
        <time>2023-10-25T14:08:35Z</time>
      </trkpt>
      <trkpt lat="44.65389" lon="1.41586">
        <ele>196.1</ele>
        <time>2023-10-25T14:08:39Z</time>
      </trkpt>
      <trkpt lat="44.65386" lon="1.41593">
        <ele>198.1</ele>
        <time>2023-10-25T14:08:43Z</time>
      </trkpt>
      <trkpt lat="44.65384" lon="1.41599">
        <ele>199.5</ele>
        <time>2023-10-25T14:08:47Z</time>
      </trkpt>
      <trkpt lat="44.65382" lon="1.41606">
        <ele>198.1</ele>
        <time>2023-10-25T14:08:51Z</time>
      </trkpt>
      <trkpt lat="44.6538" lon="1.41613">
        <ele>197.9</ele>
        <time>2023-10-25T14:08:55Z</time>
      </trkpt>
      <trkpt lat="44.65377" lon="1.4162">
        <ele>197.7</ele>
        <time>2023-10-25T14:08:59Z</time>
      </trkpt>
      <trkpt lat="44.65375" lon="1.41627">
        <ele>197.9</ele>
        <time>2023-10-25T14:09:03Z</time>
      </trkpt>
      <trkpt lat="44.65373" lon="1.41634">
        <ele>199.1</ele>
        <time>2023-10-25T14:09:07Z</time>
      </trkpt>
      <trkpt lat="44.65371" lon="1.41641">
        <ele>199.3</ele>
        <time>2023-10-25T14:09:11Z</time>
      </trkpt>
      <trkpt lat="44.65368" lon="1.41649">
        <ele>199.3</ele>
        <time>2023-10-25T14:09:15Z</time>
      </trkpt>
      <trkpt lat="44.65366" lon="1.41656">
        <ele>200.2</ele>
        <time>2023-10-25T14:09:19Z</time>
      </trkpt>
      <trkpt lat="44.65364" lon="1.41662">
        <ele>200.2</ele>
        <time>2023-10-25T14:09:23Z</time>
      </trkpt>
      <trkpt lat="44.65362" lon="1.41669">
        <ele>200.3</ele>
        <time>2023-10-25T14:09:27Z</time>
      </trkpt>
      <trkpt lat="44.6536" lon="1.41675">
        <ele>200.4</ele>
        <time>2023-10-25T14:09:31Z</time>
      </trkpt>
      <trkpt lat="44.65357" lon="1.41681">
        <ele>200.4</ele>
        <time>2023-10-25T14:09:35Z</time>
      </trkpt>
      <trkpt lat="44.65355" lon="1.41688">
        <ele>199.4</ele>
        <time>2023-10-25T14:09:39Z</time>
      </trkpt>
      <trkpt lat="44.65353" lon="1.41694">
        <ele>198.9</ele>
        <time>2023-10-25T14:09:43Z</time>
      </trkpt>
      <trkpt lat="44.6535" lon="1.417">
        <ele>197.8</ele>
        <time>2023-10-25T14:09:47Z</time>
      </trkpt>
      <trkpt lat="44.65347" lon="1.41706">
        <ele>195</ele>
        <time>2023-10-25T14:09:51Z</time>
      </trkpt>
      <trkpt lat="44.65344" lon="1.41711">
        <ele>195.3</ele>
        <time>2023-10-25T14:09:55Z</time>
      </trkpt>
      <trkpt lat="44.65341" lon="1.41717">
        <ele>195.8</ele>
        <time>2023-10-25T14:09:59Z</time>
      </trkpt>
      <trkpt lat="44.65338" lon="1.41723">
        <ele>195.2</ele>
        <time>2023-10-25T14:10:03Z</time>
      </trkpt>
      <trkpt lat="44.65335" lon="1.41728">
        <ele>194.4</ele>
        <time>2023-10-25T14:10:07Z</time>
      </trkpt>
      <trkpt lat="44.65331" lon="1.41734">
        <ele>194</ele>
        <time>2023-10-25T14:10:11Z</time>
      </trkpt>
      <trkpt lat="44.65327" lon="1.4174">
        <ele>193.8</ele>
        <time>2023-10-25T14:10:15Z</time>
      </trkpt>
      <trkpt lat="44.65324" lon="1.41746">
        <ele>193.9</ele>
        <time>2023-10-25T14:10:19Z</time>
      </trkpt>
      <trkpt lat="44.65321" lon="1.41752">
        <ele>194.3</ele>
        <time>2023-10-25T14:10:23Z</time>
      </trkpt>
      <trkpt lat="44.65317" lon="1.41758">
        <ele>193.6</ele>
        <time>2023-10-25T14:10:27Z</time>
      </trkpt>
      <trkpt lat="44.65313" lon="1.41764">
        <ele>194.1</ele>
        <time>2023-10-25T14:10:31Z</time>
      </trkpt>
      <trkpt lat="44.6531" lon="1.4177">
        <ele>195.5</ele>
        <time>2023-10-25T14:10:35Z</time>
      </trkpt>
      <trkpt lat="44.65307" lon="1.41776">
        <ele>195.9</ele>
        <time>2023-10-25T14:10:39Z</time>
      </trkpt>
      <trkpt lat="44.65303" lon="1.41782">
        <ele>197.7</ele>
        <time>2023-10-25T14:10:43Z</time>
      </trkpt>
      <trkpt lat="44.65299" lon="1.41788">
        <ele>197.8</ele>
        <time>2023-10-25T14:10:47Z</time>
      </trkpt>
      <trkpt lat="44.65295" lon="1.41794">
        <ele>197.4</ele>
        <time>2023-10-25T14:10:51Z</time>
      </trkpt>
      <trkpt lat="44.65291" lon="1.418">
        <ele>198.5</ele>
        <time>2023-10-25T14:10:55Z</time>
      </trkpt>
      <trkpt lat="44.65287" lon="1.41804">
        <ele>198</ele>
        <time>2023-10-25T14:10:59Z</time>
      </trkpt>
      <trkpt lat="44.65282" lon="1.41808">
        <ele>197.8</ele>
        <time>2023-10-25T14:11:03Z</time>
      </trkpt>
      <trkpt lat="44.65277" lon="1.41811">
        <ele>198.1</ele>
        <time>2023-10-25T14:11:07Z</time>
      </trkpt>
      <trkpt lat="44.65272" lon="1.41813">
        <ele>197.6</ele>
        <time>2023-10-25T14:11:10Z</time>
      </trkpt>
      <trkpt lat="44.65267" lon="1.41816">
        <ele>196.9</ele>
        <time>2023-10-25T14:11:14Z</time>
      </trkpt>
      <trkpt lat="44.65262" lon="1.41819">
        <ele>197.1</ele>
        <time>2023-10-25T14:11:18Z</time>
      </trkpt>
      <trkpt lat="44.65258" lon="1.41823">
        <ele>196.6</ele>
        <time>2023-10-25T14:11:22Z</time>
      </trkpt>
      <trkpt lat="44.65244" lon="1.41816">
        <ele>197.2</ele>
      </trkpt>
      <trkpt lat="44.65228" lon="1.4181">
        <ele>195.5</ele>
      </trkpt>
      <trkpt lat="44.65212" lon="1.41804">
        <ele>194.6</ele>
      </trkpt>
      <trkpt lat="44.65206" lon="1.41801">
        <ele>194.3</ele>
      </trkpt>
      <trkpt lat="44.65201" lon="1.418">
        <ele>194</ele>
      </trkpt>
      <trkpt lat="44.65196" lon="1.41797">
        <ele>193.8</ele>
      </trkpt>
      <trkpt lat="44.65192" lon="1.41797">
        <ele>193.7</ele>
      </trkpt>
      <trkpt lat="44.65187" lon="1.41796">
        <ele>193.6</ele>
      </trkpt>
      <trkpt lat="44.65183" lon="1.41796">
        <ele>193.6</ele>
      </trkpt>
      <trkpt lat="44.65181" lon="1.41794">
        <ele>193.6</ele>
      </trkpt>
      <trkpt lat="44.65176" lon="1.41794">
        <ele>193.6</ele>
      </trkpt>
      <trkpt lat="44.65172" lon="1.41793">
        <ele>193.6</ele>
      </trkpt>
      <trkpt lat="44.65167" lon="1.41793">
        <ele>193.6</ele>
      </trkpt>
      <trkpt lat="44.65161" lon="1.41792">
        <ele>193.6</ele>
      </trkpt>
      <trkpt lat="44.65158" lon="1.41791">
        <ele>193.6</ele>
      </trkpt>
      <trkpt lat="44.65154" lon="1.41791">
        <ele>193.7</ele>
      </trkpt>
      <trkpt lat="44.6515" lon="1.41792">
        <ele>193.8</ele>
      </trkpt>
      <trkpt lat="44.65147" lon="1.41789">
        <ele>193.8</ele>
      </trkpt>
      <trkpt lat="44.65143" lon="1.41786">
        <ele>193.9</ele>
      </trkpt>
      <trkpt lat="44.6514" lon="1.41784">
        <ele>194</ele>
      </trkpt>
      <trkpt lat="44.65136" lon="1.41782">
        <ele>193.9</ele>
      </trkpt>
      <trkpt lat="44.65132" lon="1.4178">
        <ele>193.8</ele>
      </trkpt>
      <trkpt lat="44.65129" lon="1.41777">
        <ele>193.6</ele>
      </trkpt>
      <trkpt lat="44.65126" lon="1.41775">
        <ele>193.6</ele>
      </trkpt>
      <trkpt lat="44.65122" lon="1.41773">
        <ele>193.5</ele>
      </trkpt>
      <trkpt lat="44.65116" lon="1.41768">
        <ele>193.5</ele>
      </trkpt>
      <trkpt lat="44.65112" lon="1.41764">
        <ele>193.5</ele>
      </trkpt>
      <trkpt lat="44.65108" lon="1.41761">
        <ele>193.5</ele>
      </trkpt>
      <trkpt lat="44.65104" lon="1.41759">
        <ele>193.5</ele>
      </trkpt>
      <trkpt lat="44.65101" lon="1.41754">
        <ele>193.5</ele>
      </trkpt>
      <trkpt lat="44.65097" lon="1.41755">
        <ele>193.4</ele>
      </trkpt>
      <trkpt lat="44.65093" lon="1.41751">
        <ele>193.3</ele>
      </trkpt>
      <trkpt lat="44.65087" lon="1.41745">
        <ele>193.1</ele>
      </trkpt>
      <trkpt lat="44.6508" lon="1.41738">
        <ele>193</ele>
      </trkpt>
      <trkpt lat="44.65072" lon="1.41731">
        <ele>193</ele>
      </trkpt>
      <trkpt lat="44.65068" lon="1.41725">
        <ele>193</ele>
      </trkpt>
      <trkpt lat="44.65064" lon="1.4172">
        <ele>192.9</ele>
      </trkpt>
      <trkpt lat="44.65059" lon="1.41717">
        <ele>192.8</ele>
      </trkpt>
      <trkpt lat="44.65054" lon="1.41709">
        <ele>192.6</ele>
      </trkpt>
      <trkpt lat="44.65049" lon="1.41703">
        <ele>192.5</ele>
      </trkpt>
      <trkpt lat="44.65046" lon="1.41698">
        <ele>192.5</ele>
      </trkpt>
      <trkpt lat="44.65041" lon="1.41695">
        <ele>192.5</ele>
      </trkpt>
      <trkpt lat="44.65037" lon="1.4169">
        <ele>192.7</ele>
      </trkpt>
      <trkpt lat="44.65033" lon="1.41682">
        <ele>192.8</ele>
      </trkpt>
      <trkpt lat="44.65028" lon="1.41676">
        <ele>193</ele>
      </trkpt>
      <trkpt lat="44.65024" lon="1.41672">
        <ele>193.1</ele>
      </trkpt>
      <trkpt lat="44.6502" lon="1.41666">
        <ele>193.3</ele>
      </trkpt>
      <trkpt lat="44.65017" lon="1.41664">
        <ele>193.3</ele>
      </trkpt>
      <trkpt lat="44.65013" lon="1.4166">
        <ele>193.4</ele>
      </trkpt>
      <trkpt lat="44.65006" lon="1.4166">
        <ele>193.7</ele>
      </trkpt>
      <trkpt lat="44.65003" lon="1.41668">
        <ele>193.8</ele>
      </trkpt>
      <trkpt lat="44.64999" lon="1.41677">
        <ele>193.3</ele>
      </trkpt>
      <trkpt lat="44.64996" lon="1.41683">
        <ele>193</ele>
      </trkpt>
      <trkpt lat="44.64993" lon="1.4169">
        <ele>192.8</ele>
      </trkpt>
      <trkpt lat="44.64988" lon="1.417">
        <ele>192.8</ele>
      </trkpt>
      <trkpt lat="44.64985" lon="1.41705">
        <ele>193.1</ele>
      </trkpt>
      <trkpt lat="44.64983" lon="1.41711">
        <ele>193.2</ele>
      </trkpt>
      <trkpt lat="44.64982" lon="1.41717">
        <ele>193.3</ele>
      </trkpt>
      <trkpt lat="44.64978" lon="1.41722">
        <ele>193.6</ele>
      </trkpt>
      <trkpt lat="44.64975" lon="1.41727">
        <ele>193.7</ele>
      </trkpt>
      <trkpt lat="44.64971" lon="1.41734">
        <ele>193.6</ele>
      </trkpt>
      <trkpt lat="44.64968" lon="1.41741">
        <ele>193.5</ele>
      </trkpt>
      <trkpt lat="44.64966" lon="1.41745">
        <ele>193.4</ele>
      </trkpt>
      <trkpt lat="44.64964" lon="1.41749">
        <ele>193.3</ele>
      </trkpt>
      <trkpt lat="44.64962" lon="1.41755">
        <ele>193.4</ele>
      </trkpt>
      <trkpt lat="44.64959" lon="1.41761">
        <ele>193.5</ele>
      </trkpt>
      <trkpt lat="44.64958" lon="1.41764">
        <ele>193.5</ele>
      </trkpt>
      <trkpt lat="44.64955" lon="1.41769">
        <ele>193.6</ele>
      </trkpt>
      <trkpt lat="44.64952" lon="1.41776">
        <ele>193.7</ele>
      </trkpt>
      <trkpt lat="44.64949" lon="1.41782">
        <ele>193.7</ele>
      </trkpt>
      <trkpt lat="44.64947" lon="1.41787">
        <ele>193.6</ele>
      </trkpt>
      <trkpt lat="44.64944" lon="1.41792">
        <ele>193.5</ele>
      </trkpt>
      <trkpt lat="44.64941" lon="1.41798">
        <ele>193.6</ele>
      </trkpt>
      <trkpt lat="44.64938" lon="1.41804">
        <ele>193.8</ele>
      </trkpt>
      <trkpt lat="44.64936" lon="1.41809">
        <ele>193.9</ele>
      </trkpt>
      <trkpt lat="44.64933" lon="1.41815">
        <ele>194.1</ele>
      </trkpt>
      <trkpt lat="44.6493" lon="1.41822">
        <ele>194.2</ele>
      </trkpt>
      <trkpt lat="44.64928" lon="1.41828">
        <ele>194.3</ele>
      </trkpt>
      <trkpt lat="44.64925" lon="1.41836">
        <ele>194.5</ele>
      </trkpt>
      <trkpt lat="44.64921" lon="1.41845">
        <ele>194.7</ele>
      </trkpt>
      <trkpt lat="44.64918" lon="1.41853">
        <ele>194.9</ele>
      </trkpt>
      <trkpt lat="44.64916" lon="1.41858">
        <ele>195</ele>
      </trkpt>
      <trkpt lat="44.64913" lon="1.41866">
        <ele>195</ele>
      </trkpt>
      <trkpt lat="44.64911" lon="1.41873">
        <ele>194.8</ele>
      </trkpt>
      <trkpt lat="44.64907" lon="1.41883">
        <ele>194.6</ele>
      </trkpt>
      <trkpt lat="44.64905" lon="1.41889">
        <ele>194.4</ele>
      </trkpt>
      <trkpt lat="44.64902" lon="1.41897">
        <ele>194.7</ele>
      </trkpt>
      <trkpt lat="44.649" lon="1.41903">
        <ele>194.9</ele>
      </trkpt>
      <trkpt lat="44.64898" lon="1.4191">
        <ele>195.2</ele>
      </trkpt>
      <trkpt lat="44.64896" lon="1.41917">
        <ele>195.5</ele>
      </trkpt>
      <trkpt lat="44.64892" lon="1.41928">
        <ele>195.4</ele>
      </trkpt>
      <trkpt lat="44.64891" lon="1.41934">
        <ele>195.3</ele>
      </trkpt>
      <trkpt lat="44.64888" lon="1.41942">
        <ele>195.2</ele>
      </trkpt>
      <trkpt lat="44.64886" lon="1.41947">
        <ele>195.2</ele>
      </trkpt>
      <trkpt lat="44.64884" lon="1.41955">
        <ele>195.4</ele>
      </trkpt>
      <trkpt lat="44.64881" lon="1.41962">
        <ele>195.5</ele>
      </trkpt>
      <trkpt lat="44.64876" lon="1.41975">
        <ele>195.9</ele>
      </trkpt>
      <trkpt lat="44.64874" lon="1.41982">
        <ele>196.1</ele>
      </trkpt>
      <trkpt lat="44.64871" lon="1.41989">
        <ele>196.3</ele>
      </trkpt>
      <trkpt lat="44.6487" lon="1.41993">
        <ele>196.4</ele>
      </trkpt>
      <trkpt lat="44.64868" lon="1.42">
        <ele>196.5</ele>
      </trkpt>
      <trkpt lat="44.64865" lon="1.42008">
        <ele>196.5</ele>
      </trkpt>
      <trkpt lat="44.64862" lon="1.42017">
        <ele>196.3</ele>
      </trkpt>
      <trkpt lat="44.6486" lon="1.42023">
        <ele>196.3</ele>
      </trkpt>
      <trkpt lat="44.64858" lon="1.42031">
        <ele>196.4</ele>
      </trkpt>
      <trkpt lat="44.64855" lon="1.42039">
        <ele>196.7</ele>
      </trkpt>
      <trkpt lat="44.64853" lon="1.42048">
        <ele>197</ele>
      </trkpt>
      <trkpt lat="44.6485" lon="1.42056">
        <ele>197.2</ele>
      </trkpt>
      <trkpt lat="44.64847" lon="1.42065">
        <ele>197.5</ele>
      </trkpt>
      <trkpt lat="44.64845" lon="1.42074">
        <ele>197.8</ele>
      </trkpt>
      <trkpt lat="44.6484" lon="1.42086">
        <ele>198.2</ele>
      </trkpt>
      <trkpt lat="44.64835" lon="1.42101">
        <ele>198.3</ele>
      </trkpt>
      <trkpt lat="44.64831" lon="1.42116">
        <ele>198</ele>
      </trkpt>
      <trkpt lat="44.6483" lon="1.42124">
        <ele>197.8</ele>
      </trkpt>
      <trkpt lat="44.64827" lon="1.42131">
        <ele>197.9</ele>
      </trkpt>
      <trkpt lat="44.64824" lon="1.4214">
        <ele>198</ele>
      </trkpt>
      <trkpt lat="44.64821" lon="1.4215">
        <ele>198.5</ele>
      </trkpt>
      <trkpt lat="44.64819" lon="1.4216">
        <ele>198.9</ele>
      </trkpt>
      <trkpt lat="44.64818" lon="1.42171">
        <ele>199.1</ele>
      </trkpt>
      <trkpt lat="44.64816" lon="1.42178">
        <ele>199</ele>
      </trkpt>
      <trkpt lat="44.64815" lon="1.42186">
        <ele>198.9</ele>
      </trkpt>
      <trkpt lat="44.64814" lon="1.42195">
        <ele>198.8</ele>
      </trkpt>
      <trkpt lat="44.64813" lon="1.42202">
        <ele>199</ele>
      </trkpt>
      <trkpt lat="44.64811" lon="1.42211">
        <ele>199.2</ele>
      </trkpt>
      <trkpt lat="44.6481" lon="1.42219">
        <ele>199.4</ele>
      </trkpt>
      <trkpt lat="44.64809" lon="1.42226">
        <ele>199.4</ele>
      </trkpt>
      <trkpt lat="44.64808" lon="1.42229">
        <ele>199.4</ele>
      </trkpt>
      <trkpt lat="44.64807" lon="1.42238">
        <ele>199.3</ele>
      </trkpt>
      <trkpt lat="44.64806" lon="1.42245">
        <ele>199.2</ele>
      </trkpt>
      <trkpt lat="44.64805" lon="1.42249">
        <ele>199.1</ele>
      </trkpt>
      <trkpt lat="44.64804" lon="1.42254">
        <ele>199</ele>
      </trkpt>
      <trkpt lat="44.64804" lon="1.42259">
        <ele>198.9</ele>
      </trkpt>
      <trkpt lat="44.64803" lon="1.42264">
        <ele>198.8</ele>
      </trkpt>
      <trkpt lat="44.64802" lon="1.4227">
        <ele>198.7</ele>
      </trkpt>
      <trkpt lat="44.64801" lon="1.42275">
        <ele>198.6</ele>
      </trkpt>
      <trkpt lat="44.648" lon="1.42284">
        <ele>198.7</ele>
      </trkpt>
      <trkpt lat="44.64798" lon="1.42292">
        <ele>198.9</ele>
      </trkpt>
      <trkpt lat="44.64797" lon="1.423">
        <ele>199.2</ele>
      </trkpt>
      <trkpt lat="44.64796" lon="1.42306">
        <ele>199.3</ele>
      </trkpt>
      <trkpt lat="44.64795" lon="1.42311">
        <ele>199.3</ele>
      </trkpt>
      <trkpt lat="44.64795" lon="1.42317">
        <ele>199.2</ele>
      </trkpt>
      <trkpt lat="44.64794" lon="1.42321">
        <ele>199.1</ele>
      </trkpt>
      <trkpt lat="44.64793" lon="1.42327">
        <ele>199</ele>
      </trkpt>
      <trkpt lat="44.64792" lon="1.42334">
        <ele>198.9</ele>
      </trkpt>
      <trkpt lat="44.64791" lon="1.42341">
        <ele>199.1</ele>
      </trkpt>
      <trkpt lat="44.6479" lon="1.42346">
        <ele>199.2</ele>
      </trkpt>
      <trkpt lat="44.64789" lon="1.42355">
        <ele>199.4</ele>
      </trkpt>
      <trkpt lat="44.64788" lon="1.42362">
        <ele>199.5</ele>
      </trkpt>
      <trkpt lat="44.64786" lon="1.42373">
        <ele>200.1</ele>
      </trkpt>
      <trkpt lat="44.64785" lon="1.42381">
        <ele>200.4</ele>
      </trkpt>
      <trkpt lat="44.64785" lon="1.42385">
        <ele>200.7</ele>
      </trkpt>
      <trkpt lat="44.64784" lon="1.4239">
        <ele>200.9</ele>
      </trkpt>
      <trkpt lat="44.64782" lon="1.424">
        <ele>201.2</ele>
      </trkpt>
      <trkpt lat="44.64782" lon="1.42404">
        <ele>201.4</ele>
      </trkpt>
      <trkpt lat="44.64781" lon="1.42412">
        <ele>201.6</ele>
      </trkpt>
      <trkpt lat="44.6478" lon="1.42418">
        <ele>201.7</ele>
      </trkpt>
      <trkpt lat="44.64779" lon="1.42424">
        <ele>201.8</ele>
      </trkpt>
      <trkpt lat="44.64778" lon="1.4243">
        <ele>201.9</ele>
      </trkpt>
      <trkpt lat="44.64777" lon="1.4244">
        <ele>202.1</ele>
      </trkpt>
      <trkpt lat="44.64776" lon="1.42448">
        <ele>202.1</ele>
      </trkpt>
      <trkpt lat="44.64775" lon="1.42457">
        <ele>201.9</ele>
      </trkpt>
      <trkpt lat="44.64774" lon="1.42466">
        <ele>201.8</ele>
      </trkpt>
      <trkpt lat="44.64774" lon="1.42469">
        <ele>201.8</ele>
      </trkpt>
      <trkpt lat="44.64772" lon="1.42476">
        <ele>201.9</ele>
      </trkpt>
      <trkpt lat="44.64771" lon="1.42482">
        <ele>201.9</ele>
      </trkpt>
      <trkpt lat="44.64769" lon="1.42492">
        <ele>201.9</ele>
      </trkpt>
      <trkpt lat="44.64768" lon="1.42498">
        <ele>201.9</ele>
      </trkpt>
      <trkpt lat="44.64767" lon="1.42502">
        <ele>202</ele>
      </trkpt>
      <trkpt lat="44.64766" lon="1.42509">
        <ele>202.2</ele>
      </trkpt>
      <trkpt lat="44.64764" lon="1.42515">
        <ele>202.4</ele>
      </trkpt>
      <trkpt lat="44.64762" lon="1.42524">
        <ele>202.8</ele>
      </trkpt>
      <trkpt lat="44.64761" lon="1.42531">
        <ele>202.9</ele>
      </trkpt>
      <trkpt lat="44.64759" lon="1.4254">
        <ele>202.8</ele>
      </trkpt>
      <trkpt lat="44.64757" lon="1.42548">
        <ele>202.6</ele>
      </trkpt>
      <trkpt lat="44.64756" lon="1.42556">
        <ele>202.4</ele>
      </trkpt>
      <trkpt lat="44.64754" lon="1.42564">
        <ele>202.3</ele>
      </trkpt>
      <trkpt lat="44.64753" lon="1.42571">
        <ele>202.2</ele>
      </trkpt>
      <trkpt lat="44.64751" lon="1.42579">
        <ele>202.1</ele>
      </trkpt>
      <trkpt lat="44.6475" lon="1.42587">
        <ele>202</ele>
      </trkpt>
      <trkpt lat="44.64748" lon="1.42594">
        <ele>202</ele>
      </trkpt>
      <trkpt lat="44.64747" lon="1.426">
        <ele>202</ele>
      </trkpt>
      <trkpt lat="44.64745" lon="1.4261">
        <ele>202</ele>
      </trkpt>
      <trkpt lat="44.64743" lon="1.42619">
        <ele>202.3</ele>
      </trkpt>
      <trkpt lat="44.64741" lon="1.42627">
        <ele>202.6</ele>
      </trkpt>
      <trkpt lat="44.6474" lon="1.42636">
        <ele>202.9</ele>
      </trkpt>
      <trkpt lat="44.64739" lon="1.42641">
        <ele>203</ele>
      </trkpt>
      <trkpt lat="44.64737" lon="1.42647">
        <ele>203.2</ele>
      </trkpt>
      <trkpt lat="44.64735" lon="1.42657">
        <ele>203.3</ele>
      </trkpt>
      <trkpt lat="44.64734" lon="1.42663">
        <ele>203.4</ele>
      </trkpt>
      <trkpt lat="44.64733" lon="1.42671">
        <ele>203.5</ele>
      </trkpt>
      <trkpt lat="44.64731" lon="1.42677">
        <ele>203.7</ele>
      </trkpt>
      <trkpt lat="44.6473" lon="1.42683">
        <ele>203.9</ele>
      </trkpt>
      <trkpt lat="44.64728" lon="1.42693">
        <ele>204.2</ele>
      </trkpt>
      <trkpt lat="44.64726" lon="1.42702">
        <ele>204</ele>
      </trkpt>
      <trkpt lat="44.64725" lon="1.4271">
        <ele>203.7</ele>
      </trkpt>
      <trkpt lat="44.64723" lon="1.42715">
        <ele>203.4</ele>
      </trkpt>
      <trkpt lat="44.64722" lon="1.42721">
        <ele>203.1</ele>
      </trkpt>
      <trkpt lat="44.64721" lon="1.42725">
        <ele>203.1</ele>
      </trkpt>
      <trkpt lat="44.64719" lon="1.42735">
        <ele>203.5</ele>
      </trkpt>
      <trkpt lat="44.64718" lon="1.42742">
        <ele>203.7</ele>
      </trkpt>
      <trkpt lat="44.64716" lon="1.4275">
        <ele>204.1</ele>
      </trkpt>
      <trkpt lat="44.64715" lon="1.42758">
        <ele>204.6</ele>
      </trkpt>
      <trkpt lat="44.64713" lon="1.42766">
        <ele>205</ele>
      </trkpt>
      <trkpt lat="44.64712" lon="1.42772">
        <ele>205.4</ele>
      </trkpt>
      <trkpt lat="44.6471" lon="1.4278">
        <ele>205.7</ele>
      </trkpt>
      <trkpt lat="44.64709" lon="1.42784">
        <ele>205.8</ele>
      </trkpt>
      <trkpt lat="44.64708" lon="1.42789">
        <ele>205.8</ele>
      </trkpt>
      <trkpt lat="44.64707" lon="1.42796">
        <ele>205.9</ele>
      </trkpt>
      <trkpt lat="44.64705" lon="1.42805">
        <ele>205.9</ele>
      </trkpt>
      <trkpt lat="44.64704" lon="1.42811">
        <ele>205.9</ele>
      </trkpt>
      <trkpt lat="44.64703" lon="1.42816">
        <ele>206</ele>
      </trkpt>
      <trkpt lat="44.64702" lon="1.42821">
        <ele>206.1</ele>
      </trkpt>
      <trkpt lat="44.64701" lon="1.42828">
        <ele>206.2</ele>
      </trkpt>
      <trkpt lat="44.647" lon="1.42832">
        <ele>206.3</ele>
      </trkpt>
      <trkpt lat="44.64698" lon="1.42841">
        <ele>206.3</ele>
      </trkpt>
      <trkpt lat="44.64696" lon="1.42848">
        <ele>206.2</ele>
      </trkpt>
      <trkpt lat="44.64696" lon="1.42852">
        <ele>206.2</ele>
      </trkpt>
      <trkpt lat="44.64695" lon="1.42855">
        <ele>206.2</ele>
      </trkpt>
      <trkpt lat="44.64694" lon="1.42861">
        <ele>206.1</ele>
      </trkpt>
      <trkpt lat="44.64692" lon="1.42868">
        <ele>206.4</ele>
      </trkpt>
      <trkpt lat="44.64691" lon="1.42875">
        <ele>206.6</ele>
      </trkpt>
      <trkpt lat="44.6469" lon="1.4288">
        <ele>206.9</ele>
      </trkpt>
      <trkpt lat="44.64689" lon="1.42886">
        <ele>207.2</ele>
      </trkpt>
      <trkpt lat="44.64687" lon="1.42893">
        <ele>207.5</ele>
      </trkpt>
      <trkpt lat="44.64686" lon="1.429">
        <ele>207.7</ele>
      </trkpt>
      <trkpt lat="44.64685" lon="1.42902">
        <ele>207.8</ele>
      </trkpt>
      <trkpt lat="44.64684" lon="1.42908">
        <ele>208</ele>
      </trkpt>
      <trkpt lat="44.64683" lon="1.42915">
        <ele>208.3</ele>
      </trkpt>
      <trkpt lat="44.64682" lon="1.42923">
        <ele>208.6</ele>
      </trkpt>
      <trkpt lat="44.6468" lon="1.42929">
        <ele>208.8</ele>
      </trkpt>
      <trkpt lat="44.64679" lon="1.42936">
        <ele>209.1</ele>
      </trkpt>
      <trkpt lat="44.64678" lon="1.42942">
        <ele>209.2</ele>
      </trkpt>
      <trkpt lat="44.64676" lon="1.4295">
        <ele>209.4</ele>
      </trkpt>
      <trkpt lat="44.64676" lon="1.42953">
        <ele>209.5</ele>
      </trkpt>
      <trkpt lat="44.64674" lon="1.42962">
        <ele>209.6</ele>
      </trkpt>
      <trkpt lat="44.64673" lon="1.42966">
        <ele>209.7</ele>
      </trkpt>
      <trkpt lat="44.64673" lon="1.4297">
        <ele>209.8</ele>
      </trkpt>
      <trkpt lat="44.64671" lon="1.42977">
        <ele>209.8</ele>
      </trkpt>
      <trkpt lat="44.6467" lon="1.42985">
        <ele>209.9</ele>
      </trkpt>
      <trkpt lat="44.64668" lon="1.42994">
        <ele>209.9</ele>
      </trkpt>
      <trkpt lat="44.64667" lon="1.43003">
        <ele>210.1</ele>
      </trkpt>
      <trkpt lat="44.64664" lon="1.43014">
        <ele>210.8</ele>
      </trkpt>
      <trkpt lat="44.64662" lon="1.43025">
        <ele>211.4</ele>
      </trkpt>
      <trkpt lat="44.64661" lon="1.43031">
        <ele>211.5</ele>
      </trkpt>
      <trkpt lat="44.64659" lon="1.43042">
        <ele>211.2</ele>
      </trkpt>
      <trkpt lat="44.64659" lon="1.43045">
        <ele>211.1</ele>
      </trkpt>
      <trkpt lat="44.64657" lon="1.43053">
        <ele>211</ele>
      </trkpt>
      <trkpt lat="44.64655" lon="1.43064">
        <ele>211.3</ele>
      </trkpt>
      <trkpt lat="44.64652" lon="1.43078">
        <ele>211.9</ele>
      </trkpt>
      <trkpt lat="44.64652" lon="1.43082">
        <ele>212</ele>
      </trkpt>
      <trkpt lat="44.64649" lon="1.43093">
        <ele>212.4</ele>
      </trkpt>
      <trkpt lat="44.64649" lon="1.43097">
        <ele>212.5</ele>
      </trkpt>
      <trkpt lat="44.64647" lon="1.43106">
        <ele>212.6</ele>
      </trkpt>
      <trkpt lat="44.64645" lon="1.43117">
        <ele>213</ele>
      </trkpt>
      <trkpt lat="44.64643" lon="1.43125">
        <ele>213.5</ele>
      </trkpt>
      <trkpt lat="44.64642" lon="1.43131">
        <ele>213.9</ele>
      </trkpt>
      <trkpt lat="44.64639" lon="1.43148">
        <ele>214.9</ele>
      </trkpt>
      <trkpt lat="44.64637" lon="1.43158">
        <ele>215.6</ele>
      </trkpt>
      <trkpt lat="44.64636" lon="1.43165">
        <ele>216</ele>
      </trkpt>
      <trkpt lat="44.64634" lon="1.43177">
        <ele>217</ele>
      </trkpt>
      <trkpt lat="44.64632" lon="1.43185">
        <ele>217.6</ele>
      </trkpt>
      <trkpt lat="44.6463" lon="1.43196">
        <ele>218.3</ele>
      </trkpt>
      <trkpt lat="44.64628" lon="1.43204">
        <ele>218.4</ele>
      </trkpt>
      <trkpt lat="44.64626" lon="1.43218">
        <ele>218.5</ele>
      </trkpt>
      <trkpt lat="44.64623" lon="1.43231">
        <ele>218.1</ele>
      </trkpt>
      <trkpt lat="44.64621" lon="1.43239">
        <ele>217.7</ele>
      </trkpt>
      <trkpt lat="44.64621" lon="1.43244">
        <ele>217.5</ele>
      </trkpt>
      <trkpt lat="44.64619" lon="1.43254">
        <ele>217.4</ele>
      </trkpt>
      <trkpt lat="44.64617" lon="1.43262">
        <ele>217.6</ele>
      </trkpt>
      <trkpt lat="44.64616" lon="1.43266">
        <ele>217.7</ele>
      </trkpt>
      <trkpt lat="44.64614" lon="1.43278">
        <ele>218</ele>
      </trkpt>
      <trkpt lat="44.64613" lon="1.43286">
        <ele>218</ele>
      </trkpt>
      <trkpt lat="44.64611" lon="1.43295">
        <ele>217.9</ele>
      </trkpt>
      <trkpt lat="44.64609" lon="1.43306">
        <ele>217.9</ele>
      </trkpt>
      <trkpt lat="44.64608" lon="1.43312">
        <ele>218.3</ele>
      </trkpt>
      <trkpt lat="44.64606" lon="1.43323">
        <ele>218.9</ele>
      </trkpt>
      <trkpt lat="44.64604" lon="1.43334">
        <ele>219.5</ele>
      </trkpt>
      <trkpt lat="44.64602" lon="1.43344">
        <ele>219.7</ele>
      </trkpt>
      <trkpt lat="44.64601" lon="1.4335">
        <ele>219.7</ele>
      </trkpt>
      <trkpt lat="44.646" lon="1.43356">
        <ele>219.7</ele>
      </trkpt>
      <trkpt lat="44.64599" lon="1.43367">
        <ele>219.9</ele>
      </trkpt>
      <trkpt lat="44.64598" lon="1.43379">
        <ele>220.3</ele>
      </trkpt>
      <trkpt lat="44.64597" lon="1.43386">
        <ele>220.5</ele>
      </trkpt>
      <trkpt lat="44.64597" lon="1.4339">
        <ele>220.6</ele>
      </trkpt>
      <trkpt lat="44.64596" lon="1.43397">
        <ele>220.9</ele>
      </trkpt>
      <trkpt lat="44.64596" lon="1.43403">
        <ele>221.1</ele>
      </trkpt>
      <trkpt lat="44.64595" lon="1.43411">
        <ele>221.4</ele>
      </trkpt>
      <trkpt lat="44.64594" lon="1.43419">
        <ele>221.7</ele>
      </trkpt>
      <trkpt lat="44.64595" lon="1.43427">
        <ele>221.4</ele>
      </trkpt>
      <trkpt lat="44.64596" lon="1.43429">
        <ele>221.3</ele>
      </trkpt>
      <trkpt lat="44.64597" lon="1.43437">
        <ele>221.1</ele>
      </trkpt>
      <trkpt lat="44.64598" lon="1.43447">
        <ele>220.8</ele>
      </trkpt>
      <trkpt lat="44.646" lon="1.43456">
        <ele>220.5</ele>
      </trkpt>
      <trkpt lat="44.646" lon="1.43462">
        <ele>220.3</ele>
      </trkpt>
      <trkpt lat="44.64603" lon="1.43476">
        <ele>219.9</ele>
      </trkpt>
      <trkpt lat="44.64603" lon="1.43481">
        <ele>219.8</ele>
      </trkpt>
      <trkpt lat="44.64604" lon="1.43487">
        <ele>219.6</ele>
      </trkpt>
      <trkpt lat="44.64606" lon="1.43499">
        <ele>219.4</ele>
      </trkpt>
      <trkpt lat="44.64607" lon="1.43505">
        <ele>219.3</ele>
      </trkpt>
      <trkpt lat="44.64608" lon="1.43511">
        <ele>219.2</ele>
      </trkpt>
      <trkpt lat="44.64609" lon="1.43518">
        <ele>219.1</ele>
      </trkpt>
      <trkpt lat="44.6461" lon="1.43526">
        <ele>219.1</ele>
      </trkpt>
      <trkpt lat="44.64611" lon="1.43536">
        <ele>219</ele>
      </trkpt>
      <trkpt lat="44.64612" lon="1.43543">
        <ele>218.8</ele>
      </trkpt>
      <trkpt lat="44.6462" lon="1.4355">
        <ele>218</ele>
      </trkpt>
      <trkpt lat="44.64624" lon="1.43555">
        <ele>217.6</ele>
      </trkpt>
      <trkpt lat="44.64627" lon="1.43562">
        <ele>217.3</ele>
      </trkpt>
      <trkpt lat="44.64629" lon="1.4357">
        <ele>217.1</ele>
      </trkpt>
      <trkpt lat="44.64631" lon="1.43574">
        <ele>216.9</ele>
      </trkpt>
      <trkpt lat="44.64634" lon="1.43587">
        <ele>216.5</ele>
      </trkpt>
      <trkpt lat="44.64638" lon="1.43598">
        <ele>216.1</ele>
      </trkpt>
      <trkpt lat="44.6464" lon="1.43604">
        <ele>215.9</ele>
      </trkpt>
      <trkpt lat="44.64642" lon="1.4361">
        <ele>215.7</ele>
      </trkpt>
      <trkpt lat="44.64644" lon="1.43615">
        <ele>215.6</ele>
      </trkpt>
      <trkpt lat="44.64645" lon="1.43618">
        <ele>215.6</ele>
      </trkpt>
      <trkpt lat="44.64647" lon="1.43625">
        <ele>215.5</ele>
      </trkpt>
      <trkpt lat="44.64648" lon="1.43629">
        <ele>215.4</ele>
      </trkpt>
      <trkpt lat="44.6465" lon="1.43634">
        <ele>215.3</ele>
      </trkpt>
      <trkpt lat="44.64652" lon="1.43639">
        <ele>215.1</ele>
      </trkpt>
      <trkpt lat="44.64654" lon="1.43646">
        <ele>214.8</ele>
      </trkpt>
      <trkpt lat="44.64656" lon="1.43652">
        <ele>214.5</ele>
      </trkpt>
      <trkpt lat="44.6466" lon="1.43658">
        <ele>213.9</ele>
      </trkpt>
      <trkpt lat="44.64664" lon="1.43663">
        <ele>213.4</ele>
      </trkpt>
      <trkpt lat="44.64666" lon="1.43669">
        <ele>213.1</ele>
      </trkpt>
      <trkpt lat="44.64667" lon="1.43671">
        <ele>213</ele>
      </trkpt>
      <trkpt lat="44.6467" lon="1.43679">
        <ele>212.7</ele>
      </trkpt>
      <trkpt lat="44.6467" lon="1.43682">
        <ele>212.6</ele>
      </trkpt>
      <trkpt lat="44.64673" lon="1.4369">
        <ele>212.3</ele>
      </trkpt>
      <trkpt lat="44.64674" lon="1.43693">
        <ele>212.2</ele>
      </trkpt>
      <trkpt lat="44.64676" lon="1.43699">
        <ele>211.9</ele>
      </trkpt>
      <trkpt lat="44.64676" lon="1.43701">
        <ele>211.7</ele>
      </trkpt>
      <trkpt lat="44.64679" lon="1.4371">
        <ele>211.1</ele>
      </trkpt>
      <trkpt lat="44.64682" lon="1.43719">
        <ele>210.5</ele>
      </trkpt>
      <trkpt lat="44.64685" lon="1.4373">
        <ele>210</ele>
      </trkpt>
      <trkpt lat="44.64687" lon="1.43738">
        <ele>209.8</ele>
      </trkpt>
      <trkpt lat="44.64689" lon="1.43743">
        <ele>209.6</ele>
      </trkpt>
      <trkpt lat="44.64692" lon="1.43751">
        <ele>209.5</ele>
      </trkpt>
      <trkpt lat="44.64695" lon="1.43762">
        <ele>210.7</ele>
      </trkpt>
      <trkpt lat="44.64696" lon="1.43767">
        <ele>211.3</ele>
      </trkpt>
      <trkpt lat="44.64696" lon="1.43771">
        <ele>211.7</ele>
      </trkpt>
      <trkpt lat="44.64698" lon="1.43775">
        <ele>212.1</ele>
      </trkpt>
      <trkpt lat="44.647" lon="1.43779">
        <ele>212.3</ele>
      </trkpt>
      <trkpt lat="44.64701" lon="1.43782">
        <ele>212.2</ele>
      </trkpt>
      <trkpt lat="44.64702" lon="1.43787">
        <ele>212.2</ele>
      </trkpt>
      <trkpt lat="44.64704" lon="1.43791">
        <ele>212.1</ele>
      </trkpt>
      <trkpt lat="44.64706" lon="1.43795">
        <ele>212</ele>
      </trkpt>
      <trkpt lat="44.64712" lon="1.43798">
        <ele>211.2</ele>
      </trkpt>
      <trkpt lat="44.64718" lon="1.43801">
        <ele>210.5</ele>
      </trkpt>
      <trkpt lat="44.64721" lon="1.43804">
        <ele>210.2</ele>
      </trkpt>
      <trkpt lat="44.64724" lon="1.43808">
        <ele>210</ele>
      </trkpt>
      <trkpt lat="44.64725" lon="1.43815">
        <ele>210.4</ele>
      </trkpt>
      <trkpt lat="44.64726" lon="1.43823">
        <ele>210.7</ele>
      </trkpt>
      <trkpt lat="44.64728" lon="1.4383">
        <ele>211</ele>
      </trkpt>
      <trkpt lat="44.64729" lon="1.43838">
        <ele>211</ele>
      </trkpt>
      <trkpt lat="44.6473" lon="1.43844">
        <ele>210.9</ele>
      </trkpt>
      <trkpt lat="44.64732" lon="1.43855">
        <ele>210.8</ele>
      </trkpt>
      <trkpt lat="44.64733" lon="1.43861">
        <ele>210.8</ele>
      </trkpt>
      <trkpt lat="44.64735" lon="1.43868">
        <ele>210.9</ele>
      </trkpt>
      <trkpt lat="44.64736" lon="1.43874">
        <ele>211.1</ele>
      </trkpt>
      <trkpt lat="44.64737" lon="1.43882">
        <ele>211.3</ele>
      </trkpt>
      <trkpt lat="44.64739" lon="1.43877">
        <ele>210.4</ele>
      </trkpt>
      <trkpt lat="44.64741" lon="1.43872">
        <ele>209.4</ele>
      </trkpt>
      <trkpt lat="44.64747" lon="1.43868">
        <ele>207.5</ele>
      </trkpt>
      <trkpt lat="44.64752" lon="1.43867">
        <ele>206.4</ele>
      </trkpt>
      <trkpt lat="44.64755" lon="1.43869">
        <ele>206.2</ele>
      </trkpt>
      <trkpt lat="44.6476" lon="1.43869">
        <ele>205.7</ele>
      </trkpt>
      <trkpt lat="44.64764" lon="1.43868">
        <ele>205.2</ele>
      </trkpt>
      <trkpt lat="44.64764" lon="1.43863">
        <ele>204.7</ele>
      </trkpt>
      <trkpt lat="44.64764" lon="1.43857">
        <ele>204.4</ele>
      </trkpt>
      <trkpt lat="44.64764" lon="1.43852">
        <ele>204.2</ele>
      </trkpt>
      <trkpt lat="44.64764" lon="1.43847">
        <ele>204</ele>
      </trkpt>
      <trkpt lat="44.64768" lon="1.43845">
        <ele>203.7</ele>
      </trkpt>
      <trkpt lat="44.64771" lon="1.43844">
        <ele>203.5</ele>
      </trkpt>
      <trkpt lat="44.64775" lon="1.43842">
        <ele>203.2</ele>
      </trkpt>
      <trkpt lat="44.64778" lon="1.43842">
        <ele>203</ele>
      </trkpt>
      <trkpt lat="44.64784" lon="1.43843">
        <ele>202.8</ele>
      </trkpt>
      <trkpt lat="44.64789" lon="1.43843">
        <ele>202.7</ele>
      </trkpt>
      <trkpt lat="44.64792" lon="1.43844">
        <ele>202.7</ele>
      </trkpt>
      <trkpt lat="44.64798" lon="1.43846">
        <ele>202.6</ele>
      </trkpt>
      <trkpt lat="44.64799" lon="1.43855">
        <ele>202.8</ele>
      </trkpt>
      <trkpt lat="44.648" lon="1.43862">
        <ele>203</ele>
      </trkpt>
      <trkpt lat="44.64803" lon="1.43868">
        <ele>203.3</ele>
      </trkpt>
      <trkpt lat="44.64806" lon="1.43875">
        <ele>203.5</ele>
      </trkpt>
      <trkpt lat="44.64808" lon="1.43882">
        <ele>203.7</ele>
      </trkpt>
      <trkpt lat="44.64811" lon="1.43888">
        <ele>204</ele>
      </trkpt>
      <trkpt lat="44.64813" lon="1.43894">
        <ele>204.1</ele>
      </trkpt>
      <trkpt lat="44.64815" lon="1.439">
        <ele>204.1</ele>
      </trkpt>
      <trkpt lat="44.64818" lon="1.43906">
        <ele>204.1</ele>
      </trkpt>
      <trkpt lat="44.64824" lon="1.43899">
        <ele>203.9</ele>
      </trkpt>
      <trkpt lat="44.64828" lon="1.43893">
        <ele>203.9</ele>
      </trkpt>
      <trkpt lat="44.64831" lon="1.4389">
        <ele>204</ele>
      </trkpt>
      <trkpt lat="44.64836" lon="1.43888">
        <ele>203.9</ele>
      </trkpt>
      <trkpt lat="44.64841" lon="1.43886">
        <ele>203.6</ele>
      </trkpt>
      <trkpt lat="44.64845" lon="1.43885">
        <ele>203.3</ele>
      </trkpt>
      <trkpt lat="44.6485" lon="1.43883">
        <ele>203.1</ele>
      </trkpt>
      <trkpt lat="44.64854" lon="1.43881">
        <ele>202.9</ele>
      </trkpt>
      <trkpt lat="44.64858" lon="1.4388">
        <ele>202.8</ele>
      </trkpt>
      <trkpt lat="44.64861" lon="1.43879">
        <ele>202.6</ele>
      </trkpt>
      <trkpt lat="44.64866" lon="1.43877">
        <ele>202.5</ele>
      </trkpt>
      <trkpt lat="44.64871" lon="1.43876">
        <ele>202.3</ele>
      </trkpt>
      <trkpt lat="44.64878" lon="1.43874">
        <ele>202.2</ele>
      </trkpt>
      <trkpt lat="44.64884" lon="1.43872">
        <ele>202.1</ele>
      </trkpt>
      <trkpt lat="44.64888" lon="1.43871">
        <ele>202</ele>
      </trkpt>
      <trkpt lat="44.64895" lon="1.43869">
        <ele>202.2</ele>
      </trkpt>
      <trkpt lat="44.64902" lon="1.43867">
        <ele>202.5</ele>
      </trkpt>
      <trkpt lat="44.64906" lon="1.43866">
        <ele>202.6</ele>
      </trkpt>
      <trkpt lat="44.64911" lon="1.43864">
        <ele>202.8</ele>
      </trkpt>
      <trkpt lat="44.64916" lon="1.43863">
        <ele>203</ele>
      </trkpt>
      <trkpt lat="44.6492" lon="1.43861">
        <ele>203</ele>
      </trkpt>
      <trkpt lat="44.64923" lon="1.4386">
        <ele>203</ele>
      </trkpt>
      <trkpt lat="44.64929" lon="1.43858">
        <ele>202.9</ele>
      </trkpt>
      <trkpt lat="44.64933" lon="1.43857">
        <ele>202.9</ele>
      </trkpt>
      <trkpt lat="44.64937" lon="1.43856">
        <ele>202.8</ele>
      </trkpt>
      <trkpt lat="44.64943" lon="1.43852">
        <ele>202.7</ele>
      </trkpt>
      <trkpt lat="44.64948" lon="1.43849">
        <ele>202.6</ele>
      </trkpt>
      <trkpt lat="44.64953" lon="1.43846">
        <ele>202.6</ele>
      </trkpt>
      <trkpt lat="44.64957" lon="1.43843">
        <ele>202.6</ele>
      </trkpt>
      <trkpt lat="44.64964" lon="1.43838">
        <ele>202.8</ele>
      </trkpt>
      <trkpt lat="44.64969" lon="1.43836">
        <ele>202.9</ele>
      </trkpt>
      <trkpt lat="44.64971" lon="1.43834">
        <ele>203</ele>
      </trkpt>
      <trkpt lat="44.64975" lon="1.43827">
        <ele>202.8</ele>
      </trkpt>
      <trkpt lat="44.6498" lon="1.43816">
        <ele>202.6</ele>
      </trkpt>
      <trkpt lat="44.64985" lon="1.43806">
        <ele>202.5</ele>
      </trkpt>
      <trkpt lat="44.64988" lon="1.43801">
        <ele>202.7</ele>
      </trkpt>
      <trkpt lat="44.64993" lon="1.43791">
        <ele>203.1</ele>
      </trkpt>
      <trkpt lat="44.64998" lon="1.43782">
        <ele>203.7</ele>
      </trkpt>
      <trkpt lat="44.65001" lon="1.43776">
        <ele>203.9</ele>
      </trkpt>
      <trkpt lat="44.65003" lon="1.43771">
        <ele>203.7</ele>
      </trkpt>
      <trkpt lat="44.65006" lon="1.43765">
        <ele>203.5</ele>
      </trkpt>
      <trkpt lat="44.65009" lon="1.4376">
        <ele>203.4</ele>
      </trkpt>
      <trkpt lat="44.65012" lon="1.43753">
        <ele>203.1</ele>
      </trkpt>
      <trkpt lat="44.65014" lon="1.43749">
        <ele>203</ele>
      </trkpt>
      <trkpt lat="44.65012" lon="1.4374">
        <ele>202.7</ele>
      </trkpt>
      <trkpt lat="44.6501" lon="1.43734">
        <ele>202.5</ele>
      </trkpt>
      <trkpt lat="44.65008" lon="1.43725">
        <ele>201.9</ele>
      </trkpt>
      <trkpt lat="44.65006" lon="1.43719">
        <ele>201.8</ele>
      </trkpt>
      <trkpt lat="44.65004" lon="1.43712">
        <ele>201.9</ele>
      </trkpt>
      <trkpt lat="44.65" lon="1.437">
        <ele>202.6</ele>
      </trkpt>
      <trkpt lat="44.64999" lon="1.4369">
        <ele>202.9</ele>
      </trkpt>
      <trkpt lat="44.64997" lon="1.43685">
        <ele>202.8</ele>
      </trkpt>
      <trkpt lat="44.64995" lon="1.43676">
        <ele>202.5</ele>
      </trkpt>
      <trkpt lat="44.64992" lon="1.43658">
        <ele>201.9</ele>
      </trkpt>
      <trkpt lat="44.64991" lon="1.43649">
        <ele>201.6</ele>
      </trkpt>
      <trkpt lat="44.64989" lon="1.43643">
        <ele>201.3</ele>
      </trkpt>
      <trkpt lat="44.64987" lon="1.43634">
        <ele>201.1</ele>
      </trkpt>
      <trkpt lat="44.64984" lon="1.43621">
        <ele>200.8</ele>
      </trkpt>
      <trkpt lat="44.64981" lon="1.43611">
        <ele>200.7</ele>
      </trkpt>
      <trkpt lat="44.64979" lon="1.43602">
        <ele>200.9</ele>
      </trkpt>
      <trkpt lat="44.64978" lon="1.43597">
        <ele>201.1</ele>
      </trkpt>
      <trkpt lat="44.64976" lon="1.43589">
        <ele>201.6</ele>
      </trkpt>
      <trkpt lat="44.64973" lon="1.43577">
        <ele>202.2</ele>
      </trkpt>
    </trkseg>
  </trk>
</gpx>